<?xml version='1.0' encoding='UTF-8'?><gpx version="1.1" creator="JPX - https://github.com/jenetics/jpx" xmlns="http://www.topografix.com/GPX/1/1"><trk><trkseg><trkpt lat="47.246739934242555" lon="-1.5690100472435067"><ele>28.999999999999996</ele><time>2026-04-09T16:49:25.006Z</time></trkpt><trkpt lat="47.24680330143053" lon="-1.5689963009223054"><ele>29.0</ele><time>2026-04-09T16:49:28.002Z</time></trkpt><trkpt lat="47.24688343242485" lon="-1.5689579118057795"><ele>29.0</ele><time>2026-04-09T16:49:31.017Z</time></trkpt><trkpt lat="47.24693699278612" lon="-1.5688686445370026"><ele>29.0</ele><time>2026-04-09T16:49:33.01Z</time></trkpt><trkpt lat="47.24698347043921" lon="-1.5687469393029518"><ele>28.999999999999996</ele><time>2026-04-09T16:49:35.014Z</time></trkpt><trkpt lat="47.247006604491965" lon="-1.5686056204154795"><ele>29.0</ele><time>2026-04-09T16:49:37.007Z</time></trkpt><trkpt lat="47.24701729141851" lon="-1.5684544947012964"><ele>28.799999999999997</ele><time>2026-04-09T16:49:39.019Z</time></trkpt><trkpt lat="47.247040886475936" lon="-1.5682892035707536"><ele>28.599999999999998</ele><time>2026-04-09T16:49:41.011Z</time></trkpt><trkpt lat="47.24707110323687" lon="-1.5681155305370391"><ele>28.4</ele><time>2026-04-09T16:49:42.997Z</time></trkpt><trkpt lat="47.247099769345716" lon="-1.567954430358082"><ele>28.2</ele><time>2026-04-09T16:49:45.01Z</time></trkpt><trkpt lat="47.24712939937343" lon="-1.5678224153831302"><ele>28.0</ele><time>2026-04-09T16:49:46.996Z</time></trkpt><trkpt lat="47.247179816521005" lon="-1.567737841980129"><ele>28.000000000000004</ele><time>2026-04-09T16:49:48.99Z</time></trkpt><trkpt lat="47.24720739298244" lon="-1.567641869188815"><ele>28.0</ele><time>2026-04-09T16:49:50.991Z</time></trkpt><trkpt lat="47.24726099525322" lon="-1.5675290487721258"><ele>28.0</ele><time>2026-04-09T16:49:52.99Z</time></trkpt><trkpt lat="47.247330145954386" lon="-1.5675295516863161"><ele>28.0</ele><time>2026-04-09T16:49:54.99Z</time></trkpt><trkpt lat="47.247415138452546" lon="-1.56758445315209"><ele>28.000000000000004</ele><time>2026-04-09T16:49:56.991Z</time></trkpt><trkpt lat="47.247496275275246" lon="-1.5676575433477458"><ele>28.0</ele><time>2026-04-09T16:49:58.983Z</time></trkpt><trkpt lat="47.24756957501848" lon="-1.567777069286972"><ele>28.000000000000004</ele><time>2026-04-09T16:50:00.991Z</time></trkpt><trkpt lat="47.24763273265888" lon="-1.5678473096355496"><ele>28.0</ele><time>2026-04-09T16:50:02.992Z</time></trkpt><trkpt lat="47.247720072089926" lon="-1.567902294920355"><ele>28.0</ele><time>2026-04-09T16:50:05.005Z</time></trkpt><trkpt lat="47.247785241387085" lon="-1.5679227467640935"><ele>28.0</ele><time>2026-04-09T16:50:05.983Z</time></trkpt><trkpt lat="47.24787455056538" lon="-1.5679829288288651"><ele>28.000000000000004</ele><time>2026-04-09T16:50:07.99Z</time></trkpt><trkpt lat="47.24796134517272" lon="-1.5680441167220176"><ele>28.0</ele><time>2026-04-09T16:50:09.987Z</time></trkpt><trkpt lat="47.24804420028557" lon="-1.568104382605821"><ele>28.799999999999997</ele><time>2026-04-09T16:50:11.992Z</time></trkpt><trkpt lat="47.24815375176002" lon="-1.5681309532388747"><ele>29.599999999999998</ele><time>2026-04-09T16:50:14Z</time></trkpt><trkpt lat="47.24824653942813" lon="-1.568153249101311"><ele>30.400000000000002</ele><time>2026-04-09T16:50:15.985Z</time></trkpt><trkpt lat="47.24833044227888" lon="-1.5681885369136632"><ele>31.200000000000003</ele><time>2026-04-09T16:50:17.992Z</time></trkpt><trkpt lat="47.24842976783146" lon="-1.5682302787914575"><ele>32.0</ele><time>2026-04-09T16:50:20.002Z</time></trkpt><trkpt lat="47.248528255193726" lon="-1.5682601183667482"><ele>32.0</ele><time>2026-04-09T16:50:21.999Z</time></trkpt><trkpt lat="47.24863445390691" lon="-1.5682985913023058"><ele>32.0</ele><time>2026-04-09T16:50:23.996Z</time></trkpt><trkpt lat="47.248729714236454" lon="-1.5683381538852754"><ele>32.0</ele><time>2026-04-09T16:50:26.007Z</time></trkpt><trkpt lat="47.248818143314914" lon="-1.5683744475260082"><ele>32.0</ele><time>2026-04-09T16:50:27.999Z</time></trkpt><trkpt lat="47.24889575973828" lon="-1.568414261566073"><ele>32.0</ele><time>2026-04-09T16:50:29.994Z</time></trkpt><trkpt lat="47.24899793513794" lon="-1.5684355516001287"><ele>32.800000000000004</ele><time>2026-04-09T16:50:31.996Z</time></trkpt><trkpt lat="47.249078946232096" lon="-1.5684877708568874"><ele>33.6</ele><time>2026-04-09T16:50:33.998Z</time></trkpt><trkpt lat="47.24919968754728" lon="-1.568500930444867"><ele>34.400000000000006</ele><time>2026-04-09T16:50:35.993Z</time></trkpt><trkpt lat="47.24929767199536" lon="-1.568516520784766"><ele>35.2</ele><time>2026-04-09T16:50:37.992Z</time></trkpt><trkpt lat="47.249391591220395" lon="-1.568532111124665"><ele>36.0</ele><time>2026-04-09T16:50:39.993Z</time></trkpt><trkpt lat="47.24945919126947" lon="-1.5685661416515415"><ele>36.0</ele><time>2026-04-09T16:50:41.993Z</time></trkpt><trkpt lat="47.24954611160536" lon="-1.568586928771407"><ele>36.0</ele><time>2026-04-09T16:50:43.991Z</time></trkpt><trkpt lat="47.249629343903855" lon="-1.568609895186097"><ele>36.0</ele><time>2026-04-09T16:50:46.002Z</time></trkpt><trkpt lat="47.24971144464542" lon="-1.568630514667899"><ele>36.0</ele><time>2026-04-09T16:50:48.003Z</time></trkpt><trkpt lat="47.249788180968956" lon="-1.5686438418939417"><ele>36.0</ele><time>2026-04-09T16:50:49.995Z</time></trkpt><trkpt lat="47.24986512684007" lon="-1.5686491224929398"><ele>36.0</ele><time>2026-04-09T16:50:52.002Z</time></trkpt><trkpt lat="47.2499431623586" lon="-1.568649373950035"><ele>36.333333333333336</ele><time>2026-04-09T16:50:54.006Z</time></trkpt><trkpt lat="47.25001302552153" lon="-1.5686561632916038"><ele>36.666666666666664</ele><time>2026-04-09T16:50:56.005Z</time></trkpt><trkpt lat="47.25009822756727" lon="-1.5686595998719042"><ele>37.0</ele><time>2026-04-09T16:50:58.998Z</time></trkpt><trkpt lat="47.250193194530205" lon="-1.5686014294638937"><ele>37.33333333333333</ele><time>2026-04-09T16:51:00.994Z</time></trkpt><trkpt lat="47.25026980512519" lon="-1.5685357153430288"><ele>37.666666666666664</ele><time>2026-04-09T16:51:01.987Z</time></trkpt><trkpt lat="47.2503530793332" lon="-1.5684835799053016"><ele>38.0</ele><time>2026-04-09T16:51:03.985Z</time></trkpt><trkpt lat="47.2504275944524" lon="-1.5684725157931152"><ele>38.0</ele><time>2026-04-09T16:51:05.981Z</time></trkpt><trkpt lat="47.25048308265139" lon="-1.5684249065831009"><ele>38.0</ele><time>2026-04-09T16:51:07.985Z</time></trkpt><trkpt lat="47.2505560471185" lon="-1.5683791413917842"><ele>38.0</ele><time>2026-04-09T16:51:09.987Z</time></trkpt><trkpt lat="47.2506406205215" lon="-1.5683104936048093"><ele>38.0</ele><time>2026-04-09T16:51:12.001Z</time></trkpt><trkpt lat="47.25072100297292" lon="-1.5682423487320245"><ele>38.0</ele><time>2026-04-09T16:51:14Z</time></trkpt><trkpt lat="47.25079484753986" lon="-1.5681730303927959"><ele>38.0</ele><time>2026-04-09T16:51:16.003Z</time></trkpt><trkpt lat="47.25085834045638" lon="-1.568104047329694"><ele>37.8</ele><time>2026-04-09T16:51:18Z</time></trkpt><trkpt lat="47.250921456187264" lon="-1.5680383332088292"><ele>37.599999999999994</ele><time>2026-04-09T16:51:19.993Z</time></trkpt><trkpt lat="47.25100041371514" lon="-1.567957028748065"><ele>37.400000000000006</ele><time>2026-04-09T16:51:21.99Z</time></trkpt><trkpt lat="47.251081592447356" lon="-1.5678874589517413"><ele>37.2</ele><time>2026-04-09T16:51:22.989Z</time></trkpt><trkpt lat="47.2511707758971" lon="-1.567788887770444"><ele>37.0</ele><time>2026-04-09T16:51:23.991Z</time></trkpt><trkpt lat="47.25124487192114" lon="-1.567681347952753"><ele>37.5</ele><time>2026-04-09T16:51:25.982Z</time></trkpt><trkpt lat="47.25130090494384" lon="-1.5676190704121884"><ele>38.0</ele><time>2026-04-09T16:51:26.982Z</time></trkpt><trkpt lat="47.25137529433449" lon="-1.5675144642606074"><ele>38.5</ele><time>2026-04-09T16:51:28.987Z</time></trkpt><trkpt lat="47.25142374173482" lon="-1.5674056671574408"><ele>39.0</ele><time>2026-04-09T16:51:31.002Z</time></trkpt><trkpt lat="47.25147667345335" lon="-1.5673335827901655"><ele>39.5</ele><time>2026-04-09T16:51:32.011Z</time></trkpt><trkpt lat="47.25151112307538" lon="-1.5672355145230583"><ele>40.0</ele><time>2026-04-09T16:51:32.998Z</time></trkpt><trkpt lat="47.251565102531806" lon="-1.5670740790679745"><ele>38.75</ele><time>2026-04-09T16:51:34.994Z</time></trkpt><trkpt lat="47.251591128341154" lon="-1.5668911859407713"><ele>37.5</ele><time>2026-04-09T16:51:36.997Z</time></trkpt><trkpt lat="47.25161229264666" lon="-1.5667941235020446"><ele>36.25</ele><time>2026-04-09T16:51:37.994Z</time></trkpt><trkpt lat="47.251636348708765" lon="-1.566604943947463"><ele>35.0</ele><time>2026-04-09T16:51:39.991Z</time></trkpt><trkpt lat="47.251652525781886" lon="-1.5664083044990584"><ele>35.0</ele><time>2026-04-09T16:51:41.973Z</time></trkpt><trkpt lat="47.25166308697988" lon="-1.5663106553271098"><ele>35.0</ele><time>2026-04-09T16:51:42.976Z</time></trkpt><trkpt lat="47.25164582025935" lon="-1.566220466048984"><ele>35.0</ele><time>2026-04-09T16:51:43.978Z</time></trkpt><trkpt lat="47.25166283552279" lon="-1.5661058854326289"><ele>35.0</ele><time>2026-04-09T16:51:44.977Z</time></trkpt><trkpt lat="47.25168265872379" lon="-1.5659881196930687"><ele>35.0</ele><time>2026-04-09T16:51:45.978Z</time></trkpt><trkpt lat="47.25169757851143" lon="-1.5658882912262957"><ele>35.0</ele><time>2026-04-09T16:51:46.978Z</time></trkpt><trkpt lat="47.25171078000893" lon="-1.5657852776363173"><ele>35.0</ele><time>2026-04-09T16:51:47.978Z</time></trkpt><trkpt lat="47.25170193710108" lon="-1.5656706970199623"><ele>34.714285714285715</ele><time>2026-04-09T16:51:48.982Z</time></trkpt><trkpt lat="47.25170830734749" lon="-1.5655671805157936"><ele>34.42857142857143</ele><time>2026-04-09T16:51:49.975Z</time></trkpt><trkpt lat="47.25172938783397" lon="-1.565463664011625"><ele>34.14285714285714</ele><time>2026-04-09T16:51:50.979Z</time></trkpt><trkpt lat="47.25172896873881" lon="-1.5653694514199767"><ele>33.85714285714286</ele><time>2026-04-09T16:51:51.984Z</time></trkpt><trkpt lat="47.25172632843931" lon="-1.5652558766320024"><ele>33.57142857142857</ele><time>2026-04-09T16:51:52.982Z</time></trkpt><trkpt lat="47.251754407814936" lon="-1.565156383441356"><ele>33.285714285714285</ele><time>2026-04-09T16:51:53.983Z</time></trkpt><trkpt lat="47.251763627908424" lon="-1.5650423057391913"><ele>33.0</ele><time>2026-04-09T16:51:54.98Z</time></trkpt><trkpt lat="47.25177309945901" lon="-1.5649366099401982"><ele>32.666666666666664</ele><time>2026-04-09T16:51:55.99Z</time></trkpt><trkpt lat="47.25181174003263" lon="-1.564814988525179"><ele>32.333333333333336</ele><time>2026-04-09T16:51:56.982Z</time></trkpt><trkpt lat="47.25183743056585" lon="-1.5647166688009768"><ele>32.0</ele><time>2026-04-09T16:51:57.978Z</time></trkpt><trkpt lat="47.25184933286835" lon="-1.5645912755295304"><ele>31.666666666666668</ele><time>2026-04-09T16:51:59.992Z</time></trkpt><trkpt lat="47.25184644111176" lon="-1.564451465384629"><ele>31.333333333333336</ele><time>2026-04-09T16:52:00.979Z</time></trkpt><trkpt lat="47.25187586159189" lon="-1.5643364656731154"><ele>31.0</ele><time>2026-04-09T16:52:01.979Z</time></trkpt><trkpt lat="47.25188881163229" lon="-1.5642372239395643"><ele>30.4</ele><time>2026-04-09T16:52:02.981Z</time></trkpt><trkpt lat="47.25190079775383" lon="-1.5641367249205373"><ele>29.8</ele><time>2026-04-09T16:52:03.995Z</time></trkpt><trkpt lat="47.25188072309573" lon="-1.5639472100898286"><ele>29.199999999999996</ele><time>2026-04-09T16:52:05.988Z</time></trkpt><trkpt lat="47.25190519825299" lon="-1.5638423524811527"><ele>28.599999999999998</ele><time>2026-04-09T16:52:06.984Z</time></trkpt><trkpt lat="47.251960812180535" lon="-1.563699357213046"><ele>28.0</ele><time>2026-04-09T16:52:08.99Z</time></trkpt><trkpt lat="47.25203272890975" lon="-1.5635828487589616"><ele>28.0</ele><time>2026-04-09T16:52:10.984Z</time></trkpt><trkpt lat="47.252100748053984" lon="-1.5634231735035435"><ele>28.0</ele><time>2026-04-09T16:52:12.982Z</time></trkpt><trkpt lat="47.25215439223428" lon="-1.5632473211750044"><ele>28.0</ele><time>2026-04-09T16:52:14.988Z</time></trkpt><trkpt lat="47.25221411329438" lon="-1.5630889032050623"><ele>28.0</ele><time>2026-04-09T16:52:16.991Z</time></trkpt><trkpt lat="47.25227366671641" lon="-1.5629126317813646"><ele>27.4</ele><time>2026-04-09T16:52:18.99Z</time></trkpt><trkpt lat="47.25230920598586" lon="-1.5628131385907185"><ele>26.799999999999997</ele><time>2026-04-09T16:52:19.993Z</time></trkpt><trkpt lat="47.2523693042316" lon="-1.56262119300809"><ele>26.2</ele><time>2026-04-09T16:52:21.979Z</time></trkpt><trkpt lat="47.25240069445898" lon="-1.5625372901573427"><ele>25.6</ele><time>2026-04-09T16:52:22.985Z</time></trkpt><trkpt lat="47.25245031532575" lon="-1.5623647067710407"><ele>25.0</ele><time>2026-04-09T16:52:24.983Z</time></trkpt><trkpt lat="47.252481957010225" lon="-1.562282061205769"><ele>25.0</ele><time>2026-04-09T16:52:25.985Z</time></trkpt><trkpt lat="47.2525471682169" lon="-1.5621478669359927"><ele>25.0</ele><time>2026-04-09T16:52:27.993Z</time></trkpt><trkpt lat="47.25254695866932" lon="-1.5620544087156298"><ele>25.0</ele><time>2026-04-09T16:52:28.98Z</time></trkpt><trkpt lat="47.25261921067466" lon="-1.5618969127550366"><ele>25.0</ele><time>2026-04-09T16:52:30.981Z</time></trkpt><trkpt lat="47.25266992118885" lon="-1.5618040412678957"><ele>25.0</ele><time>2026-04-09T16:52:31.982Z</time></trkpt><trkpt lat="47.25270240106364" lon="-1.5617210604264975"><ele>25.2</ele><time>2026-04-09T16:52:32.985Z</time></trkpt><trkpt lat="47.25273618013342" lon="-1.5616203937694073"><ele>25.4</ele><time>2026-04-09T16:52:33.978Z</time></trkpt><trkpt lat="47.25280583374877" lon="-1.5614424459650753"><ele>25.6</ele><time>2026-04-09T16:52:35.989Z</time></trkpt><trkpt lat="47.25283114709635" lon="-1.561302552001142"><ele>25.8</ele><time>2026-04-09T16:52:38.001Z</time></trkpt><trkpt lat="47.25287414625962" lon="-1.5612140391036506"><ele>26.0</ele><time>2026-04-09T16:52:38.994Z</time></trkpt><trkpt lat="47.25292447958817" lon="-1.5611018054201835"><ele>26.0</ele><time>2026-04-09T16:52:39.99Z</time></trkpt><trkpt lat="47.25293918982823" lon="-1.5609718859210246"><ele>26.0</ele><time>2026-04-09T16:52:41.987Z</time></trkpt><trkpt lat="47.252995306669966" lon="-1.5608438104405633"><ele>26.0</ele><time>2026-04-09T16:52:43.985Z</time></trkpt><trkpt lat="47.25303231277247" lon="-1.5607587341233722"><ele>26.0</ele><time>2026-04-09T16:52:44.988Z</time></trkpt><trkpt lat="47.25305586592038" lon="-1.5606284793480862"><ele>26.0</ele><time>2026-04-09T16:52:46.993Z</time></trkpt><trkpt lat="47.25310188256879" lon="-1.5604734141394128"><ele>25.8</ele><time>2026-04-09T16:52:48.983Z</time></trkpt><trkpt lat="47.25311588034709" lon="-1.5603636112078654"><ele>25.6</ele><time>2026-04-09T16:52:50.011Z</time></trkpt><trkpt lat="47.25315146152605" lon="-1.560154566542767"><ele>25.4</ele><time>2026-04-09T16:52:51.989Z</time></trkpt><trkpt lat="47.253121999136404" lon="-1.560046775267981"><ele>25.2</ele><time>2026-04-09T16:52:54Z</time></trkpt><trkpt lat="47.25312195722689" lon="-1.5598772093668205"><ele>25.0</ele><time>2026-04-09T16:52:55.997Z</time></trkpt><trkpt lat="47.2531013796546" lon="-1.5597143489881975"><ele>25.000000000000004</ele><time>2026-04-09T16:52:57.993Z</time></trkpt><trkpt lat="47.253076359673635" lon="-1.5596276801094036"><ele>25.0</ele><time>2026-04-09T16:52:59Z</time></trkpt><trkpt lat="47.2530823527344" lon="-1.559459706769846"><ele>25.0</ele><time>2026-04-09T16:53:00.99Z</time></trkpt><trkpt lat="47.25306990560819" lon="-1.55936121940758"><ele>25.0</ele><time>2026-04-09T16:53:01.993Z</time></trkpt><trkpt lat="47.25305226170202" lon="-1.559206070379875"><ele>25.000000000000004</ele><time>2026-04-09T16:53:03.991Z</time></trkpt><trkpt lat="47.253053099892334" lon="-1.559110265226624"><ele>25.0</ele><time>2026-04-09T16:53:04.992Z</time></trkpt><trkpt lat="47.253030133477644" lon="-1.5589295513942454"><ele>25.0</ele><time>2026-04-09T16:53:06.997Z</time></trkpt><trkpt lat="47.253044885627226" lon="-1.5588329080506775"><ele>25.0</ele><time>2026-04-09T16:53:08.017Z</time></trkpt><trkpt lat="47.25301156756212" lon="-1.5586610790356608"><ele>25.0</ele><time>2026-04-09T16:53:10.004Z</time></trkpt><trkpt lat="47.252968819855944" lon="-1.5585167426630469"><ele>25.0</ele><time>2026-04-09T16:53:12.002Z</time></trkpt><trkpt lat="47.25298026115377" lon="-1.558355223388931"><ele>25.0</ele><time>2026-04-09T16:53:14.002Z</time></trkpt><trkpt lat="47.25296773020853" lon="-1.5581826400026288"><ele>25.000000000000004</ele><time>2026-04-09T16:53:15.995Z</time></trkpt><trkpt lat="47.25295855202456" lon="-1.558035034687778"><ele>25.0</ele><time>2026-04-09T16:53:17.988Z</time></trkpt><trkpt lat="47.252958887300686" lon="-1.5579313505455459"><ele>25.0</ele><time>2026-04-09T16:53:20.985Z</time></trkpt><trkpt lat="47.25294224922289" lon="-1.5577914565816129"><ele>25.0</ele><time>2026-04-09T16:53:23.989Z</time></trkpt><trkpt lat="47.2529235156693" lon="-1.557691795752903"><ele>25.000000000000004</ele><time>2026-04-09T16:53:25.989Z</time></trkpt><trkpt lat="47.25291140381922" lon="-1.557574281470438"><ele>25.0</ele><time>2026-04-09T16:53:27.999Z</time></trkpt><trkpt lat="47.25289057478984" lon="-1.5574260056033333"><ele>25.2</ele><time>2026-04-09T16:53:30.006Z</time></trkpt><trkpt lat="47.25286982957949" lon="-1.5572574455305535"><ele>25.4</ele><time>2026-04-09T16:53:32Z</time></trkpt><trkpt lat="47.2528587654673" lon="-1.5571525879218775"><ele>25.6</ele><time>2026-04-09T16:53:33.007Z</time></trkpt><trkpt lat="47.25283584096213" lon="-1.5569878835245565"><ele>25.8</ele><time>2026-04-09T16:53:35.004Z</time></trkpt><trkpt lat="47.25280528892507" lon="-1.5568290464594559"><ele>26.0</ele><time>2026-04-09T16:53:36.996Z</time></trkpt><trkpt lat="47.25279129114677" lon="-1.5567325707539512"><ele>25.999999999999996</ele><time>2026-04-09T16:53:37.997Z</time></trkpt><trkpt lat="47.25275457841088" lon="-1.5566547028734876"><ele>26.0</ele><time>2026-04-09T16:53:39.004Z</time></trkpt><trkpt lat="47.25274028726597" lon="-1.5565559640541267"><ele>26.0</ele><time>2026-04-09T16:53:40.01Z</time></trkpt><trkpt lat="47.25272838496347" lon="-1.5564599912628125"><ele>26.0</ele><time>2026-04-09T16:53:41.005Z</time></trkpt><trkpt lat="47.25270240106364" lon="-1.5562869887813517"><ele>25.999999999999996</ele><time>2026-04-09T16:53:43.01Z</time></trkpt><trkpt lat="47.25269049876113" lon="-1.5560967195793576"><ele>26.0</ele><time>2026-04-09T16:53:45Z</time></trkpt><trkpt lat="47.2526880260997" lon="-1.5559882577523179"><ele>25.666666666666664</ele><time>2026-04-09T16:53:46Z</time></trkpt><trkpt lat="47.25265521094878" lon="-1.555816428737301"><ele>25.333333333333332</ele><time>2026-04-09T16:53:47.996Z</time></trkpt><trkpt lat="47.25265198391606" lon="-1.5557236410691921"><ele>25.0</ele><time>2026-04-09T16:53:48.996Z</time></trkpt><trkpt lat="47.25265248683025" lon="-1.5556233935072603"><ele>24.666666666666664</ele><time>2026-04-09T16:53:49.995Z</time></trkpt><trkpt lat="47.25263991397549" lon="-1.5555285941823902"><ele>24.333333333333332</ele><time>2026-04-09T16:53:50.997Z</time></trkpt><trkpt lat="47.2526206355982" lon="-1.5554331243052664"><ele>24.0</ele><time>2026-04-09T16:53:51.996Z</time></trkpt><trkpt lat="47.25261736665596" lon="-1.5553223993643701"><ele>23.71428571428571</ele><time>2026-04-09T16:53:52.994Z</time></trkpt><trkpt lat="47.252621892883674" lon="-1.5552105847760618"><ele>23.428571428571427</ele><time>2026-04-09T16:53:53.998Z</time></trkpt><trkpt lat="47.25258903582324" lon="-1.5551147796228109"><ele>23.142857142857142</ele><time>2026-04-09T16:53:55.011Z</time></trkpt><trkpt lat="47.25256548267533" lon="-1.5550182200982747"><ele>22.857142857142854</ele><time>2026-04-09T16:53:55.995Z</time></trkpt><trkpt lat="47.252544486007885" lon="-1.554913865403789"><ele>22.57142857142857</ele><time>2026-04-09T16:53:57.001Z</time></trkpt><trkpt lat="47.25255274218251" lon="-1.5547947585597213"><ele>22.285714285714285</ele><time>2026-04-09T16:53:58.005Z</time></trkpt><trkpt lat="47.25252902139653" lon="-1.554689984770077"><ele>22.0</ele><time>2026-04-09T16:53:58.993Z</time></trkpt><trkpt lat="47.252515652260975" lon="-1.5545806009336882"><ele>21.714285714285715</ele><time>2026-04-09T16:53:59.984Z</time></trkpt><trkpt lat="47.25251263477583" lon="-1.5544718876495534"><ele>21.428571428571427</ele><time>2026-04-09T16:54:00.992Z</time></trkpt><trkpt lat="47.252498259811894" lon="-1.5543599054231814"><ele>21.142857142857142</ele><time>2026-04-09T16:54:01.99Z</time></trkpt><trkpt lat="47.2524816217341" lon="-1.5542524494245222"><ele>20.857142857142858</ele><time>2026-04-09T16:54:02.987Z</time></trkpt><trkpt lat="47.25246888124128" lon="-1.5541402995600868"><ele>20.571428571428573</ele><time>2026-04-09T16:54:03.985Z</time></trkpt><trkpt lat="47.252461547076" lon="-1.5540302451714445"><ele>20.285714285714285</ele><time>2026-04-09T16:54:04.989Z</time></trkpt><trkpt lat="47.25244365171273" lon="-1.5539302490666078"><ele>20.0</ele><time>2026-04-09T16:54:05.992Z</time></trkpt><trkpt lat="47.25241481796582" lon="-1.5537565760328935"><ele>20.0</ele><time>2026-04-09T16:54:07.986Z</time></trkpt><trkpt lat="47.25236343689938" lon="-1.5536233037724658"><ele>20.0</ele><time>2026-04-09T16:54:09.981Z</time></trkpt><trkpt lat="47.252301368906394" lon="-1.553515763954775"><ele>20.0</ele><time>2026-04-09T16:54:11.982Z</time></trkpt><trkpt lat="47.25224638362159" lon="-1.5534165222212237"><ele>20.0</ele><time>2026-04-09T16:54:13.98Z</time></trkpt><trkpt lat="47.252239552370504" lon="-1.5532906260355872"><ele>20.0</ele><time>2026-04-09T16:54:16.995Z</time></trkpt><trkpt lat="47.25226813466032" lon="-1.553150145338432"><ele>19.8</ele><time>2026-04-09T16:54:19.992Z</time></trkpt><trkpt lat="47.25231008608569" lon="-1.5530253388002078"><ele>19.6</ele><time>2026-04-09T16:54:21.983Z</time></trkpt><trkpt lat="47.25230568558653" lon="-1.5528857801124014"><ele>19.4</ele><time>2026-04-09T16:54:23.99Z</time></trkpt><trkpt lat="47.25228808358987" lon="-1.5527171362205898"><ele>19.2</ele><time>2026-04-09T16:54:25.989Z</time></trkpt><trkpt lat="47.252282048619584" lon="-1.552552767099396"><ele>19.0</ele><time>2026-04-09T16:54:28.005Z</time></trkpt><trkpt lat="47.25227148742159" lon="-1.5524544473751936"><ele>19.0</ele><time>2026-04-09T16:54:28.998Z</time></trkpt><trkpt lat="47.252241354479686" lon="-1.55235948041226"><ele>19.0</ele><time>2026-04-09T16:54:29.999Z</time></trkpt><trkpt lat="47.25222492594947" lon="-1.552262501792565"><ele>19.0</ele><time>2026-04-09T16:54:30.996Z</time></trkpt><trkpt lat="47.25219030868937" lon="-1.5521832089885623"><ele>19.0</ele><time>2026-04-09T16:54:32.007Z</time></trkpt><trkpt lat="47.252148273444966" lon="-1.5521124657257945"><ele>19.0</ele><time>2026-04-09T16:54:33Z</time></trkpt><trkpt lat="47.2521068668433" lon="-1.552009452135816"><ele>19.0</ele><time>2026-04-09T16:54:33.995Z</time></trkpt><trkpt lat="47.252076147168175" lon="-1.5519144851728826"><ele>19.0</ele><time>2026-04-09T16:54:34.993Z</time></trkpt><trkpt lat="47.25209035449405" lon="-1.5518104657545237"><ele>18.833333333333332</ele><time>2026-04-09T16:54:35.989Z</time></trkpt><trkpt lat="47.25207589571108" lon="-1.5517049375935938"><ele>18.666666666666664</ele><time>2026-04-09T16:54:36.992Z</time></trkpt><trkpt lat="47.252059257633285" lon="-1.5516043547555354"><ele>18.5</ele><time>2026-04-09T16:54:37.984Z</time></trkpt><trkpt lat="47.25204303865065" lon="-1.5515012573465252"><ele>18.333333333333332</ele><time>2026-04-09T16:54:38.985Z</time></trkpt><trkpt lat="47.25199576471676" lon="-1.5514004230513716"><ele>18.166666666666668</ele><time>2026-04-09T16:54:39.995Z</time></trkpt><trkpt lat="47.25198654462327" lon="-1.5512898657485388"><ele>18.0</ele><time>2026-04-09T16:54:40.982Z</time></trkpt><trkpt lat="47.25198918492277" lon="-1.5511752851321838"><ele>17.833333333333332</ele><time>2026-04-09T16:54:41.999Z</time></trkpt><trkpt lat="47.25197464232077" lon="-1.5510768815889497"><ele>17.666666666666668</ele><time>2026-04-09T16:54:43.003Z</time></trkpt><trkpt lat="47.25195368756284" lon="-1.550966072829022"><ele>17.5</ele><time>2026-04-09T16:54:44.011Z</time></trkpt><trkpt lat="47.251938558227614" lon="-1.550864148886456"><ele>17.333333333333336</ele><time>2026-04-09T16:54:45Z</time></trkpt><trkpt lat="47.25191890266468" lon="-1.550763985143556"><ele>17.166666666666668</ele><time>2026-04-09T16:54:46.002Z</time></trkpt><trkpt lat="47.251932187981204" lon="-1.5506646595909732"><ele>17.0</ele><time>2026-04-09T16:54:47.007Z</time></trkpt><trkpt lat="47.25194874223997" lon="-1.5504715405419007"><ele>17.0</ele><time>2026-04-09T16:54:48.989Z</time></trkpt><trkpt lat="47.25196973890741" lon="-1.5503672696664466"><ele>17.0</ele><time>2026-04-09T16:54:49.982Z</time></trkpt><trkpt lat="47.251968816898064" lon="-1.5502713806941641"><ele>17.0</ele><time>2026-04-09T16:54:50.987Z</time></trkpt><trkpt lat="47.25197543860157" lon="-1.550096450374974"><ele>17.0</ele><time>2026-04-09T16:54:52.98Z</time></trkpt><trkpt lat="47.251994507431284" lon="-1.5499158203616272"><ele>17.0</ele><time>2026-04-09T16:54:54.981Z</time></trkpt><trkpt lat="47.252012109427945" lon="-1.5497445780798325"><ele>17.0</ele><time>2026-04-09T16:54:56.98Z</time></trkpt><trkpt lat="47.25203054961492" lon="-1.5496476832791692"><ele>17.0</ele><time>2026-04-09T16:54:57.981Z</time></trkpt><trkpt lat="47.25208046384831" lon="-1.5495260618641502"><ele>17.0</ele><time>2026-04-09T16:54:58.975Z</time></trkpt><trkpt lat="47.25208683409472" lon="-1.5494116488858585"><ele>17.0</ele><time>2026-04-09T16:54:59.987Z</time></trkpt><trkpt lat="47.252130378081695" lon="-1.5492372214808587"><ele>17.0</ele><time>2026-04-09T16:55:01.984Z</time></trkpt><trkpt lat="47.252178951210574" lon="-1.5490949805840375"><ele>17.0</ele><time>2026-04-09T16:55:03.988Z</time></trkpt><trkpt lat="47.25222769197752" lon="-1.5490148495897176"><ele>17.0</ele><time>2026-04-09T16:55:04.981Z</time></trkpt><trkpt lat="47.252275259278015" lon="-1.5489305276438117"><ele>17.0</ele><time>2026-04-09T16:55:05.979Z</time></trkpt><trkpt lat="47.25231884517451" lon="-1.5488488879069209"><ele>17.0</ele><time>2026-04-09T16:55:06.978Z</time></trkpt><trkpt lat="47.25234378133644" lon="-1.548737827689898"><ele>17.0</ele><time>2026-04-09T16:55:07.985Z</time></trkpt><trkpt lat="47.252391306727425" lon="-1.5485659148558495"><ele>17.0</ele><time>2026-04-09T16:55:09.98Z</time></trkpt><trkpt lat="47.25244113714178" lon="-1.548464074732315"><ele>16.71428571428571</ele><time>2026-04-09T16:55:10.981Z</time></trkpt><trkpt lat="47.252468210689024" lon="-1.548370113597762"><ele>16.428571428571427</ele><time>2026-04-09T16:55:11.981Z</time></trkpt><trkpt lat="47.25250500724395" lon="-1.548283277080905"><ele>16.142857142857142</ele><time>2026-04-09T16:55:12.984Z</time></trkpt><trkpt lat="47.252532457976834" lon="-1.5481865499183052"><ele>15.857142857142856</ele><time>2026-04-09T16:55:13.986Z</time></trkpt><trkpt lat="47.25255999252875" lon="-1.548060569913637"><ele>15.57142857142857</ele><time>2026-04-09T16:55:14.974Z</time></trkpt><trkpt lat="47.252576965882675" lon="-1.5479454863830915"><ele>15.285714285714286</ele><time>2026-04-09T16:55:15.975Z</time></trkpt><trkpt lat="47.2525780974396" lon="-1.5478430595263353"><ele>15.0</ele><time>2026-04-09T16:55:16.98Z</time></trkpt><trkpt lat="47.25257734306832" lon="-1.5477412194028008"><ele>15.0</ele><time>2026-04-09T16:55:17.981Z</time></trkpt><trkpt lat="47.25257528950204" lon="-1.5476396307363618"><ele>15.0</ele><time>2026-04-09T16:55:18.983Z</time></trkpt><trkpt lat="47.25257344548334" lon="-1.5475421492024768"><ele>15.0</ele><time>2026-04-09T16:55:20Z</time></trkpt><trkpt lat="47.25253907968034" lon="-1.5474473498776065"><ele>15.0</ele><time>2026-04-09T16:55:21.005Z</time></trkpt><trkpt lat="47.25253442772408" lon="-1.5473544783904658"><ele>15.0</ele><time>2026-04-09T16:55:21.99Z</time></trkpt><trkpt lat="47.2525265487351" lon="-1.5472545661046608"><ele>15.0</ele><time>2026-04-09T16:55:22.996Z</time></trkpt><trkpt lat="47.25251569417049" lon="-1.5470776241287096"><ele>15.142857142857142</ele><time>2026-04-09T16:55:24.986Z</time></trkpt><trkpt lat="47.25248618987133" lon="-1.5469793044045073"><ele>15.285714285714285</ele><time>2026-04-09T16:55:25.98Z</time></trkpt><trkpt lat="47.252477807968155" lon="-1.546884840355764"><ele>15.428571428571427</ele><time>2026-04-09T16:55:26.987Z</time></trkpt><trkpt lat="47.25246469028969" lon="-1.5467921365066866"><ele>15.571428571428571</ele><time>2026-04-09T16:55:27.982Z</time></trkpt><trkpt lat="47.25247068335046" lon="-1.5466966666295627"><ele>15.714285714285712</ele><time>2026-04-09T16:55:28.98Z</time></trkpt><trkpt lat="47.25246033170004" lon="-1.546597927810202"><ele>15.857142857142856</ele><time>2026-04-09T16:55:29.985Z</time></trkpt><trkpt lat="47.25244813603093" lon="-1.5465013682856656"><ele>16.0</ele><time>2026-04-09T16:55:30.989Z</time></trkpt><trkpt lat="47.25244008940388" lon="-1.546392319725404"><ele>16.0</ele><time>2026-04-09T16:55:31.998Z</time></trkpt><trkpt lat="47.25239298310806" lon="-1.546223759652624"><ele>16.0</ele><time>2026-04-09T16:55:33.993Z</time></trkpt><trkpt lat="47.25236234725197" lon="-1.5460527688279244"><ele>16.0</ele><time>2026-04-09T16:55:35.992Z</time></trkpt><trkpt lat="47.25234239832242" lon="-1.5458820294603202"><ele>16.0</ele><time>2026-04-09T16:55:37.99Z</time></trkpt><trkpt lat="47.252329490191535" lon="-1.5457115415498108"><ele>16.400000000000002</ele><time>2026-04-09T16:55:39.994Z</time></trkpt><trkpt lat="47.25230757151474" lon="-1.54554147273446"><ele>16.8</ele><time>2026-04-09T16:55:41.989Z</time></trkpt><trkpt lat="47.25227823485364" lon="-1.5453936159625141"><ele>17.200000000000003</ele><time>2026-04-09T16:55:43.987Z</time></trkpt><trkpt lat="47.252254514067666" lon="-1.5452221222236242"><ele>17.6</ele><time>2026-04-09T16:55:45.997Z</time></trkpt><trkpt lat="47.25223049991508" lon="-1.5450699068620288"><ele>18.0</ele><time>2026-04-09T16:55:47.994Z</time></trkpt><trkpt lat="47.2522001574256" lon="-1.5449200384333217"><ele>19.2</ele><time>2026-04-09T16:55:49.989Z</time></trkpt><trkpt lat="47.25217061121692" lon="-1.5447763726129613"><ele>20.4</ele><time>2026-04-09T16:55:51.997Z</time></trkpt><trkpt lat="47.25214902781625" lon="-1.544642681257375"><ele>21.599999999999998</ele><time>2026-04-09T16:55:54.005Z</time></trkpt><trkpt lat="47.25211495537986" lon="-1.5444814134403546"><ele>22.8</ele><time>2026-04-09T16:55:55.991Z</time></trkpt><trkpt lat="47.252081218219594" lon="-1.5443299524500447"><ele>24.0</ele><time>2026-04-09T16:55:57.994Z</time></trkpt><trkpt lat="47.25207183560519" lon="-1.544160138079138"><ele>23.833333333333332</ele><time>2026-04-09T16:55:59.995Z</time></trkpt><trkpt lat="47.252047020054654" lon="-1.5440731309368685"><ele>23.666666666666668</ele><time>2026-04-09T16:56:01.004Z</time></trkpt><trkpt lat="47.252038302875356" lon="-1.5438785869642568"><ele>23.5</ele><time>2026-04-09T16:56:03.01Z</time></trkpt><trkpt lat="47.25202116188337" lon="-1.5437680296614242"><ele>23.333333333333336</ele><time>2026-04-09T16:56:03.997Z</time></trkpt><trkpt lat="47.25200423043896" lon="-1.5436707157656024"><ele>23.166666666666668</ele><time>2026-04-09T16:56:05Z</time></trkpt><trkpt lat="47.2519927053221" lon="-1.5435499325409006"><ele>23.0</ele><time>2026-04-09T16:56:05.995Z</time></trkpt><trkpt lat="47.2520085471191" lon="-1.543419007213361"><ele>23.0</ele><time>2026-04-09T16:56:06.99Z</time></trkpt><trkpt lat="47.25201730620791" lon="-1.5432876627906629"><ele>23.0</ele><time>2026-04-09T16:56:07.984Z</time></trkpt><trkpt lat="47.252012193246976" lon="-1.5431820508107013"><ele>23.0</ele><time>2026-04-09T16:56:08.987Z</time></trkpt><trkpt lat="47.25200234451075" lon="-1.5430781152113742"><ele>23.0</ele><time>2026-04-09T16:56:09.986Z</time></trkpt><trkpt lat="47.25197493568738" lon="-1.542958253996021"><ele>23.0</ele><time>2026-04-09T16:56:10.991Z</time></trkpt><trkpt lat="47.25196118936618" lon="-1.5428311843439404"><ele>23.0</ele><time>2026-04-09T16:56:11.987Z</time></trkpt><trkpt lat="47.251928625672356" lon="-1.542714592070824"><ele>22.166666666666668</ele><time>2026-04-09T16:56:12.991Z</time></trkpt><trkpt lat="47.25191198759456" lon="-1.5425931382938685"><ele>21.333333333333336</ele><time>2026-04-09T16:56:13.998Z</time></trkpt><trkpt lat="47.25190402478655" lon="-1.5424776356681644"><ele>20.5</ele><time>2026-04-09T16:56:15.01Z</time></trkpt><trkpt lat="47.25190913774748" lon="-1.5423635579659998"><ele>19.666666666666668</ele><time>2026-04-09T16:56:15.991Z</time></trkpt><trkpt lat="47.25192443472077" lon="-1.5422550961389598"><ele>18.833333333333332</ele><time>2026-04-09T16:56:16.996Z</time></trkpt><trkpt lat="47.2519480297782" lon="-1.542128110305911"><ele>18.0</ele><time>2026-04-09T16:56:17.995Z</time></trkpt><trkpt lat="47.251965757503406" lon="-1.5420079976334626"><ele>16.8</ele><time>2026-04-09T16:56:18.998Z</time></trkpt><trkpt lat="47.25188788962294" lon="-1.541933650152331"><ele>15.600000000000001</ele><time>2026-04-09T16:56:19.988Z</time></trkpt><trkpt lat="47.25181727208872" lon="-1.5418658405556733"><ele>14.399999999999999</ele><time>2026-04-09T16:56:20.994Z</time></trkpt><trkpt lat="47.25169820715417" lon="-1.541785793380385"><ele>13.2</ele><time>2026-04-09T16:56:22.998Z</time></trkpt><trkpt lat="47.25162553605367" lon="-1.5417520143106036"><ele>12.0</ele><time>2026-04-09T16:56:23.986Z</time></trkpt><trkpt lat="47.25155638535251" lon="-1.5416884794845633"><ele>12.0</ele><time>2026-04-09T16:56:24.986Z</time></trkpt><trkpt lat="47.251506638757185" lon="-1.5416199155166201"><ele>12.0</ele><time>2026-04-09T16:56:25.992Z</time></trkpt><trkpt lat="47.25136385303666" lon="-1.5415790956481747"><ele>12.0</ele><time>2026-04-09T16:56:27.986Z</time></trkpt><trkpt lat="47.25143291991879" lon="-1.5414000581964304"><ele>12.0</ele><time>2026-04-09T16:56:28.991Z</time></trkpt><trkpt lat="47.251544063954846" lon="-1.5412745811059523"><ele>10.4</ele><time>2026-04-09T16:56:29.987Z</time></trkpt><trkpt lat="47.25158086050977" lon="-1.5411651972695637"><ele>8.799999999999999</ele><time>2026-04-09T16:56:31.008Z</time></trkpt><trkpt lat="47.25163903091778" lon="-1.5410694759353445"><ele>7.2</ele><time>2026-04-09T16:56:31.985Z</time></trkpt><trkpt lat="47.25169439338823" lon="-1.540975347162728"><ele>5.6</ele><time>2026-04-09T16:56:32.995Z</time></trkpt><trkpt lat="47.251750468320445" lon="-1.54092413373435"><ele>4.0</ele><time>2026-04-09T16:56:33.975Z</time></trkpt><trkpt lat="47.251862576275364" lon="-1.5408278256669088"><ele>3.9999999999999996</ele><time>2026-04-09T16:56:35.989Z</time></trkpt><trkpt lat="47.251944928474025" lon="-1.5408325195326849"><ele>4.0</ele><time>2026-04-09T16:56:36.989Z</time></trkpt><trkpt lat="47.2520178091221" lon="-1.540818940849547"><ele>4.0</ele><time>2026-04-09T16:56:37.987Z</time></trkpt><trkpt lat="47.252104478000895" lon="-1.54079563915873"><ele>4.0</ele><time>2026-04-09T16:56:39.006Z</time></trkpt><trkpt lat="47.252168725288705" lon="-1.540780048818831"><ele>3.9999999999999996</ele><time>2026-04-09T16:56:39.994Z</time></trkpt><trkpt lat="47.25223536141892" lon="-1.5407634526505514"><ele>4.0</ele><time>2026-04-09T16:56:40.982Z</time></trkpt><trkpt lat="47.252308242066995" lon="-1.5407587587847753"><ele>4.5</ele><time>2026-04-09T16:56:41.985Z</time></trkpt><trkpt lat="47.252371483526424" lon="-1.5407457668348594"><ele>5.0</ele><time>2026-04-09T16:56:42.993Z</time></trkpt><trkpt lat="47.25243577272375" lon="-1.540735289455895"><ele>5.5</ele><time>2026-04-09T16:56:43.99Z</time></trkpt><trkpt lat="47.25250450432976" lon="-1.5407168492689176"><ele>6.0</ele><time>2026-04-09T16:56:44.985Z</time></trkpt><trkpt lat="47.25262696393509" lon="-1.5406644623740955"><ele>6.500000000000001</ele><time>2026-04-09T16:56:46.989Z</time></trkpt><trkpt lat="47.252700724683" lon="-1.5406353771700902"><ele>7.0</ele><time>2026-04-09T16:56:47.999Z</time></trkpt><trkpt lat="47.252810066609875" lon="-1.5406041126712602"><ele>7.0</ele><time>2026-04-09T16:56:49.998Z</time></trkpt><trkpt lat="47.25291986954142" lon="-1.5405848342939656"><ele>6.999999999999999</ele><time>2026-04-09T16:56:51.998Z</time></trkpt><trkpt lat="47.25301877599885" lon="-1.5405712556108278"><ele>6.999999999999999</ele><time>2026-04-09T16:56:54.001Z</time></trkpt><trkpt lat="47.25308017343958" lon="-1.5405412483974736"><ele>7.0</ele><time>2026-04-09T16:56:55Z</time></trkpt><trkpt lat="47.253198693550424" lon="-1.540511995555405"><ele>7.0</ele><time>2026-04-09T16:56:57.004Z</time></trkpt><trkpt lat="47.253268682441906" lon="-1.5404963213964742"><ele>7.6</ele><time>2026-04-09T16:56:58.005Z</time></trkpt><trkpt lat="47.25337001965125" lon="-1.5404836647226852"><ele>8.2</ele><time>2026-04-09T16:57:00.007Z</time></trkpt><trkpt lat="47.25348820448597" lon="-1.5404667332782787"><ele>8.8</ele><time>2026-04-09T16:57:02.004Z</time></trkpt><trkpt lat="47.253586482300655" lon="-1.540453657509331"><ele>9.4</ele><time>2026-04-09T16:57:04.009Z</time></trkpt><trkpt lat="47.253659237220184" lon="-1.540454244242553"><ele>10.0</ele><time>2026-04-09T16:57:06.008Z</time></trkpt><trkpt lat="47.25376593884756" lon="-1.5404404979213517"><ele>10.0</ele><time>2026-04-09T16:57:08.009Z</time></trkpt><trkpt lat="47.253852481997804" lon="-1.5404337923988145"><ele>10.0</ele><time>2026-04-09T16:57:09.006Z</time></trkpt><trkpt lat="47.253944138108984" lon="-1.5404488798245233"><ele>10.0</ele><time>2026-04-09T16:57:10.002Z</time></trkpt><trkpt lat="47.25401630629529" lon="-1.540409233422522"><ele>10.0</ele><time>2026-04-09T16:57:11.002Z</time></trkpt><trkpt lat="47.254140903285936" lon="-1.540329605342392"><ele>10.0</ele><time>2026-04-09T16:57:12.992Z</time></trkpt><trkpt lat="47.25425305315037" lon="-1.5402878634645978"><ele>9.0</ele><time>2026-04-09T16:57:14.998Z</time></trkpt><trkpt lat="47.25435447417875" lon="-1.5402594488128463"><ele>8.0</ele><time>2026-04-09T16:57:16.991Z</time></trkpt><trkpt lat="47.25442760628392" lon="-1.5402701776489058"><ele>7.0</ele><time>2026-04-09T16:57:17.998Z</time></trkpt><trkpt lat="47.254538624591426" lon="-1.5402484685196915"><ele>6.0</ele><time>2026-04-09T16:57:20Z</time></trkpt><trkpt lat="47.25464608059009" lon="-1.5402701776489058"><ele>5.0</ele><time>2026-04-09T16:57:22.001Z</time></trkpt><trkpt lat="47.25475697316905" lon="-1.5402561798706094"><ele>6.0</ele><time>2026-04-09T16:57:24.001Z</time></trkpt><trkpt lat="47.25482717160811" lon="-1.5402310341610947"><ele>7.0</ele><time>2026-04-09T16:57:25.001Z</time></trkpt><trkpt lat="47.25492674861779" lon="-1.5402257535620967"><ele>8.0</ele><time>2026-04-09T16:57:26.995Z</time></trkpt><trkpt lat="47.2550316900455" lon="-1.540192645044569"><ele>9.0</ele><time>2026-04-09T16:57:28.992Z</time></trkpt><trkpt lat="47.255153143822454" lon="-1.5401370730265418"><ele>10.0</ele><time>2026-04-09T16:57:31.004Z</time></trkpt><trkpt lat="47.255244799933635" lon="-1.540110753850583"><ele>10.0</ele><time>2026-04-09T16:57:32.996Z</time></trkpt><trkpt lat="47.25535217211326" lon="-1.5400733705624379"><ele>10.0</ele><time>2026-04-09T16:57:34.991Z</time></trkpt><trkpt lat="47.25541239608755" lon="-1.5400273539140261"><ele>10.0</ele><time>2026-04-09T16:57:36.007Z</time></trkpt><trkpt lat="47.25547836166551" lon="-1.540004136042241"><ele>10.0</ele><time>2026-04-09T16:57:37.008Z</time></trkpt><trkpt lat="47.25557081405749" lon="-1.5399935748442448"><ele>10.0</ele><time>2026-04-09T16:57:39.005Z</time></trkpt><trkpt lat="47.255636737725936" lon="-1.5399721171721257"><ele>10.0</ele><time>2026-04-09T16:57:40.008Z</time></trkpt><trkpt lat="47.25574989341875" lon="-1.539926100523714"><ele>10.333333333333334</ele><time>2026-04-09T16:57:42.008Z</time></trkpt><trkpt lat="47.25584326782008" lon="-1.5399136114879883"><ele>10.666666666666668</ele><time>2026-04-09T16:57:44.006Z</time></trkpt><trkpt lat="47.25591250234028" lon="-1.5398991107955016"><ele>11.0</ele><time>2026-04-09T16:57:44.997Z</time></trkpt><trkpt lat="47.255976204804384" lon="-1.5398389287307297"><ele>11.333333333333334</ele><time>2026-04-09T16:57:46.007Z</time></trkpt><trkpt lat="47.25605323449453" lon="-1.539771705867294"><ele>11.666666666666666</ele><time>2026-04-09T16:57:46.995Z</time></trkpt><trkpt lat="47.256154152608715" lon="-1.5397556964322363"><ele>12.0</ele><time>2026-04-09T16:57:49.007Z</time></trkpt><trkpt lat="47.2562463535436" lon="-1.5397113561644589"><ele>11.999999999999998</ele><time>2026-04-09T16:57:50.993Z</time></trkpt><trkpt lat="47.25632107821038" lon="-1.5396916586920057"><ele>12.0</ele><time>2026-04-09T16:57:52.004Z</time></trkpt><trkpt lat="47.256385451226734" lon="-1.5396544430419241"><ele>12.0</ele><time>2026-04-09T16:57:52.994Z</time></trkpt><trkpt lat="47.25646470212122" lon="-1.5395971108242306"><ele>12.0</ele><time>2026-04-09T16:57:54.004Z</time></trkpt><trkpt lat="47.25652957805177" lon="-1.5395648404970201"><ele>12.0</ele><time>2026-04-09T16:57:55.001Z</time></trkpt><trkpt lat="47.25659290333023" lon="-1.539540700615886"><ele>11.999999999999998</ele><time>2026-04-09T16:57:56.005Z</time></trkpt><trkpt lat="47.256661048203014" lon="-1.5395380184068712"><ele>12.0</ele><time>2026-04-09T16:57:57.002Z</time></trkpt><trkpt lat="47.25677039012989" lon="-1.5395422931774887"><ele>12.2</ele><time>2026-04-09T16:57:59.001Z</time></trkpt><trkpt lat="47.256872481710516" lon="-1.539590489120725"><ele>12.399999999999999</ele><time>2026-04-09T16:58:00.999Z</time></trkpt><trkpt lat="47.25697402846744" lon="-1.5395930036916765"><ele>12.600000000000001</ele><time>2026-04-09T16:58:02.994Z</time></trkpt><trkpt lat="47.25706849251618" lon="-1.539642624558452"><ele>12.8</ele><time>2026-04-09T16:58:05.002Z</time></trkpt><trkpt lat="47.25713734985074" lon="-1.5397261921330725"><ele>13.0</ele><time>2026-04-09T16:58:06.995Z</time></trkpt><trkpt lat="47.25719384387811" lon="-1.5398056525751387"><ele>12.999999999999998</ele><time>2026-04-09T16:58:08.989Z</time></trkpt><trkpt lat="47.25724346474489" lon="-1.5399196464582718"><ele>13.0</ele><time>2026-04-09T16:58:10.99Z</time></trkpt><trkpt lat="47.25728855938395" lon="-1.5400130208596028"><ele>13.0</ele><time>2026-04-09T16:58:12.999Z</time></trkpt><trkpt lat="47.25731529765507" lon="-1.5400970075293816"><ele>13.0</ele><time>2026-04-09T16:58:14.999Z</time></trkpt><trkpt lat="47.25736898374488" lon="-1.5402128454312125"><ele>12.999999999999998</ele><time>2026-04-09T16:58:16.995Z</time></trkpt><trkpt lat="47.257422083101474" lon="-1.54032608494306"><ele>13.0</ele><time>2026-04-09T16:58:18.994Z</time></trkpt><trkpt lat="47.257494921840035" lon="-1.540420129896645"><ele>13.166666666666666</ele><time>2026-04-09T16:58:20.987Z</time></trkpt><trkpt lat="47.2575080395185" lon="-1.5405455231680911"><ele>13.333333333333332</ele><time>2026-04-09T16:58:22.993Z</time></trkpt><trkpt lat="47.25756172560831" lon="-1.5406357962652488"><ele>13.5</ele><time>2026-04-09T16:58:24.993Z</time></trkpt><trkpt lat="47.25759814497759" lon="-1.5407272428288503"><ele>13.666666666666668</ele><time>2026-04-09T16:58:26.988Z</time></trkpt><trkpt lat="47.25762815219095" lon="-1.5408250596388622"><ele>13.833333333333334</ele><time>2026-04-09T16:58:28.988Z</time></trkpt><trkpt lat="47.25767182190647" lon="-1.5409089624896095"><ele>14.0</ele><time>2026-04-09T16:58:30.994Z</time></trkpt><trkpt lat="47.25771641363134" lon="-1.5410067792996214"><ele>14.000000000000002</ele><time>2026-04-09T16:58:32.989Z</time></trkpt><trkpt lat="47.25774650466373" lon="-1.5411029197289992"><ele>14.0</ele><time>2026-04-09T16:58:34.994Z</time></trkpt><trkpt lat="47.25777043499728" lon="-1.5412120521082926"><ele>14.0</ele><time>2026-04-09T16:58:36.988Z</time></trkpt><trkpt lat="47.257810584313475" lon="-1.541313808412795"><ele>14.0</ele><time>2026-04-09T16:58:38.987Z</time></trkpt><trkpt lat="47.25786464758893" lon="-1.5414244495346596"><ele>14.000000000000002</ele><time>2026-04-09T16:58:40.995Z</time></trkpt><trkpt lat="47.25788400978526" lon="-1.5415469091399958"><ele>14.0</ele><time>2026-04-09T16:58:42.986Z</time></trkpt><trkpt lat="47.257909742227994" lon="-1.541658807547336"><ele>14.166666666666668</ele><time>2026-04-09T16:58:44.988Z</time></trkpt><trkpt lat="47.25793689959427" lon="-1.541764587165361"><ele>14.333333333333334</ele><time>2026-04-09T16:58:46.993Z</time></trkpt><trkpt lat="47.257964266508125" lon="-1.5418493282064254"><ele>14.5</ele><time>2026-04-09T16:58:48.995Z</time></trkpt><trkpt lat="47.25800739139994" lon="-1.5419474802925641"><ele>14.666666666666668</ele><time>2026-04-09T16:58:50.996Z</time></trkpt><trkpt lat="47.25805403669109" lon="-1.5420473087593374"><ele>14.833333333333334</ele><time>2026-04-09T16:58:52.997Z</time></trkpt><trkpt lat="47.25808613938024" lon="-1.5421476401403007"><ele>15.0</ele><time>2026-04-09T16:58:54.996Z</time></trkpt><trkpt lat="47.25812821653416" lon="-1.542241517455822"><ele>16.666666666666668</ele><time>2026-04-09T16:58:56.995Z</time></trkpt><trkpt lat="47.258169748864375" lon="-1.542356098072177"><ele>18.333333333333336</ele><time>2026-04-09T16:58:58.998Z</time></trkpt><trkpt lat="47.25821941164067" lon="-1.5424651466324388"><ele>20.0</ele><time>2026-04-09T16:59:00.993Z</time></trkpt><trkpt lat="47.25828168918123" lon="-1.5425385721042217"><ele>21.666666666666668</ele><time>2026-04-09T16:59:02.991Z</time></trkpt><trkpt lat="47.2583548212864" lon="-1.5426103211953701"><ele>23.333333333333336</ele><time>2026-04-09T16:59:05.004Z</time></trkpt><trkpt lat="47.25840561561962" lon="-1.5426979959025444"><ele>25.0</ele><time>2026-04-09T16:59:07.003Z</time></trkpt><trkpt lat="47.25845674522897" lon="-1.5427677333369318"><ele>25.000000000000004</ele><time>2026-04-09T16:59:09.006Z</time></trkpt><trkpt lat="47.2585284524106" lon="-1.5427938010557953"><ele>25.0</ele><time>2026-04-09T16:59:11.002Z</time></trkpt><trkpt lat="47.2585966391929" lon="-1.5428444277509514"><ele>25.0</ele><time>2026-04-09T16:59:12.993Z</time></trkpt><trkpt lat="47.258661640852" lon="-1.5428778715446059"><ele>25.0</ele><time>2026-04-09T16:59:14.996Z</time></trkpt><trkpt lat="47.25873586260458" lon="-1.542916428299195"><ele>25.000000000000004</ele><time>2026-04-09T16:59:16.992Z</time></trkpt><trkpt lat="47.25881419148972" lon="-1.5429586730911795"><ele>25.0</ele><time>2026-04-09T16:59:18.998Z</time></trkpt><trkpt lat="47.258885772942804" lon="-1.542979460211045"><ele>25.833333333333336</ele><time>2026-04-09T16:59:20.992Z</time></trkpt><trkpt lat="47.258967412679695" lon="-1.542980885134584"><ele>26.666666666666668</ele><time>2026-04-09T16:59:22.995Z</time></trkpt><trkpt lat="47.25904347845098" lon="-1.542994547636754"><ele>27.5</ele><time>2026-04-09T16:59:24.989Z</time></trkpt><trkpt lat="47.25914121144196" lon="-1.5429858304574553"><ele>28.333333333333336</ele><time>2026-04-09T16:59:27.987Z</time></trkpt><trkpt lat="47.25922846705397" lon="-1.542977700011379"><ele>29.166666666666668</ele><time>2026-04-09T16:59:30.011Z</time></trkpt><trkpt lat="47.259318698241614" lon="-1.5429551526918475"><ele>30.0</ele><time>2026-04-09T16:59:31.99Z</time></trkpt><trkpt lat="47.25941680841824" lon="-1.5429280791446034"><ele>30.0</ele><time>2026-04-09T16:59:34.005Z</time></trkpt><trkpt lat="47.25949773569336" lon="-1.5428957249983613"><ele>30.0</ele><time>2026-04-09T16:59:34.995Z</time></trkpt><trkpt lat="47.25973004013976" lon="-1.5429079625769917"><ele>30.0</ele><time>2026-04-09T16:59:40.004Z</time></trkpt><trkpt lat="47.25979973566463" lon="-1.5428953059032027"><ele>30.0</ele><time>2026-04-09T16:59:40.991Z</time></trkpt><trkpt lat="47.25987450224092" lon="-1.5428641252234045"><ele>29.5</ele><time>2026-04-09T16:59:42.009Z</time></trkpt><trkpt lat="47.25995178338816" lon="-1.5428336989148919"><ele>29.0</ele><time>2026-04-09T16:59:42.996Z</time></trkpt><trkpt lat="47.260034512772464" lon="-1.542815426365978"><ele>28.5</ele><time>2026-04-09T16:59:43.987Z</time></trkpt><trkpt lat="47.26014553107997" lon="-1.5427914541229073"><ele>28.0</ele><time>2026-04-09T16:59:46.009Z</time></trkpt><trkpt lat="47.260241084776126" lon="-1.5427869278951947"><ele>27.5</ele><time>2026-04-09T16:59:48.003Z</time></trkpt><trkpt lat="47.26031375587662" lon="-1.5427803061916892"><ele>27.0</ele><time>2026-04-09T16:59:48.998Z</time></trkpt><trkpt lat="47.26038169120183" lon="-1.5427501313402714"><ele>27.0</ele><time>2026-04-09T16:59:49.985Z</time></trkpt><trkpt lat="47.260447489141725" lon="-1.5427539031966988"><ele>27.000000000000004</ele><time>2026-04-09T16:59:50.992Z</time></trkpt><trkpt lat="47.26056630261918" lon="-1.5427488740547957"><ele>27.000000000000004</ele><time>2026-04-09T16:59:52.994Z</time></trkpt><trkpt lat="47.26064785853704" lon="-1.5427459403886856"><ele>27.0</ele><time>2026-04-09T16:59:54.004Z</time></trkpt><trkpt lat="47.26072970782151" lon="-1.54272465035463"><ele>27.0</ele><time>2026-04-09T16:59:54.996Z</time></trkpt><trkpt lat="47.26087073334237" lon="-1.5427127480521263"><ele>26.0</ele><time>2026-04-09T16:59:56.987Z</time></trkpt><trkpt lat="47.26094361399045" lon="-1.5427002590164007"><ele>25.000000000000004</ele><time>2026-04-09T16:59:58.007Z</time></trkpt><trkpt lat="47.26106519349595" lon="-1.5427288413062157"><ele>24.0</ele><time>2026-04-09T17:00:00.003Z</time></trkpt><trkpt lat="47.26117981602182" lon="-1.5427825693055455"><ele>23.0</ele><time>2026-04-09T17:00:01.986Z</time></trkpt><trkpt lat="47.26131007079711" lon="-1.5428126603379313"><ele>22.0</ele><time>2026-04-09T17:00:04.006Z</time></trkpt><trkpt lat="47.26138177797874" lon="-1.5428158454611365"><ele>22.0</ele><time>2026-04-09T17:00:04.991Z</time></trkpt><trkpt lat="47.26149116181513" lon="-1.542800674216396"><ele>22.0</ele><time>2026-04-09T17:00:06.994Z</time></trkpt><trkpt lat="47.26160829891195" lon="-1.5428725909456078"><ele>22.0</ele><time>2026-04-09T17:00:08.994Z</time></trkpt><trkpt lat="47.26168490950694" lon="-1.5428698249175612"><ele>22.0</ele><time>2026-04-09T17:00:09.987Z</time></trkpt><trkpt lat="47.26175288674166" lon="-1.542886672542936"><ele>22.0</ele><time>2026-04-09T17:00:10.993Z</time></trkpt><trkpt lat="47.26182233080944" lon="-1.5428883489235703"><ele>22.0</ele><time>2026-04-09T17:00:12.003Z</time></trkpt><trkpt lat="47.261895211457514" lon="-1.5428814757629696"><ele>22.0</ele><time>2026-04-09T17:00:12.99Z</time></trkpt><trkpt lat="47.261967044367694" lon="-1.5428709145649735"><ele>22.0</ele><time>2026-04-09T17:00:13.988Z</time></trkpt><trkpt lat="47.26205266550859" lon="-1.542845433579332"><ele>22.0</ele><time>2026-04-09T17:00:14.992Z</time></trkpt><trkpt lat="47.26211984646251" lon="-1.542851049454457"><ele>22.0</ele><time>2026-04-09T17:00:15.993Z</time></trkpt><trkpt lat="47.26219813343813" lon="-1.542843673379666"><ele>22.0</ele><time>2026-04-09T17:00:16.99Z</time></trkpt><trkpt lat="47.262271936095566" lon="-1.542867226527578"><ele>21.5</ele><time>2026-04-09T17:00:17.988Z</time></trkpt><trkpt lat="47.26239104293963" lon="-1.5429020952447716"><ele>21.0</ele><time>2026-04-09T17:00:20Z</time></trkpt><trkpt lat="47.26245461967519" lon="-1.5429333597436015"><ele>20.5</ele><time>2026-04-09T17:00:20.989Z</time></trkpt><trkpt lat="47.262532655193716" lon="-1.5429810527726475"><ele>20.0</ele><time>2026-04-09T17:00:21.989Z</time></trkpt><trkpt lat="47.262605829208404" lon="-1.5430050250157183"><ele>19.5</ele><time>2026-04-09T17:00:22.992Z</time></trkpt><trkpt lat="47.26268570874563" lon="-1.5430392231806582"><ele>19.0</ele><time>2026-04-09T17:00:24.004Z</time></trkpt><trkpt lat="47.26274023302576" lon="-1.5430895984187192"><ele>19.0</ele><time>2026-04-09T17:00:24.998Z</time></trkpt><trkpt lat="47.26282292050055" lon="-1.5431666281088656"><ele>19.0</ele><time>2026-04-09T17:00:26.995Z</time></trkpt><trkpt lat="47.26291202013126" lon="-1.5432594157769748"><ele>19.0</ele><time>2026-04-09T17:00:28.989Z</time></trkpt><trkpt lat="47.26297333375296" lon="-1.5433012414738008"><ele>19.0</ele><time>2026-04-09T17:00:29.988Z</time></trkpt><trkpt lat="47.26302328989586" lon="-1.5433764271452495"><ele>19.0</ele><time>2026-04-09T17:00:30.988Z</time></trkpt><trkpt lat="47.26310614500871" lon="-1.543441051618702"><ele>19.0</ele><time>2026-04-09T17:00:31.993Z</time></trkpt><trkpt lat="47.263204255185336" lon="-1.5435594040914844"><ele>19.0</ele><time>2026-04-09T17:00:33.988Z</time></trkpt><trkpt lat="47.2633148963072" lon="-1.54363199137295"><ele>19.0</ele><time>2026-04-09T17:00:35.992Z</time></trkpt><trkpt lat="47.26339733232489" lon="-1.543680271135218"><ele>19.0</ele><time>2026-04-09T17:00:36.997Z</time></trkpt><trkpt lat="47.26345403589985" lon="-1.5437252819552494"><ele>19.0</ele><time>2026-04-09T17:00:37.992Z</time></trkpt><trkpt lat="47.26355528929016" lon="-1.5438450593515707"><ele>19.0</ele><time>2026-04-09T17:00:39.991Z</time></trkpt><trkpt lat="47.2636135435172" lon="-1.5438904054477287"><ele>19.0</ele><time>2026-04-09T17:00:40.99Z</time></trkpt><trkpt lat="47.26367083382538" lon="-1.5439416188761068"><ele>19.0</ele><time>2026-04-09T17:00:41.992Z</time></trkpt><trkpt lat="47.26377757736227" lon="-1.5440444648280218"><ele>19.0</ele><time>2026-04-09T17:00:44.005Z</time></trkpt><trkpt lat="47.26388461426577" lon="-1.5441216621562317"><ele>19.0</ele><time>2026-04-09T17:00:45.993Z</time></trkpt><trkpt lat="47.26398683157495" lon="-1.5442105103298502"><ele>19.0</ele><time>2026-04-09T17:00:47.993Z</time></trkpt><trkpt lat="47.26406750739297" lon="-1.5442913118764239"><ele>19.0</ele><time>2026-04-09T17:00:49.992Z</time></trkpt><trkpt lat="47.26415346381" lon="-1.544371694327839"><ele>19.0</ele><time>2026-04-09T17:00:51.992Z</time></trkpt><trkpt lat="47.26421687290749" lon="-1.5443906374290066"><ele>19.0</ele><time>2026-04-09T17:00:52.991Z</time></trkpt><trkpt lat="47.264328519857735" lon="-1.544443275780924"><ele>19.0</ele><time>2026-04-09T17:00:55.004Z</time></trkpt><trkpt lat="47.26441120733252" lon="-1.5444550104453643"><ele>19.0</ele><time>2026-04-09T17:00:56.992Z</time></trkpt><trkpt lat="47.26451920815489" lon="-1.5444367378964503"><ele>19.0</ele><time>2026-04-09T17:00:58.991Z</time></trkpt><trkpt lat="47.26458077323368" lon="-1.5444063954069691"><ele>19.0</ele><time>2026-04-09T17:01:00.003Z</time></trkpt><trkpt lat="47.26467293225905" lon="-1.5443930681809264"><ele>19.0</ele><time>2026-04-09T17:01:01.99Z</time></trkpt><trkpt lat="47.264759810685426" lon="-1.5443488955512124"><ele>19.0</ele><time>2026-04-09T17:01:04.004Z</time></trkpt><trkpt lat="47.26484677293083" lon="-1.5443060640260058"><ele>19.0</ele><time>2026-04-09T17:01:05.992Z</time></trkpt><trkpt lat="47.264909553385586" lon="-1.5442734584226685"><ele>19.0</ele><time>2026-04-09T17:01:07.007Z</time></trkpt><trkpt lat="47.26499965884468" lon="-1.5442066546543913"><ele>19.5</ele><time>2026-04-09T17:01:08.997Z</time></trkpt><trkpt lat="47.26505640432915" lon="-1.5441642422243431"><ele>20.0</ele><time>2026-04-09T17:01:09.988Z</time></trkpt><trkpt lat="47.26513946898958" lon="-1.54413037933553"><ele>20.5</ele><time>2026-04-09T17:01:11.99Z</time></trkpt><trkpt lat="47.265206314667374" lon="-1.5441162139191702"><ele>21.0</ele><time>2026-04-09T17:01:13.987Z</time></trkpt><trkpt lat="47.26528112315318" lon="-1.5440804231926277"><ele>21.5</ele><time>2026-04-09T17:01:15.99Z</time></trkpt><trkpt lat="47.26539415311745" lon="-1.54400674626375"><ele>22.0</ele><time>2026-04-09T17:01:17.993Z</time></trkpt><trkpt lat="47.26549012590876" lon="-1.543981684373267"><ele>22.0</ele><time>2026-04-09T17:01:19.99Z</time></trkpt><trkpt lat="47.265593097589225" lon="-1.5439924970283583"><ele>22.0</ele><time>2026-04-09T17:01:21.989Z</time></trkpt><trkpt lat="47.26567775481126" lon="-1.5440558642163351"><ele>22.0</ele><time>2026-04-09T17:01:23.995Z</time></trkpt><trkpt lat="47.265722597993225" lon="-1.5441612247392014"><ele>22.0</ele><time>2026-04-09T17:01:25.992Z</time></trkpt><trkpt lat="47.26575616751543" lon="-1.544284187258728"><ele>22.0</ele><time>2026-04-09T17:01:27.988Z</time></trkpt><trkpt lat="47.26578617472878" lon="-1.5444199740901072"><ele>22.200000000000003</ele><time>2026-04-09T17:01:29.988Z</time></trkpt><trkpt lat="47.26583072454414" lon="-1.5445585269495328"><ele>22.4</ele><time>2026-04-09T17:01:31.991Z</time></trkpt><trkpt lat="47.265894385098726" lon="-1.5446819923832498"><ele>22.6</ele><time>2026-04-09T17:01:33.99Z</time></trkpt><trkpt lat="47.2660124442049" lon="-1.544727841393598"><ele>22.799999999999997</ele><time>2026-04-09T17:01:35.99Z</time></trkpt><trkpt lat="47.26611407478085" lon="-1.5447015222176395"><ele>23.0</ele><time>2026-04-09T17:01:37.983Z</time></trkpt><trkpt lat="47.266212478324086" lon="-1.5446685813381753"><ele>23.0</ele><time>2026-04-09T17:01:39.982Z</time></trkpt><trkpt lat="47.26631926377049" lon="-1.5446324553355057"><ele>23.0</ele><time>2026-04-09T17:01:41.979Z</time></trkpt><trkpt lat="47.266428479968816" lon="-1.5446024481221516"><ele>23.0</ele><time>2026-04-09T17:01:43.981Z</time></trkpt><trkpt lat="47.26651087407699" lon="-1.5445734467371781"><ele>23.0</ele><time>2026-04-09T17:01:45.98Z</time></trkpt><trkpt lat="47.26660043471238" lon="-1.5445629693582137"><ele>23.0</ele><time>2026-04-09T17:01:47.98Z</time></trkpt><trkpt lat="47.266691755547434" lon="-1.5445936471238215"><ele>23.4</ele><time>2026-04-09T17:01:49.981Z</time></trkpt><trkpt lat="47.26678064563057" lon="-1.544611752034672"><ele>23.799999999999997</ele><time>2026-04-09T17:01:51.978Z</time></trkpt><trkpt lat="47.26688910745761" lon="-1.5445991791799147"><ele>24.2</ele><time>2026-04-09T17:01:53.98Z</time></trkpt><trkpt lat="47.26697770417413" lon="-1.5446365624680598"><ele>24.6</ele><time>2026-04-09T17:01:55.977Z</time></trkpt><trkpt lat="47.26707606580785" lon="-1.5446569304927666"><ele>25.0</ele><time>2026-04-09T17:01:57.979Z</time></trkpt><trkpt lat="47.26718176160684" lon="-1.5446687489762387"><ele>25.000000000000004</ele><time>2026-04-09T17:01:59.985Z</time></trkpt><trkpt lat="47.26726281461051" lon="-1.544710490854033"><ele>25.0</ele><time>2026-04-09T17:02:01.98Z</time></trkpt><trkpt lat="47.267350992231876" lon="-1.5447662305101237"><ele>25.0</ele><time>2026-04-09T17:02:03.979Z</time></trkpt><trkpt lat="47.267399355813176" lon="-1.544861281292089"><ele>25.0</ele><time>2026-04-09T17:02:05.983Z</time></trkpt><trkpt lat="47.267445288642556" lon="-1.5449648816152894"><ele>25.000000000000004</ele><time>2026-04-09T17:02:07.984Z</time></trkpt><trkpt lat="47.26749968719414" lon="-1.545063955710777"><ele>25.0</ele><time>2026-04-09T17:02:09.984Z</time></trkpt><trkpt lat="47.26758803245357" lon="-1.5451606828733768"><ele>25.28571428571429</ele><time>2026-04-09T17:02:11.983Z</time></trkpt><trkpt lat="47.26761787202886" lon="-1.545245423914441"><ele>25.571428571428573</ele><time>2026-04-09T17:02:13.985Z</time></trkpt><trkpt lat="47.26766284093937" lon="-1.5453234594329681"><ele>25.857142857142858</ele><time>2026-04-09T17:02:15.988Z</time></trkpt><trkpt lat="47.26769888312301" lon="-1.545425131918439"><ele>26.142857142857146</ele><time>2026-04-09T17:02:17.985Z</time></trkpt><trkpt lat="47.267733039378435" lon="-1.545529989527115"><ele>26.428571428571427</ele><time>2026-04-09T17:02:19.985Z</time></trkpt><trkpt lat="47.267777463465244" lon="-1.5456273872419686"><ele>26.714285714285715</ele><time>2026-04-09T17:02:21.987Z</time></trkpt><trkpt lat="47.267823689661235" lon="-1.5457130502923817"><ele>27.0</ele><time>2026-04-09T17:02:23.996Z</time></trkpt><trkpt lat="47.26783923809162" lon="-1.5458194166436285"><ele>27.0</ele><time>2026-04-09T17:02:25.99Z</time></trkpt><trkpt lat="47.26782838352701" lon="-1.5459358412786814"><ele>27.0</ele><time>2026-04-09T17:02:27.986Z</time></trkpt><trkpt lat="47.26782721006057" lon="-1.5460308920606467"><ele>27.0</ele><time>2026-04-09T17:02:29.987Z</time></trkpt><trkpt lat="47.267881357155055" lon="-1.5460816863938662"><ele>27.0</ele><time>2026-04-09T17:02:31.99Z</time></trkpt><trkpt lat="47.26796831940046" lon="-1.5460775792613122"><ele>27.0</ele><time>2026-04-09T17:02:33.997Z</time></trkpt><trkpt lat="47.26806207098743" lon="-1.5460700355484578"><ele>27.0</ele><time>2026-04-09T17:02:35.996Z</time></trkpt><trkpt lat="47.26814811122349" lon="-1.5460701193674895"><ele>27.400000000000002</ele><time>2026-04-09T17:02:38.004Z</time></trkpt><trkpt lat="47.26823054724118" lon="-1.5460873860880229"><ele>27.800000000000004</ele><time>2026-04-09T17:02:40.001Z</time></trkpt><trkpt lat="47.26832421500912" lon="-1.546106832103381"><ele>28.2</ele><time>2026-04-09T17:02:42.002Z</time></trkpt><trkpt lat="47.2684309166365" lon="-1.5461014676853513"><ele>28.6</ele><time>2026-04-09T17:02:43.993Z</time></trkpt><trkpt lat="47.26851041898808" lon="-1.5461556147798394"><ele>29.0</ele><time>2026-04-09T17:02:46.001Z</time></trkpt><trkpt lat="47.26859993771395" lon="-1.5462069120272492"><ele>28.999999999999996</ele><time>2026-04-09T17:02:47.998Z</time></trkpt><trkpt lat="47.268680948808104" lon="-1.5462592151030397"><ele>29.0</ele><time>2026-04-09T17:02:50.001Z</time></trkpt><trkpt lat="47.26875089579007" lon="-1.5462777391090488"><ele>29.0</ele><time>2026-04-09T17:02:52Z</time></trkpt><trkpt lat="47.268828554122955" lon="-1.54628268443192"><ele>29.0</ele><time>2026-04-09T17:02:54.007Z</time></trkpt><trkpt lat="47.268924862190396" lon="-1.5462842769935226"><ele>28.999999999999996</ele><time>2026-04-09T17:02:56.003Z</time></trkpt><trkpt lat="47.26899694655767" lon="-1.5462851990028714"><ele>29.0</ele><time>2026-04-09T17:02:57.023Z</time></trkpt><trkpt lat="47.26909451191059" lon="-1.5463224984719848"><ele>29.799999999999997</ele><time>2026-04-09T17:02:59.002Z</time></trkpt><trkpt lat="47.26919610057703" lon="-1.54631151817883"><ele>30.599999999999998</ele><time>2026-04-09T17:03:01.018Z</time></trkpt><trkpt lat="47.269294462210745" lon="-1.5463141165688132"><ele>31.4</ele><time>2026-04-09T17:03:02.998Z</time></trkpt><trkpt lat="47.269398984543294" lon="-1.5463250130429362"><ele>32.199999999999996</ele><time>2026-04-09T17:03:05.005Z</time></trkpt><trkpt lat="47.26949956738135" lon="-1.5463292039945222"><ele>33.0</ele><time>2026-04-09T17:03:07.003Z</time></trkpt><trkpt lat="47.269616914025754" lon="-1.5463101770743226"><ele>33.0</ele><time>2026-04-09T17:03:09.005Z</time></trkpt><trkpt lat="47.26973815825513" lon="-1.5462701115771627"><ele>33.0</ele><time>2026-04-09T17:03:11.004Z</time></trkpt><trkpt lat="47.26983488541773" lon="-1.546225855128417"><ele>33.0</ele><time>2026-04-09T17:03:12.011Z</time></trkpt><trkpt lat="47.2699360130795" lon="-1.5462082531317567"><ele>33.0</ele><time>2026-04-09T17:03:14.005Z</time></trkpt><trkpt lat="47.27002033502541" lon="-1.5462292078896855"><ele>33.0</ele><time>2026-04-09T17:03:16.022Z</time></trkpt><trkpt lat="47.27010021456263" lon="-1.5462347399457788"><ele>33.0</ele><time>2026-04-09T17:03:17.008Z</time></trkpt><trkpt lat="47.27016316265545" lon="-1.5462434571250772"><ele>33.0</ele><time>2026-04-09T17:03:17.953Z</time></trkpt><trkpt lat="47.270227368033744" lon="-1.5462589636459445"><ele>33.0</ele><time>2026-04-09T17:03:18.956Z</time></trkpt><trkpt lat="47.270293626978315" lon="-1.546266507358799"><ele>33.0</ele><time>2026-04-09T17:03:19.959Z</time></trkpt><trkpt lat="47.27041034497998" lon="-1.5462827682509517"><ele>33.0</ele><time>2026-04-09T17:03:21.964Z</time></trkpt><trkpt lat="47.270518932535566" lon="-1.5463022142663096"><ele>33.0</ele><time>2026-04-09T17:03:23.969Z</time></trkpt><trkpt lat="47.27061721035025" lon="-1.5463213250055408"><ele>33.0</ele><time>2026-04-09T17:03:25.973Z</time></trkpt><trkpt lat="47.27072500162504" lon="-1.5463432017728187"><ele>33.0</ele><time>2026-04-09T17:03:27.976Z</time></trkpt><trkpt lat="47.270824494815685" lon="-1.546351667495022"><ele>33.0</ele><time>2026-04-09T17:03:29.98Z</time></trkpt><trkpt lat="47.27089041848413" lon="-1.5463703591390945"><ele>33.0</ele><time>2026-04-09T17:03:30.981Z</time></trkpt><trkpt lat="47.27098094303838" lon="-1.5464062336846687"><ele>33.0</ele><time>2026-04-09T17:03:32.983Z</time></trkpt><trkpt lat="47.27109238044105" lon="-1.5464399289354183"><ele>33.0</ele><time>2026-04-09T17:03:34.986Z</time></trkpt><trkpt lat="47.27120566186241" lon="-1.546476809309373"><ele>33.0</ele><time>2026-04-09T17:03:36.988Z</time></trkpt><trkpt lat="47.27130452641032" lon="-1.5465107560172178"><ele>33.0</ele><time>2026-04-09T17:03:38.989Z</time></trkpt><trkpt lat="47.27142514199696" lon="-1.5465355664506055"><ele>33.0</ele><time>2026-04-09T17:03:40.991Z</time></trkpt><trkpt lat="47.271488006270744" lon="-1.5465470496579505"><ele>33.0</ele><time>2026-04-09T17:03:41.992Z</time></trkpt><trkpt lat="47.271607574119486" lon="-1.5465649869307376"><ele>32.666666666666664</ele><time>2026-04-09T17:03:43.993Z</time></trkpt><trkpt lat="47.27168753747574" lon="-1.5465706028058628"><ele>32.333333333333336</ele><time>2026-04-09T17:03:44.993Z</time></trkpt><trkpt lat="47.27175920274786" lon="-1.5465845167651275"><ele>32.0</ele><time>2026-04-09T17:03:45.994Z</time></trkpt><trkpt lat="47.27184013002298" lon="-1.5466200560345749"><ele>31.666666666666668</ele><time>2026-04-09T17:03:47.995Z</time></trkpt><trkpt lat="47.271927092268385" lon="-1.5466685034349064"><ele>31.333333333333336</ele><time>2026-04-09T17:03:49.996Z</time></trkpt><trkpt lat="47.27198936980895" lon="-1.5466869436218837"><ele>31.0</ele><time>2026-04-09T17:03:50.996Z</time></trkpt><trkpt lat="47.27209896319292" lon="-1.5467498078956703"><ele>31.0</ele><time>2026-04-09T17:03:52.997Z</time></trkpt><trkpt lat="47.27220679637722" lon="-1.5468133427217108"><ele>31.0</ele><time>2026-04-09T17:03:54.998Z</time></trkpt><trkpt lat="47.27226639170877" lon="-1.5468441043063503"><ele>31.0</ele><time>2026-04-09T17:03:55.998Z</time></trkpt><trkpt lat="47.27233206392012" lon="-1.5468409191831451"><ele>31.0</ele><time>2026-04-09T17:03:56.998Z</time></trkpt><trkpt lat="47.27245540362529" lon="-1.5468679089113575"><ele>31.0</ele><time>2026-04-09T17:03:58.999Z</time></trkpt><trkpt lat="47.27256311108104" lon="-1.5468843374415737"><ele>31.166666666666668</ele><time>2026-04-09T17:04:00.999Z</time></trkpt><trkpt lat="47.27264940277419" lon="-1.5468965750202042"><ele>31.333333333333336</ele><time>2026-04-09T17:04:02.999Z</time></trkpt><trkpt lat="47.27274462119422" lon="-1.5469255764051777"><ele>31.5</ele><time>2026-04-09T17:04:05Z</time></trkpt><trkpt lat="47.27281607691876" lon="-1.5469526499524218"><ele>31.666666666666664</ele><time>2026-04-09T17:04:07Z</time></trkpt><trkpt lat="47.27288401224396" lon="-1.5469615347697836"><ele>31.833333333333332</ele><time>2026-04-09T17:04:08Z</time></trkpt><trkpt lat="47.27298564281992" lon="-1.5470061264946562"><ele>32.0</ele><time>2026-04-09T17:04:10Z</time></trkpt><trkpt lat="47.27307679601691" lon="-1.54705516062821"><ele>32.2</ele><time>2026-04-09T17:04:12.001Z</time></trkpt><trkpt lat="47.27319535803727" lon="-1.5470772888525828"><ele>32.400000000000006</ele><time>2026-04-09T17:04:14.001Z</time></trkpt><trkpt lat="47.27329736579887" lon="-1.5471009258195265"><ele>32.599999999999994</ele><time>2026-04-09T17:04:16.001Z</time></trkpt><trkpt lat="47.27339970883659" lon="-1.5471263229861363"><ele>32.8</ele><time>2026-04-09T17:04:18.001Z</time></trkpt><trkpt lat="47.27348767691038" lon="-1.5471595991417273"><ele>33.0</ele><time>2026-04-09T17:04:20.001Z</time></trkpt><trkpt lat="47.27356789172373" lon="-1.547214752064596"><ele>33.0</ele><time>2026-04-09T17:04:22.001Z</time></trkpt><trkpt lat="47.27365187839351" lon="-1.5472705755397185"><ele>33.0</ele><time>2026-04-09T17:04:24.001Z</time></trkpt><trkpt lat="47.27372610014609" lon="-1.5473354514702664"><ele>33.0</ele><time>2026-04-09T17:04:26.002Z</time></trkpt><trkpt lat="47.27379868742756" lon="-1.5473854914322005"><ele>33.0</ele><time>2026-04-09T17:04:28.002Z</time></trkpt><trkpt lat="47.27384801492772" lon="-1.5474835596993075"><ele>33.0</ele><time>2026-04-09T17:04:30.002Z</time></trkpt><trkpt lat="47.273904131769456" lon="-1.5475642774268497"><ele>33.0</ele><time>2026-04-09T17:04:32.002Z</time></trkpt><trkpt lat="47.27395467464558" lon="-1.5476305782809365"><ele>33.166666666666664</ele><time>2026-04-09T17:04:34.002Z</time></trkpt><trkpt lat="47.274018670476295" lon="-1.5476915985360253"><ele>33.333333333333336</ele><time>2026-04-09T17:04:36.002Z</time></trkpt><trkpt lat="47.27409180258147" lon="-1.5477389562889445"><ele>33.5</ele><time>2026-04-09T17:04:38.002Z</time></trkpt><trkpt lat="47.27417612452737" lon="-1.5477576479330173"><ele>33.66666666666667</ele><time>2026-04-09T17:04:40.002Z</time></trkpt><trkpt lat="47.27425994355909" lon="-1.5477378666415322"><ele>33.833333333333336</ele><time>2026-04-09T17:04:42.002Z</time></trkpt><trkpt lat="47.27433303375474" lon="-1.5476909279837716"><ele>34.0</ele><time>2026-04-09T17:04:44.002Z</time></trkpt><trkpt lat="47.2744018910893" lon="-1.5476356912418712"><ele>34.0</ele><time>2026-04-09T17:04:47.002Z</time></trkpt><trkpt lat="47.27446001958779" lon="-1.5475728269680846"><ele>34.0</ele><time>2026-04-09T17:04:49.002Z</time></trkpt><trkpt lat="47.274528583555735" lon="-1.5475027542575703"><ele>34.0</ele><time>2026-04-09T17:04:51.002Z</time></trkpt><trkpt lat="47.27461659353904" lon="-1.5474618505700932"><ele>34.0</ele><time>2026-04-09T17:04:53.002Z</time></trkpt><trkpt lat="47.27470552553169" lon="-1.547459000723015"><ele>34.0</ele><time>2026-04-09T17:04:55.002Z</time></trkpt><trkpt lat="47.27479190104387" lon="-1.547472244130026"><ele>34.0</ele><time>2026-04-09T17:04:57.002Z</time></trkpt><trkpt lat="47.27487538479946" lon="-1.547494037078272"><ele>34.66666666666667</ele><time>2026-04-09T17:04:59.002Z</time></trkpt><trkpt lat="47.274954845241524" lon="-1.5475201886161674"><ele>35.333333333333336</ele><time>2026-04-09T17:05:01.002Z</time></trkpt><trkpt lat="47.275033551312305" lon="-1.5475411433740962"><ele>36.0</ele><time>2026-04-09T17:05:03.002Z</time></trkpt><trkpt lat="47.27511343084953" lon="-1.547557990999471"><ele>36.666666666666664</ele><time>2026-04-09T17:05:05.002Z</time></trkpt><trkpt lat="47.27519783661447" lon="-1.547577101738702"><ele>37.33333333333333</ele><time>2026-04-09T17:05:07.002Z</time></trkpt><trkpt lat="47.27527700368992" lon="-1.5476012416198361"><ele>38.0</ele><time>2026-04-09T17:05:09.002Z</time></trkpt><trkpt lat="47.275349423333324" lon="-1.547628063709985"><ele>38.0</ele><time>2026-04-09T17:05:11.002Z</time></trkpt><trkpt lat="47.27542456709526" lon="-1.5476530417814363"><ele>38.0</ele><time>2026-04-09T17:05:13.002Z</time></trkpt><trkpt lat="47.27549937558106" lon="-1.5476795285954583"><ele>38.0</ele><time>2026-04-09T17:05:15.002Z</time></trkpt><trkpt lat="47.275576237633146" lon="-1.547702327372085"><ele>38.0</ele><time>2026-04-09T17:05:17.002Z</time></trkpt><trkpt lat="47.27565289013765" lon="-1.5477221086635697"><ele>38.0</ele><time>2026-04-09T17:05:19.002Z</time></trkpt><trkpt lat="47.27573239248923" lon="-1.547754714266907"><ele>38.0</ele><time>2026-04-09T17:05:21.002Z</time></trkpt><trkpt lat="47.27580401585183" lon="-1.5477991383537164"><ele>38.0</ele><time>2026-04-09T17:05:23.002Z</time></trkpt><trkpt lat="47.275866000025786" lon="-1.5478782635196557"><ele>38.0</ele><time>2026-04-09T17:05:25.002Z</time></trkpt><trkpt lat="47.27590522733263" lon="-1.5479671955123058"><ele>38.0</ele><time>2026-04-09T17:05:27.002Z</time></trkpt><trkpt lat="47.27593485736034" lon="-1.5480955224498623"><ele>38.0</ele><time>2026-04-09T17:05:30.003Z</time></trkpt><trkpt lat="47.27598674134097" lon="-1.5481826942428463"><ele>38.0</ele><time>2026-04-09T17:05:32.003Z</time></trkpt><trkpt lat="47.276054802394725" lon="-1.5482344944044466"><ele>38.0</ele><time>2026-04-09T17:05:34.003Z</time></trkpt><trkpt lat="47.27613426283679" lon="-1.5482640825226421"><ele>38.0</ele><time>2026-04-09T17:05:36.003Z</time></trkpt><trkpt lat="47.27622298528186" lon="-1.5482595562949295"><ele>38.0</ele><time>2026-04-09T17:05:38.003Z</time></trkpt><trkpt lat="47.276304415471174" lon="-1.548275314272892"><ele>38.0</ele><time>2026-04-09T17:05:41.003Z</time></trkpt><trkpt lat="47.27637264416299" lon="-1.54822343029226"><ele>38.0</ele><time>2026-04-09T17:05:44.003Z</time></trkpt><trkpt lat="47.27643995084546" lon="-1.5481831133380048"><ele>38.0</ele><time>2026-04-09T17:05:46.003Z</time></trkpt><trkpt lat="47.27653340906582" lon="-1.548179509119641"><ele>38.0</ele><time>2026-04-09T17:05:48.003Z</time></trkpt><trkpt lat="47.27662565191022" lon="-1.5481847058996074"><ele>38.199999999999996</ele><time>2026-04-09T17:05:50.003Z</time></trkpt><trkpt lat="47.27670913566581" lon="-1.5482013858869188"><ele>38.4</ele><time>2026-04-09T17:05:52.003Z</time></trkpt><trkpt lat="47.27681105960838" lon="-1.5482211671784036"><ele>38.599999999999994</ele><time>2026-04-09T17:05:54.003Z</time></trkpt><trkpt lat="47.27691587530754" lon="-1.5482447203263159"><ele>38.8</ele><time>2026-04-09T17:05:56.003Z</time></trkpt><trkpt lat="47.27702601351521" lon="-1.5482711233213062"><ele>39.0</ele><time>2026-04-09T17:05:58.003Z</time></trkpt><trkpt lat="47.277128063186325" lon="-1.5482892282321568"><ele>39.0</ele><time>2026-04-09T17:06:00.003Z</time></trkpt><trkpt lat="47.277233675166286" lon="-1.548322755844843"><ele>39.0</ele><time>2026-04-09T17:06:02.003Z</time></trkpt><trkpt lat="47.277325037910856" lon="-1.548390733079564"><ele>39.0</ele><time>2026-04-09T17:06:04.003Z</time></trkpt><trkpt lat="47.27743945088915" lon="-1.5484131965800638"><ele>39.0</ele><time>2026-04-09T17:06:06.003Z</time></trkpt><trkpt lat="47.27754510477863" lon="-1.5484512504204626"><ele>39.0</ele><time>2026-04-09T17:06:08.003Z</time></trkpt><trkpt lat="47.27764409505509" lon="-1.5485072415336487"><ele>38.6</ele><time>2026-04-09T17:06:10.003Z</time></trkpt><trkpt lat="47.277767141393646" lon="-1.548540433870208"><ele>38.2</ele><time>2026-04-09T17:06:12.003Z</time></trkpt><trkpt lat="47.27789559405975" lon="-1.5485732071116087"><ele>37.800000000000004</ele><time>2026-04-09T17:06:14.003Z</time></trkpt><trkpt lat="47.2779586259716" lon="-1.5485926531269667"><ele>37.4</ele><time>2026-04-09T17:06:15.003Z</time></trkpt><trkpt lat="47.27803909224205" lon="-1.5485929884030936"><ele>37.0</ele><time>2026-04-09T17:06:16.003Z</time></trkpt><trkpt lat="47.278117421127185" lon="-1.548613188789737"><ele>36.0</ele><time>2026-04-09T17:06:17.003Z</time></trkpt><trkpt lat="47.278192690617665" lon="-1.5486325509860632"><ele>35.0</ele><time>2026-04-09T17:06:18.003Z</time></trkpt><trkpt lat="47.278264942623004" lon="-1.5486450400217888"><ele>34.0</ele><time>2026-04-09T17:06:19.003Z</time></trkpt><trkpt lat="47.27833769754253" lon="-1.5486559364959118"><ele>33.0</ele><time>2026-04-09T17:06:20.003Z</time></trkpt><trkpt lat="47.27841807999395" lon="-1.5486654080464957"><ele>32.0</ele><time>2026-04-09T17:06:21.003Z</time></trkpt><trkpt lat="47.27849008054219" lon="-1.5486863628044245"><ele>31.0</ele><time>2026-04-09T17:06:22.003Z</time></trkpt><trkpt lat="47.27857641414486" lon="-1.5487045515343068"><ele>30.666666666666668</ele><time>2026-04-09T17:06:23.003Z</time></trkpt><trkpt lat="47.278658389157876" lon="-1.548726344482553"><ele>30.333333333333336</ele><time>2026-04-09T17:06:24.003Z</time></trkpt><trkpt lat="47.278737807690426" lon="-1.5487436112030863"><ele>30.0</ele><time>2026-04-09T17:06:25.003Z</time></trkpt><trkpt lat="47.278813999190255" lon="-1.5487654041513323"><ele>29.666666666666664</ele><time>2026-04-09T17:06:26.003Z</time></trkpt><trkpt lat="47.27887598336421" lon="-1.5487924776985764"><ele>29.333333333333332</ele><time>2026-04-09T17:06:27.003Z</time></trkpt><trkpt lat="47.27895347405903" lon="-1.5488165337606787"><ele>29.0</ele><time>2026-04-09T17:06:28.003Z</time></trkpt><trkpt lat="47.27902933028273" lon="-1.5488399192705273"><ele>28.999999999999996</ele><time>2026-04-09T17:06:29.003Z</time></trkpt><trkpt lat="47.27910925172947" lon="-1.5488610416665196"><ele>29.0</ele><time>2026-04-09T17:06:30.003Z</time></trkpt><trkpt lat="47.27917563640259" lon="-1.5488829184337973"><ele>29.0</ele><time>2026-04-09T17:06:31.003Z</time></trkpt><trkpt lat="47.27924537383698" lon="-1.5489187091603398"><ele>29.0</ele><time>2026-04-09T17:06:32.003Z</time></trkpt><trkpt lat="47.27931892503731" lon="-1.5489365626140952"><ele>28.999999999999996</ele><time>2026-04-09T17:06:33.003Z</time></trkpt><trkpt lat="47.27940366607837" lon="-1.5489716827883842"><ele>29.0</ele><time>2026-04-09T17:06:34.003Z</time></trkpt><trkpt lat="47.27947189477019" lon="-1.5489849261953952"><ele>29.000000000000004</ele><time>2026-04-09T17:06:35.003Z</time></trkpt><trkpt lat="47.27955240295015" lon="-1.5490049589439752"><ele>29.0</ele><time>2026-04-09T17:06:36.003Z</time></trkpt><trkpt lat="47.27962406822227" lon="-1.5490243211403014"><ele>29.000000000000004</ele><time>2026-04-09T17:06:37.003Z</time></trkpt><trkpt lat="47.27970629469238" lon="-1.5490278415396335"><ele>29.000000000000004</ele><time>2026-04-09T17:06:38.003Z</time></trkpt><trkpt lat="47.27977904961191" lon="-1.5490322839483144"><ele>29.0</ele><time>2026-04-09T17:06:39.003Z</time></trkpt><trkpt lat="47.27984556001358" lon="-1.549046533183706"><ele>29.000000000000004</ele><time>2026-04-09T17:06:40.003Z</time></trkpt><trkpt lat="47.27991756056182" lon="-1.5490575134768607"><ele>29.000000000000004</ele><time>2026-04-09T17:06:41.003Z</time></trkpt><trkpt lat="47.2799809277498" lon="-1.5490855090334537"><ele>28.428571428571434</ele><time>2026-04-09T17:06:42.003Z</time></trkpt><trkpt lat="47.28005271875046" lon="-1.5490979980691792"><ele>27.857142857142858</ele><time>2026-04-09T17:06:43.003Z</time></trkpt><trkpt lat="47.280126437588855" lon="-1.549109565095556"><ele>27.28571428571429</ele><time>2026-04-09T17:06:44.003Z</time></trkpt><trkpt lat="47.280196761756464" lon="-1.549138734118593"><ele>26.714285714285715</ele><time>2026-04-09T17:06:45.003Z</time></trkpt><trkpt lat="47.28026482281022" lon="-1.5491545759155871"><ele>26.142857142857146</ele><time>2026-04-09T17:06:46.003Z</time></trkpt><trkpt lat="47.28033430878751" lon="-1.549170501531613"><ele>25.571428571428573</ele><time>2026-04-09T17:06:47.003Z</time></trkpt><trkpt lat="47.28040278893642" lon="-1.5491842478528144"><ele>25.0</ele><time>2026-04-09T17:06:48.003Z</time></trkpt><trkpt lat="47.28048614696346" lon="-1.5491791348918797"><ele>25.0</ele><time>2026-04-09T17:06:49.003Z</time></trkpt><trkpt lat="47.28055181917481" lon="-1.5492099802955512"><ele>25.0</ele><time>2026-04-09T17:06:50.003Z</time></trkpt><trkpt lat="47.28061736565761" lon="-1.5492357127382879"><ele>25.0</ele><time>2026-04-09T17:06:51.003Z</time></trkpt><trkpt lat="47.280748249075636" lon="-1.5492593497052316"><ele>25.0</ele><time>2026-04-09T17:06:53.003Z</time></trkpt><trkpt lat="47.28087100204758" lon="-1.549300169573677"><ele>25.0</ele><time>2026-04-09T17:06:55.003Z</time></trkpt><trkpt lat="47.28093730290167" lon="-1.5493243932738427"><ele>25.2</ele><time>2026-04-09T17:06:56.003Z</time></trkpt><trkpt lat="47.28106122934006" lon="-1.5493583399816875"><ele>25.4</ele><time>2026-04-09T17:06:58.003Z</time></trkpt><trkpt lat="47.281128787479624" lon="-1.5493570826962118"><ele>25.6</ele><time>2026-04-09T17:06:59.003Z</time></trkpt><trkpt lat="47.28119839918546" lon="-1.549392370508564"><ele>25.8</ele><time>2026-04-09T17:07:00.003Z</time></trkpt><trkpt lat="47.28126063481651" lon="-1.5494119841619853"><ele>26.0</ele><time>2026-04-09T17:07:01.003Z</time></trkpt><trkpt lat="47.28138187904589" lon="-1.5494623594000465"><ele>26.200000000000003</ele><time>2026-04-09T17:07:03.003Z</time></trkpt><trkpt lat="47.28149809413336" lon="-1.5495059452965385"><ele>26.400000000000002</ele><time>2026-04-09T17:07:05.003Z</time></trkpt><trkpt lat="47.281626253432854" lon="-1.5495268162354356"><ele>26.6</ele><time>2026-04-09T17:07:07.003Z</time></trkpt><trkpt lat="47.28169104554437" lon="-1.5495330188437826"><ele>26.8</ele><time>2026-04-09T17:07:08.003Z</time></trkpt><trkpt lat="47.28180839218877" lon="-1.549551123754633"><ele>27.0</ele><time>2026-04-09T17:07:10.003Z</time></trkpt><trkpt lat="47.281871298372074" lon="-1.5495689772083885"><ele>27.200000000000003</ele><time>2026-04-09T17:07:11.003Z</time></trkpt><trkpt lat="47.281976616985425" lon="-1.5495795384063846"><ele>27.400000000000002</ele><time>2026-04-09T17:07:13.003Z</time></trkpt><trkpt lat="47.282094089358374" lon="-1.5495871659382707"><ele>27.599999999999998</ele><time>2026-04-09T17:07:15.003Z</time></trkpt><trkpt lat="47.28220217399977" lon="-1.5496211964651472"><ele>27.799999999999997</ele><time>2026-04-09T17:07:17.003Z</time></trkpt><trkpt lat="47.28231105492197" lon="-1.5496526286020404"><ele>28.0</ele><time>2026-04-09T17:07:19.003Z</time></trkpt><trkpt lat="47.282421989410444" lon="-1.549671068789018"><ele>28.2</ele><time>2026-04-09T17:07:21.003Z</time></trkpt><trkpt lat="47.28250752673231" lon="-1.5497041773065456"><ele>28.4</ele><time>2026-04-09T17:07:23.003Z</time></trkpt><trkpt lat="47.28262269408189" lon="-1.5497238747789988"><ele>28.599999999999998</ele><time>2026-04-09T17:07:25.003Z</time></trkpt><trkpt lat="47.28271824777804" lon="-1.5497537143542894"><ele>28.799999999999997</ele><time>2026-04-09T17:07:27.003Z</time></trkpt><trkpt lat="47.28278303988956" lon="-1.5498054306968578"><ele>29.0</ele><time>2026-04-09T17:07:29.003Z</time></trkpt><trkpt lat="47.28284678426318" lon="-1.5498734917506107"><ele>29.0</ele><time>2026-04-09T17:07:31.003Z</time></trkpt><trkpt lat="47.28292356249623" lon="-1.5499143116190564"><ele>29.0</ele><time>2026-04-09T17:07:33.003Z</time></trkpt><trkpt lat="47.28301199157469" lon="-1.5498604998006948"><ele>29.0</ele><time>2026-04-09T17:07:35.003Z</time></trkpt><trkpt lat="47.283111191398724" lon="-1.5497838053866753"><ele>29.0</ele><time>2026-04-09T17:07:37.003Z</time></trkpt><trkpt lat="47.283221455334946" lon="-1.5497670415803322"><ele>29.0</ele><time>2026-04-09T17:07:39.003Z</time></trkpt><trkpt lat="47.28333130017601" lon="-1.5497876610621342"><ele>29.0</ele><time>2026-04-09T17:07:41.003Z</time></trkpt><trkpt lat="47.28344139647417" lon="-1.5498043410494455"><ele>29.0</ele><time>2026-04-09T17:07:43.003Z</time></trkpt><trkpt lat="47.28357978169553" lon="-1.5498061850681433"><ele>29.0</ele><time>2026-04-09T17:07:45.003Z</time></trkpt><trkpt lat="47.283670180521234" lon="-1.5498143155142197"><ele>29.0</ele><time>2026-04-09T17:07:47.003Z</time></trkpt><trkpt lat="47.2837350983613" lon="-1.5497989766314157"><ele>29.0</ele><time>2026-04-09T17:07:48.003Z</time></trkpt><trkpt lat="47.28385726460002" lon="-1.549811298029078"><ele>29.0</ele><time>2026-04-09T17:07:50.003Z</time></trkpt><trkpt lat="47.28392691821538" lon="-1.549825128169311"><ele>29.0</ele><time>2026-04-09T17:07:51.003Z</time></trkpt><trkpt lat="47.28405428123407" lon="-1.5498208533986935"><ele>29.0</ele><time>2026-04-09T17:07:53.003Z</time></trkpt><trkpt lat="47.28412007917397" lon="-1.5498226135983595"><ele>29.0</ele><time>2026-04-09T17:07:54.003Z</time></trkpt><trkpt lat="47.28423801255159" lon="-1.5498262178167233"><ele>29.0</ele><time>2026-04-09T17:07:56.003Z</time></trkpt><trkpt lat="47.28434525900267" lon="-1.5498397126808294"><ele>28.799999999999997</ele><time>2026-04-09T17:07:58.003Z</time></trkpt><trkpt lat="47.284435154914185" lon="-1.5498620923622974"><ele>28.599999999999998</ele><time>2026-04-09T17:08:00.003Z</time></trkpt><trkpt lat="47.28453665976159" lon="-1.549867205323232"><ele>28.4</ele><time>2026-04-09T17:08:02.003Z</time></trkpt><trkpt lat="47.28465262339197" lon="-1.549858069048775"><ele>28.2</ele><time>2026-04-09T17:08:04.003Z</time></trkpt><trkpt lat="47.284723408564254" lon="-1.5498636011048683"><ele>28.0</ele><time>2026-04-09T17:08:05.003Z</time></trkpt><trkpt lat="47.28484679017894" lon="-1.5498281456544527"><ele>27.799999999999997</ele><time>2026-04-09T17:08:07.003Z</time></trkpt><trkpt lat="47.28491631806575" lon="-1.5497978869840034"><ele>27.599999999999998</ele><time>2026-04-09T17:08:08.003Z</time></trkpt><trkpt lat="47.28503601164304" lon="-1.5498190093799957"><ele>27.400000000000002</ele><time>2026-04-09T17:08:10.003Z</time></trkpt><trkpt lat="47.285130685239366" lon="-1.549896374346269"><ele>27.200000000000003</ele><time>2026-04-09T17:08:12.003Z</time></trkpt><trkpt lat="47.285181186205975" lon="-1.5499958675369154"><ele>27.0</ele><time>2026-04-09T17:08:14.003Z</time></trkpt><trkpt lat="47.285228543958894" lon="-1.5500903315856587"><ele>27.0</ele><time>2026-04-09T17:08:18.003Z</time></trkpt><trkpt lat="47.28528000884437" lon="-1.5501617454006804"><ele>27.0</ele><time>2026-04-09T17:08:20.003Z</time></trkpt><trkpt lat="47.285343166484765" lon="-1.5502272918834819"><ele>27.0</ele><time>2026-04-09T17:08:22.003Z</time></trkpt><trkpt lat="47.28540758141064" lon="-1.5503183193519248"><ele>27.0</ele><time>2026-04-09T17:08:24.003Z</time></trkpt><trkpt lat="47.28545833383434" lon="-1.55041873455192"><ele>27.0</ele><time>2026-04-09T17:08:26.003Z</time></trkpt><trkpt lat="47.28552844845437" lon="-1.5504498314126864"><ele>27.0</ele><time>2026-04-09T17:08:28.003Z</time></trkpt><trkpt lat="47.28560292166405" lon="-1.5504220873131886"><ele>26.8</ele><time>2026-04-09T17:08:30.003Z</time></trkpt><trkpt lat="47.285651746250025" lon="-1.5503143798574341"><ele>26.6</ele><time>2026-04-09T17:08:32.003Z</time></trkpt><trkpt lat="47.28572081313216" lon="-1.5501865558340682"><ele>26.400000000000002</ele><time>2026-04-09T17:08:34.004Z</time></trkpt><trkpt lat="47.28574222889476" lon="-1.5500975400223862"><ele>26.200000000000003</ele><time>2026-04-09T17:08:36.004Z</time></trkpt><trkpt lat="47.28582407817923" lon="-1.5499781817212235"><ele>26.0</ele><time>2026-04-09T17:08:38.004Z</time></trkpt><trkpt lat="47.28589067239993" lon="-1.549871647731913"><ele>26.0</ele><time>2026-04-09T17:08:40.004Z</time></trkpt><trkpt lat="47.285948591350845" lon="-1.5498194284751543"><ele>26.0</ele><time>2026-04-09T17:08:41.004Z</time></trkpt><trkpt lat="47.286073439798585" lon="-1.5497715678080448"><ele>26.0</ele><time>2026-04-09T17:08:43.004Z</time></trkpt><trkpt lat="47.28619510312312" lon="-1.549720270560635"><ele>26.0</ele><time>2026-04-09T17:08:45.004Z</time></trkpt><trkpt lat="47.28627385110342" lon="-1.5497354418053755"><ele>26.0</ele><time>2026-04-09T17:08:47.004Z</time></trkpt><trkpt lat="47.286337008743814" lon="-1.5497104637339243"><ele>26.0</ele><time>2026-04-09T17:08:48.004Z</time></trkpt><trkpt lat="47.286408841653994" lon="-1.5496952924891838"><ele>26.0</ele><time>2026-04-09T17:08:49.004Z</time></trkpt><trkpt lat="47.286553932397894" lon="-1.5496554784491188"><ele>26.0</ele><time>2026-04-09T17:08:51.004Z</time></trkpt><trkpt lat="47.28662295737051" lon="-1.5496412292137272"><ele>26.0</ele><time>2026-04-09T17:08:52.004Z</time></trkpt><trkpt lat="47.28668800093912" lon="-1.5496358647956974"><ele>26.0</ele><time>2026-04-09T17:08:53.004Z</time></trkpt><trkpt lat="47.28678380609237" lon="-1.5496491082027084"><ele>26.0</ele><time>2026-04-09T17:08:54.004Z</time></trkpt><trkpt lat="47.28686582301491" lon="-1.549637122081173"><ele>26.0</ele><time>2026-04-09T17:08:55.004Z</time></trkpt><trkpt lat="47.286961209073" lon="-1.5496372059002048"><ele>26.0</ele><time>2026-04-09T17:08:57.004Z</time></trkpt><trkpt lat="47.28706967090004" lon="-1.549635361881507"><ele>26.0</ele><time>2026-04-09T17:08:59.004Z</time></trkpt><trkpt lat="47.287154286212555" lon="-1.5495772752925283"><ele>26.0</ele><time>2026-04-09T17:09:01.004Z</time></trkpt><trkpt lat="47.2872709623047" lon="-1.5495641995235807"><ele>25.999999999999996</ele><time>2026-04-09T17:09:03.004Z</time></trkpt><trkpt lat="47.2873417893865" lon="-1.5495503693833477"><ele>26.0</ele><time>2026-04-09T17:09:04.004Z</time></trkpt><trkpt lat="47.28743482851171" lon="-1.549588842318905"><ele>26.0</ele><time>2026-04-09T17:09:06.004Z</time></trkpt><trkpt lat="47.28749593258583" lon="-1.5495645347997076"><ele>26.0</ele><time>2026-04-09T17:09:07.004Z</time></trkpt><trkpt lat="47.28757128589534" lon="-1.549572665245784"><ele>25.999999999999996</ele><time>2026-04-09T17:09:09.004Z</time></trkpt><trkpt lat="47.28765015960418" lon="-1.549547351898206"><ele>26.0</ele><time>2026-04-09T17:09:10.004Z</time></trkpt><trkpt lat="47.287755562036565" lon="-1.5495525486781723"><ele>26.0</ele><time>2026-04-09T17:09:12.004Z</time></trkpt><trkpt lat="47.287827311127714" lon="-1.5495432447656519"><ele>26.0</ele><time>2026-04-09T17:09:13.004Z</time></trkpt><trkpt lat="47.28794428058647" lon="-1.5495659597232467"><ele>26.0</ele><time>2026-04-09T17:09:15.004Z</time></trkpt><trkpt lat="47.288028937808505" lon="-1.5495097171529657"><ele>26.0</ele><time>2026-04-09T17:09:16.004Z</time></trkpt><trkpt lat="47.28813773491167" lon="-1.5494764409973747"><ele>26.0</ele><time>2026-04-09T17:09:18.004Z</time></trkpt><trkpt lat="47.2882207995721" lon="-1.5494129061713342"><ele>26.0</ele><time>2026-04-09T17:09:20.004Z</time></trkpt><trkpt lat="47.28830168493771" lon="-1.5494012553259258"><ele>26.0</ele><time>2026-04-09T17:09:21.004Z</time></trkpt><trkpt lat="47.288396107076935" lon="-1.5494051110013847"><ele>26.0</ele><time>2026-04-09T17:09:22.004Z</time></trkpt><trkpt lat="47.28846299466424" lon="-1.549403853715909"><ele>26.0</ele><time>2026-04-09T17:09:23.004Z</time></trkpt><trkpt lat="47.28857845538043" lon="-1.5493262372925405"><ele>26.0</ele><time>2026-04-09T17:09:25.004Z</time></trkpt><trkpt lat="47.28866457943552" lon="-1.5493324399008874"><ele>26.0</ele><time>2026-04-09T17:09:27.004Z</time></trkpt><trkpt lat="47.28878519502216" lon="-1.5493191964938764"><ele>26.0</ele><time>2026-04-09T17:09:29.004Z</time></trkpt><trkpt lat="47.28888271846556" lon="-1.5493348706528072"><ele>26.0</ele><time>2026-04-09T17:09:31.004Z</time></trkpt><trkpt lat="47.289014481983415" lon="-1.5493261534735088"><ele>26.0</ele><time>2026-04-09T17:09:33.004Z</time></trkpt><trkpt lat="47.28913136762314" lon="-1.5493214596077327"><ele>26.285714285714285</ele><time>2026-04-09T17:09:35.004Z</time></trkpt><trkpt lat="47.28919766847723" lon="-1.5493187773987178"><ele>26.571428571428573</ele><time>2026-04-09T17:09:36.004Z</time></trkpt><trkpt lat="47.289265687621466" lon="-1.5493010077639942"><ele>26.857142857142858</ele><time>2026-04-09T17:09:37.004Z</time></trkpt><trkpt lat="47.28933538314634" lon="-1.549304863439453"><ele>27.142857142857142</ele><time>2026-04-09T17:09:38.004Z</time></trkpt><trkpt lat="47.28940193545752" lon="-1.5493164304658298"><ele>27.42857142857143</ele><time>2026-04-09T17:09:39.004Z</time></trkpt><trkpt lat="47.28948022243314" lon="-1.5493160113706712"><ele>27.714285714285715</ele><time>2026-04-09T17:09:40.004Z</time></trkpt><trkpt lat="47.28954530791127" lon="-1.549317268656147"><ele>28.0</ele><time>2026-04-09T17:09:41.004Z</time></trkpt><trkpt lat="47.28960951328956" lon="-1.5493313502534751"><ele>28.0</ele><time>2026-04-09T17:09:42.004Z</time></trkpt><trkpt lat="47.28972832676702" lon="-1.5493788756444578"><ele>27.999999999999996</ele><time>2026-04-09T17:09:44.004Z</time></trkpt><trkpt lat="47.289793537973694" lon="-1.5494006685927038"><ele>27.999999999999996</ele><time>2026-04-09T17:09:45.004Z</time></trkpt><trkpt lat="47.28986884937369" lon="-1.5493971481933717"><ele>28.0</ele><time>2026-04-09T17:09:46.004Z</time></trkpt><trkpt lat="47.2899338929423" lon="-1.5493668057038907"><ele>28.0</ele><time>2026-04-09T17:09:47.004Z</time></trkpt><trkpt lat="47.290067207112244" lon="-1.5493549034013872"><ele>28.0</ele><time>2026-04-09T17:09:49.004Z</time></trkpt><trkpt lat="47.290136902637116" lon="-1.5493641234948758"><ele>27.999999999999996</ele><time>2026-04-09T17:09:50.004Z</time></trkpt><trkpt lat="47.29022922930055" lon="-1.5494158398374442"><ele>27.999999999999996</ele><time>2026-04-09T17:09:52.004Z</time></trkpt><trkpt lat="47.290302445224754" lon="-1.5493560768678312"><ele>28.0</ele><time>2026-04-09T17:09:54.004Z</time></trkpt><trkpt lat="47.29036774025046" lon="-1.5492773707970504"><ele>28.0</ele><time>2026-04-09T17:09:56.004Z</time></trkpt><trkpt lat="47.29060821705245" lon="-1.5492580924197559"><ele>28.0</ele><time>2026-04-09T17:10:01.004Z</time></trkpt><trkpt lat="47.29072237857365" lon="-1.54922800138737"><ele>27.999999999999996</ele><time>2026-04-09T17:10:03.004Z</time></trkpt><trkpt lat="47.29082212322139" lon="-1.5491898637279395"><ele>27.999999999999996</ele><time>2026-04-09T17:10:04.004Z</time></trkpt><trkpt lat="47.2909009131112" lon="-1.549195647241128"><ele>28.0</ele><time>2026-04-09T17:10:06.004Z</time></trkpt><trkpt lat="47.29097186592155" lon="-1.5491835773005607"><ele>28.0</ele><time>2026-04-09T17:10:07.004Z</time></trkpt><trkpt lat="47.291092188141576" lon="-1.5491674002274396"><ele>28.0</ele><time>2026-04-09T17:10:09.004Z</time></trkpt><trkpt lat="47.29116184175693" lon="-1.5491565875723483"><ele>27.999999999999996</ele><time>2026-04-09T17:10:10.004Z</time></trkpt><trkpt lat="47.291268962479464" lon="-1.5491289272918822"><ele>27.999999999999996</ele><time>2026-04-09T17:10:12.004Z</time></trkpt><trkpt lat="47.29136418089949" lon="-1.5491343755289437"><ele>28.0</ele><time>2026-04-09T17:10:14.004Z</time></trkpt><trkpt lat="47.29144385088914" lon="-1.5491032786681773"><ele>28.0</ele><time>2026-04-09T17:10:16.004Z</time></trkpt><trkpt lat="47.29158889972352" lon="-1.5491197910174253"><ele>27.833333333333336</ele><time>2026-04-09T17:10:19.004Z</time></trkpt><trkpt lat="47.29165700268679" lon="-1.5491277538254382"><ele>27.666666666666668</ele><time>2026-04-09T17:10:20.004Z</time></trkpt><trkpt lat="47.29172791358762" lon="-1.5491262450828673"><ele>27.5</ele><time>2026-04-09T17:10:21.004Z</time></trkpt><trkpt lat="47.29184182365172" lon="-1.5491121634855392"><ele>27.333333333333336</ele><time>2026-04-09T17:10:23.004Z</time></trkpt><trkpt lat="47.29191378229045" lon="-1.5491704177125813"><ele>27.166666666666668</ele><time>2026-04-09T17:10:25.004Z</time></trkpt><trkpt lat="47.291982430077425" lon="-1.5491896960898761"><ele>27.0</ele><time>2026-04-09T17:10:27.004Z</time></trkpt><trkpt lat="47.29207404427909" lon="-1.5491868462427976"><ele>27.0</ele><time>2026-04-09T17:10:29.007Z</time></trkpt><trkpt lat="47.29217948862099" lon="-1.5491394046708467"><ele>27.000000000000004</ele><time>2026-04-09T17:10:31.006Z</time></trkpt><trkpt lat="47.29225936815821" lon="-1.5491764526828649"><ele>27.000000000000004</ele><time>2026-04-09T17:10:33.006Z</time></trkpt><trkpt lat="47.29234268427574" lon="-1.5492272470160846"><ele>27.0</ele><time>2026-04-09T17:10:35.005Z</time></trkpt><trkpt lat="47.29244071063333" lon="-1.5492492914214258"><ele>27.0</ele><time>2026-04-09T17:10:37.004Z</time></trkpt><trkpt lat="47.29252909780227" lon="-1.5492423344417934"><ele>27.400000000000002</ele><time>2026-04-09T17:10:39.004Z</time></trkpt><trkpt lat="47.29263747581028" lon="-1.5492394007756833"><ele>27.800000000000004</ele><time>2026-04-09T17:10:42.003Z</time></trkpt><trkpt lat="47.29272213303231" lon="-1.549250129611743"><ele>28.2</ele><time>2026-04-09T17:10:44.003Z</time></trkpt><trkpt lat="47.29281856682831" lon="-1.5492564998581533"><ele>28.6</ele><time>2026-04-09T17:10:47.002Z</time></trkpt><trkpt lat="47.29293654211545" lon="-1.5492592658861999"><ele>29.0</ele><time>2026-04-09T17:10:50.002Z</time></trkpt><trkpt lat="47.29301767893815" lon="-1.5492755267783527"><ele>29.4</ele><time>2026-04-09T17:10:52.001Z</time></trkpt><trkpt lat="47.29310418017888" lon="-1.5492726769312744"><ele>29.799999999999997</ele><time>2026-04-09T17:10:54.001Z</time></trkpt><trkpt lat="47.29319776412779" lon="-1.5492668095990543"><ele>30.200000000000003</ele><time>2026-04-09T17:10:56.001Z</time></trkpt><trkpt lat="47.29328636084431" lon="-1.5492467768504743"><ele>30.6</ele><time>2026-04-09T17:10:57.001Z</time></trkpt><trkpt lat="47.293363935358165" lon="-1.549168741331947"><ele>31.0</ele><time>2026-04-09T17:10:59.001Z</time></trkpt><trkpt lat="47.29343216404998" lon="-1.5490881912424685"><ele>31.0</ele><time>2026-04-09T17:11:01.001Z</time></trkpt><trkpt lat="47.293530777140795" lon="-1.5490296017392995"><ele>31.0</ele><time>2026-04-09T17:11:03Z</time></trkpt><trkpt lat="47.29363865223461" lon="-1.5490125864758613"><ele>31.0</ele><time>2026-04-09T17:11:05Z</time></trkpt><trkpt lat="47.29373345155948" lon="-1.5490057971342923"><ele>31.0</ele><time>2026-04-09T17:11:07Z</time></trkpt><trkpt lat="47.293828837617575" lon="-1.548989703880203"><ele>31.0</ele><time>2026-04-09T17:11:09Z</time></trkpt><trkpt lat="47.293925774327754" lon="-1.548977298663509"><ele>31.4</ele><time>2026-04-09T17:11:11Z</time></trkpt><trkpt lat="47.29399186563426" lon="-1.5489687491222741"><ele>31.8</ele><time>2026-04-09T17:11:12Z</time></trkpt><trkpt lat="47.29410317730838" lon="-1.5489734429880502"><ele>32.199999999999996</ele><time>2026-04-09T17:11:14Z</time></trkpt><trkpt lat="47.29420690336013" lon="-1.5489833336337926"><ele>32.6</ele><time>2026-04-09T17:11:16Z</time></trkpt><trkpt lat="47.29427010291004" lon="-1.5489877760424735"><ele>33.0</ele><time>2026-04-09T17:11:17Z</time></trkpt><trkpt lat="47.29437554725194" lon="-1.5489944815650107"><ele>33.0</ele><time>2026-04-09T17:11:19Z</time></trkpt><trkpt lat="47.2944925167107" lon="-1.5489814057960631"><ele>33.0</ele><time>2026-04-09T17:11:21Z</time></trkpt><trkpt lat="47.29461866435343" lon="-1.5489800646915557"><ele>33.0</ele><time>2026-04-09T17:11:23Z</time></trkpt><trkpt lat="47.29469477203423" lon="-1.5489791426822068"><ele>33.0</ele><time>2026-04-09T17:11:24Z</time></trkpt><trkpt lat="47.29476048615509" lon="-1.548973191530955"><ele>33.0</ele><time>2026-04-09T17:11:25Z</time></trkpt><trkpt lat="47.294831564693986" lon="-1.5489748679115893"><ele>32.857142857142854</ele><time>2026-04-09T17:11:26Z</time></trkpt><trkpt lat="47.294898955195485" lon="-1.5489718504264476"><ele>32.714285714285715</ele><time>2026-04-09T17:11:27Z</time></trkpt><trkpt lat="47.29496546559715" lon="-1.5489748679115893"><ele>32.57142857142857</ele><time>2026-04-09T17:11:28Z</time></trkpt><trkpt lat="47.29503222745591" lon="-1.5489716827883842"><ele>32.42857142857143</ele><time>2026-04-09T17:11:29Z</time></trkpt><trkpt lat="47.295099576047896" lon="-1.5489674080177667"><ele>32.285714285714285</ele><time>2026-04-09T17:11:30Z</time></trkpt><trkpt lat="47.29517417498612" lon="-1.5489524044110896"><ele>32.14285714285714</ele><time>2026-04-09T17:11:31Z</time></trkpt><trkpt lat="47.29524651081049" lon="-1.5489488840117573"><ele>32.0</ele><time>2026-04-09T17:11:32Z</time></trkpt><trkpt lat="47.29531888854438" lon="-1.548952572049153"><ele>31.999999999999996</ele><time>2026-04-09T17:11:32.999Z</time></trkpt><trkpt lat="47.2953834291988" lon="-1.5489524882301213"><ele>32.0</ele><time>2026-04-09T17:11:33.999Z</time></trkpt><trkpt lat="47.29545630984688" lon="-1.5489498898401381"><ele>32.0</ele><time>2026-04-09T17:11:34.999Z</time></trkpt><trkpt lat="47.29552449662918" lon="-1.5489607024952294"><ele>32.0</ele><time>2026-04-09T17:11:35.999Z</time></trkpt><trkpt lat="47.295631952627836" lon="-1.5489653125419738"><ele>31.999999999999996</ele><time>2026-04-09T17:11:37.999Z</time></trkpt><trkpt lat="47.295758016451536" lon="-1.5489576850100877"><ele>32.0</ele><time>2026-04-09T17:11:39.999Z</time></trkpt><trkpt lat="47.29582155127758" lon="-1.5489514824017407"><ele>31.833333333333332</ele><time>2026-04-09T17:11:40.999Z</time></trkpt><trkpt lat="47.29588617575103" lon="-1.5489451959743619"><ele>31.666666666666664</ele><time>2026-04-09T17:11:41.999Z</time></trkpt><trkpt lat="47.29596165478909" lon="-1.5488879475757003"><ele>31.5</ele><time>2026-04-09T17:11:42.999Z</time></trkpt><trkpt lat="47.296019867106615" lon="-1.5488404221847176"><ele>31.333333333333336</ele><time>2026-04-09T17:11:43.999Z</time></trkpt><trkpt lat="47.29611747436905" lon="-1.5488001052304625"><ele>31.166666666666668</ele><time>2026-04-09T17:11:45.999Z</time></trkpt><trkpt lat="47.29622652292931" lon="-1.5487810783102631"><ele>31.0</ele><time>2026-04-09T17:11:47.999Z</time></trkpt><trkpt lat="47.29634143882179" lon="-1.548750484363687"><ele>31.000000000000004</ele><time>2026-04-09T17:11:49.999Z</time></trkpt><trkpt lat="47.29640811686152" lon="-1.5487405937179446"><ele>31.0</ele><time>2026-04-09T17:11:50.999Z</time></trkpt><trkpt lat="47.296517249240814" lon="-1.5487163700177788"><ele>31.0</ele><time>2026-04-09T17:11:52.999Z</time></trkpt><trkpt lat="47.2965853941136" lon="-1.548693571241152"><ele>31.0</ele><time>2026-04-09T17:11:53.999Z</time></trkpt><trkpt lat="47.296662633351325" lon="-1.5486758016064284"><ele>31.000000000000004</ele><time>2026-04-09T17:11:54.999Z</time></trkpt><trkpt lat="47.29677893225783" lon="-1.5486547630294678"><ele>31.0</ele><time>2026-04-09T17:11:56.999Z</time></trkpt><trkpt lat="47.29689841628754" lon="-1.5486173797413227"><ele>30.0</ele><time>2026-04-09T17:11:58.999Z</time></trkpt><trkpt lat="47.29700310625815" lon="-1.5485939104124424"><ele>29.0</ele><time>2026-04-09T17:12:00.999Z</time></trkpt><trkpt lat="47.29709589392626" lon="-1.5486038010581848"><ele>28.0</ele><time>2026-04-09T17:12:02.999Z</time></trkpt><trkpt lat="47.29720733132893" lon="-1.5485547669246313"><ele>27.0</ele><time>2026-04-09T17:12:04.999Z</time></trkpt><trkpt lat="47.29729928080672" lon="-1.5485177189126131"><ele>26.0</ele><time>2026-04-09T17:12:06.999Z</time></trkpt><trkpt lat="47.29737677150154" lon="-1.548477737234485"><ele>25.999999999999996</ele><time>2026-04-09T17:12:08.999Z</time></trkpt><trkpt lat="47.29747249283576" lon="-1.5484347380712147"><ele>26.0</ele><time>2026-04-09T17:12:09.999Z</time></trkpt><trkpt lat="47.29756628633225" lon="-1.5484141185894127"><ele>26.0</ele><time>2026-04-09T17:12:10.999Z</time></trkpt><trkpt lat="47.29763191663408" lon="-1.5483758132919188"><ele>26.0</ele><time>2026-04-09T17:12:11.999Z</time></trkpt><trkpt lat="47.297698343216716" lon="-1.5484261885299797"><ele>25.999999999999996</ele><time>2026-04-09T17:12:12.999Z</time></trkpt><trkpt lat="47.29776183613324" lon="-1.5484401024892445"><ele>26.0</ele><time>2026-04-09T17:12:13.999Z</time></trkpt><trkpt lat="47.29782931045377" lon="-1.5484503284111137"><ele>25.999999999999996</ele><time>2026-04-09T17:12:14.999Z</time></trkpt><trkpt lat="47.2979028616541" lon="-1.5484551060959215"><ele>26.0</ele><time>2026-04-09T17:12:15.999Z</time></trkpt><trkpt lat="47.297965851656436" lon="-1.5485004521920798"><ele>26.0</ele><time>2026-04-09T17:12:16.999Z</time></trkpt><trkpt lat="47.298102853863774" lon="-1.548431972043168"><ele>26.0</ele><time>2026-04-09T17:12:18.999Z</time></trkpt><trkpt lat="47.298174770592986" lon="-1.548411687837493"><ele>25.999999999999996</ele><time>2026-04-09T17:12:19.999Z</time></trkpt><trkpt lat="47.2982509201833" lon="-1.5484083350762243"><ele>26.0</ele><time>2026-04-09T17:12:20.999Z</time></trkpt><trkpt lat="47.29836491406643" lon="-1.5484100114568586"><ele>25.6</ele><time>2026-04-09T17:12:22.999Z</time></trkpt><trkpt lat="47.29843548969114" lon="-1.5483709517880793"><ele>25.200000000000003</ele><time>2026-04-09T17:12:23.999Z</time></trkpt><trkpt lat="47.29850749023938" lon="-1.5483476500972624"><ele>24.799999999999997</ele><time>2026-04-09T17:12:24.999Z</time></trkpt><trkpt lat="47.29861331176692" lon="-1.548300962896597"><ele>24.4</ele><time>2026-04-09T17:12:26.999Z</time></trkpt><trkpt lat="47.298731957606314" lon="-1.5482765715583677"><ele>24.0</ele><time>2026-04-09T17:12:28.999Z</time></trkpt><trkpt lat="47.29885026816958" lon="-1.5482433792218084"><ele>24.4</ele><time>2026-04-09T17:12:30.999Z</time></trkpt><trkpt lat="47.29895730507308" lon="-1.5481933392598741"><ele>24.799999999999997</ele><time>2026-04-09T17:12:32.999Z</time></trkpt><trkpt lat="47.29904585988009" lon="-1.5481663495316618"><ele>25.200000000000003</ele><time>2026-04-09T17:12:34.999Z</time></trkpt><trkpt lat="47.29912129700863" lon="-1.5481570456191414"><ele>25.6</ele><time>2026-04-09T17:12:36.999Z</time></trkpt><trkpt lat="47.29921902999961" lon="-1.5481112804278248"><ele>26.0</ele><time>2026-04-09T17:12:38.999Z</time></trkpt><trkpt lat="47.29930951264435" lon="-1.5480518527343385"><ele>26.0</ele><time>2026-04-09T17:12:40.999Z</time></trkpt><trkpt lat="47.29941918984735" lon="-1.548037603498947"><ele>26.0</ele><time>2026-04-09T17:12:42.999Z</time></trkpt><trkpt lat="47.29951801248574" lon="-1.5480056684478634"><ele>26.0</ele><time>2026-04-09T17:12:44.999Z</time></trkpt><trkpt lat="47.299610339149176" lon="-1.5479754935964456"><ele>26.0</ele><time>2026-04-09T17:12:46.999Z</time></trkpt><trkpt lat="47.29967412543231" lon="-1.5479519404485336"><ele>26.0</ele><time>2026-04-09T17:12:47.999Z</time></trkpt><trkpt lat="47.299769301942824" lon="-1.5479340031757465"><ele>26.0</ele><time>2026-04-09T17:12:49.999Z</time></trkpt><trkpt lat="47.29983225003564" lon="-1.547897625715982"><ele>26.0</ele><time>2026-04-09T17:12:50.999Z</time></trkpt><trkpt lat="47.29995571546936" lon="-1.5478440653547159"><ele>26.0</ele><time>2026-04-09T17:12:52.999Z</time></trkpt><trkpt lat="47.30006040543997" lon="-1.5478095319136491"><ele>26.0</ele><time>2026-04-09T17:12:54.999Z</time></trkpt><trkpt lat="47.30012771212244" lon="-1.547808693723332"><ele>26.0</ele><time>2026-04-09T17:12:55.999Z</time></trkpt><trkpt lat="47.300215889743804" lon="-1.5477784350528827"><ele>26.0</ele><time>2026-04-09T17:12:56.999Z</time></trkpt><trkpt lat="47.30033285920256" lon="-1.5477508585914481"><ele>26.0</ele><time>2026-04-09T17:12:58.999Z</time></trkpt><trkpt lat="47.30045024775649" lon="-1.5477086976184953"><ele>26.0</ele><time>2026-04-09T17:13:00.999Z</time></trkpt><trkpt lat="47.30056512173945" lon="-1.5476632677033055"><ele>26.0</ele><time>2026-04-09T17:13:02.999Z</time></trkpt><trkpt lat="47.30066490829671" lon="-1.5476236213013042"><ele>25.6</ele><time>2026-04-09T17:13:04.999Z</time></trkpt><trkpt lat="47.30077965655113" lon="-1.5475894231363643"><ele>25.200000000000003</ele><time>2026-04-09T17:13:06.999Z</time></trkpt><trkpt lat="47.30091720358217" lon="-1.547514656560074"><ele>24.799999999999997</ele><time>2026-04-09T17:13:08.999Z</time></trkpt><trkpt lat="47.30097994212741" lon="-1.5474904328599082"><ele>24.4</ele><time>2026-04-09T17:13:09.999Z</time></trkpt><trkpt lat="47.3010443989628" lon="-1.5474567376091586"><ele>24.0</ele><time>2026-04-09T17:13:10.999Z</time></trkpt><trkpt lat="47.30112373367632" lon="-1.5474179293974744"><ele>24.0</ele><time>2026-04-09T17:13:11.999Z</time></trkpt><trkpt lat="47.30118756186897" lon="-1.5473886765554057"><ele>24.0</ele><time>2026-04-09T17:13:12.999Z</time></trkpt><trkpt lat="47.30124824684793" lon="-1.5473627764746056"><ele>24.0</ele><time>2026-04-09T17:13:13.999Z</time></trkpt><trkpt lat="47.301337681754774" lon="-1.5473047737046586"><ele>24.0</ele><time>2026-04-09T17:13:15.999Z</time></trkpt><trkpt lat="47.30142510500485" lon="-1.5472673904165133"><ele>24.0</ele><time>2026-04-09T17:13:17.999Z</time></trkpt><trkpt lat="47.30149228595877" lon="-1.5472266543670996"><ele>24.0</ele><time>2026-04-09T17:13:18.999Z</time></trkpt><trkpt lat="47.301622666462606" lon="-1.547196228058587"><ele>23.799999999999997</ele><time>2026-04-09T17:13:20.999Z</time></trkpt><trkpt lat="47.30169747494841" lon="-1.5471495408579214"><ele>23.599999999999998</ele><time>2026-04-09T17:13:21.999Z</time></trkpt><trkpt lat="47.301752376414186" lon="-1.547096651048909"><ele>23.4</ele><time>2026-04-09T17:13:22.999Z</time></trkpt><trkpt lat="47.301876512400156" lon="-1.5470266621574265"><ele>23.2</ele><time>2026-04-09T17:13:24.999Z</time></trkpt><trkpt lat="47.30199821763421" lon="-1.546963211150418"><ele>23.0</ele><time>2026-04-09T17:13:26.999Z</time></trkpt><trkpt lat="47.30211392980749" lon="-1.5469350479557615"><ele>22.799999999999997</ele><time>2026-04-09T17:13:28.999Z</time></trkpt><trkpt lat="47.302176919809824" lon="-1.5468995086863142"><ele>22.6</ele><time>2026-04-09T17:13:29.999Z</time></trkpt><trkpt lat="47.30224250820214" lon="-1.5468763746335608"><ele>22.4</ele><time>2026-04-09T17:13:30.999Z</time></trkpt><trkpt lat="47.30232804552401" lon="-1.5468167793020111"><ele>22.200000000000003</ele><time>2026-04-09T17:13:31.999Z</time></trkpt><trkpt lat="47.30243223258043" lon="-1.5467250812813143"><ele>22.0</ele><time>2026-04-09T17:13:33.999Z</time></trkpt><trkpt lat="47.30257983789528" lon="-1.5466756280526022"><ele>21.8</ele><time>2026-04-09T17:13:35.999Z</time></trkpt><trkpt lat="47.302663447379416" lon="-1.5466843452319006"><ele>21.6</ele><time>2026-04-09T17:13:36.999Z</time></trkpt><trkpt lat="47.302787080451196" lon="-1.5466652344926695"><ele>21.400000000000002</ele><time>2026-04-09T17:13:37.999Z</time></trkpt><trkpt lat="47.30288728610361" lon="-1.5466844290509323"><ele>21.200000000000003</ele><time>2026-04-09T17:13:39.999Z</time></trkpt><trkpt lat="47.30299273044551" lon="-1.5467200521394113"><ele>21.0</ele><time>2026-04-09T17:13:41.999Z</time></trkpt><trkpt lat="47.30308497328991" lon="-1.5467426832779745"><ele>21.166666666666668</ele><time>2026-04-09T17:13:43.999Z</time></trkpt><trkpt lat="47.3031478375637" lon="-1.5468073077514273"><ele>21.333333333333332</ele><time>2026-04-09T17:13:45.999Z</time></trkpt><trkpt lat="47.30310462885285" lon="-1.5469318628325563"><ele>21.5</ele><time>2026-04-09T17:13:47.998Z</time></trkpt><trkpt lat="47.30305073321546" lon="-1.5470585133894785"><ele>21.666666666666664</ele><time>2026-04-09T17:13:49.998Z</time></trkpt><trkpt lat="47.30300161526287" lon="-1.5471986588105067"><ele>21.833333333333332</ele><time>2026-04-09T17:13:51.998Z</time></trkpt><trkpt lat="47.302953922233826" lon="-1.5472694020732745"><ele>22.0</ele><time>2026-04-09T17:13:52.998Z</time></trkpt><trkpt lat="47.30288267605687" lon="-1.5473796240999804"><ele>22.0</ele><time>2026-04-09T17:13:54.998Z</time></trkpt><trkpt lat="47.30282207489694" lon="-1.5474453382208453"><ele>22.0</ele><time>2026-04-09T17:13:55.998Z</time></trkpt><trkpt lat="47.30277375322515" lon="-1.547511974351059"><ele>22.0</ele><time>2026-04-09T17:13:56.998Z</time></trkpt><trkpt lat="47.30272643738175" lon="-1.5475734975203383"><ele>22.0</ele><time>2026-04-09T17:13:57.998Z</time></trkpt><trkpt lat="47.30264840186322" lon="-1.5476877428605664"><ele>22.0</ele><time>2026-04-09T17:13:59.998Z</time></trkpt><trkpt lat="47.30259848762984" lon="-1.5477543789907802"><ele>22.0</ele><time>2026-04-09T17:14:00.998Z</time></trkpt><trkpt lat="47.302525355524665" lon="-1.5478359349086395"><ele>22.0</ele><time>2026-04-09T17:14:02.998Z</time></trkpt><trkpt lat="47.30244526643986" lon="-1.5479251183583846"><ele>22.0</ele><time>2026-04-09T17:14:04.998Z</time></trkpt><trkpt lat="47.3023534007811" lon="-1.5480200015022867"><ele>22.0</ele><time>2026-04-09T17:14:06.998Z</time></trkpt><trkpt lat="47.302259313918" lon="-1.5481180697693937"><ele>22.0</ele><time>2026-04-09T17:14:08.998Z</time></trkpt><trkpt lat="47.30218852874572" lon="-1.5481980331256502"><ele>22.0</ele><time>2026-04-09T17:14:10.998Z</time></trkpt><trkpt lat="47.302094441882616" lon="-1.5482958499356623"><ele>22.6</ele><time>2026-04-09T17:14:12.998Z</time></trkpt><trkpt lat="47.3020029534095" lon="-1.5483940858408327"><ele>23.200000000000003</ele><time>2026-04-09T17:14:14.998Z</time></trkpt><trkpt lat="47.301898472986466" lon="-1.5484798327102778"><ele>23.8</ele><time>2026-04-09T17:14:16.998Z</time></trkpt><trkpt lat="47.301809540993816" lon="-1.5485434513553498"><ele>24.4</ele><time>2026-04-09T17:14:18.998Z</time></trkpt><trkpt lat="47.301714238754755" lon="-1.5485954191550133"><ele>25.0</ele><time>2026-04-09T17:14:20.998Z</time></trkpt><trkpt lat="47.30162467811937" lon="-1.5486483927830574"><ele>25.0</ele><time>2026-04-09T17:14:22.998Z</time></trkpt><trkpt lat="47.30153817687864" lon="-1.5487105026855585"><ele>25.0</ele><time>2026-04-09T17:14:24.998Z</time></trkpt><trkpt lat="47.301438432230896" lon="-1.5487723611309647"><ele>25.0</ele><time>2026-04-09T17:14:26.998Z</time></trkpt><trkpt lat="47.301332904069966" lon="-1.5488664899035811"><ele>25.0</ele><time>2026-04-09T17:14:28.998Z</time></trkpt><trkpt lat="47.301234584345764" lon="-1.548924241216433"><ele>25.0</ele><time>2026-04-09T17:14:30.998Z</time></trkpt><trkpt lat="47.301157680384165" lon="-1.549020884560001"><ele>25.4</ele><time>2026-04-09T17:14:32.998Z</time></trkpt><trkpt lat="47.30110361710871" lon="-1.549149043859494"><ele>25.8</ele><time>2026-04-09T17:14:34.998Z</time></trkpt><trkpt lat="47.30103438258851" lon="-1.5492274984731798"><ele>26.200000000000003</ele><time>2026-04-09T17:14:36.998Z</time></trkpt><trkpt lat="47.30092575312341" lon="-1.5492302645012264"><ele>26.6</ele><time>2026-04-09T17:14:38.998Z</time></trkpt><trkpt lat="47.3008226557144" lon="-1.5491960663362865"><ele>27.0</ele><time>2026-04-09T17:14:40.998Z</time></trkpt><trkpt lat="47.30071557690138" lon="-1.5492413286134128"><ele>27.0</ele><time>2026-04-09T17:14:42.998Z</time></trkpt><trkpt lat="47.30062643536115" lon="-1.5493121556952123"><ele>27.000000000000004</ele><time>2026-04-09T17:14:44.998Z</time></trkpt><trkpt lat="47.30052258358086" lon="-1.549392621965659"><ele>27.000000000000004</ele><time>2026-04-09T17:14:46.998Z</time></trkpt><trkpt lat="47.30042753279889" lon="-1.5494602639242536"><ele>27.0</ele><time>2026-04-09T17:14:48.998Z</time></trkpt><trkpt lat="47.30033038654113" lon="-1.5495362877860195"><ele>27.0</ele><time>2026-04-09T17:14:50.998Z</time></trkpt><trkpt lat="47.30023898188704" lon="-1.5496015828117258"><ele>27.400000000000002</ele><time>2026-04-09T17:14:52.998Z</time></trkpt><trkpt lat="47.30014200326735" lon="-1.54967165552224"><ele>27.800000000000004</ele><time>2026-04-09T17:14:54.998Z</time></trkpt><trkpt lat="47.30007390030408" lon="-1.5497338492437729"><ele>28.2</ele><time>2026-04-09T17:14:55.998Z</time></trkpt><trkpt lat="47.2999827890166" lon="-1.5498040057733187"><ele>28.6</ele><time>2026-04-09T17:14:57.998Z</time></trkpt><trkpt lat="47.29988208045" lon="-1.5498679596945175"><ele>29.0</ele><time>2026-04-09T17:14:59.998Z</time></trkpt><trkpt lat="47.29979754895651" lon="-1.5499292314067017"><ele>29.2</ele><time>2026-04-09T17:15:01.998Z</time></trkpt><trkpt lat="47.299740342467366" lon="-1.5500190854087006"><ele>29.4</ele><time>2026-04-09T17:15:03.998Z</time></trkpt><trkpt lat="47.299656691073714" lon="-1.550111705438746"><ele>29.6</ele><time>2026-04-09T17:15:05.998Z</time></trkpt><trkpt lat="47.29959328197622" lon="-1.5501324925586115"><ele>29.8</ele><time>2026-04-09T17:15:06.998Z</time></trkpt><trkpt lat="47.29948972356254" lon="-1.5501597337439192"><ele>30.0</ele><time>2026-04-09T17:15:08.998Z</time></trkpt><trkpt lat="47.299377238421975" lon="-1.5501788444831504"><ele>30.0</ele><time>2026-04-09T17:15:10.998Z</time></trkpt><trkpt lat="47.29927611076021" lon="-1.5502398647382392"><ele>30.0</ele><time>2026-04-09T17:15:12.998Z</time></trkpt><trkpt lat="47.299183784096776" lon="-1.5503471530988349"><ele>30.0</ele><time>2026-04-09T17:15:14.998Z</time></trkpt><trkpt lat="47.29909422346139" lon="-1.5504366718247071"><ele>30.0</ele><time>2026-04-09T17:15:16.998Z</time></trkpt><trkpt lat="47.29900629729712" lon="-1.550499117003335"><ele>30.0</ele><time>2026-04-09T17:15:18.998Z</time></trkpt><trkpt lat="47.2989037028023" lon="-1.550542702899827"><ele>30.0</ele><time>2026-04-09T17:15:20.998Z</time></trkpt><trkpt lat="47.29880098257893" lon="-1.5506132785245315"><ele>30.0</ele><time>2026-04-09T17:15:22.998Z</time></trkpt><trkpt lat="47.29873908222401" lon="-1.550649404527201"><ele>30.0</ele><time>2026-04-09T17:15:23.998Z</time></trkpt><trkpt lat="47.298684306486784" lon="-1.550697684289469"><ele>30.0</ele><time>2026-04-09T17:15:24.998Z</time></trkpt><trkpt lat="47.2985833883726" lon="-1.5507868677392143"><ele>30.0</ele><time>2026-04-09T17:15:26.998Z</time></trkpt><trkpt lat="47.29848724794322" lon="-1.5508689265712639"><ele>30.0</ele><time>2026-04-09T17:15:28.998Z</time></trkpt><trkpt lat="47.2984123975479" lon="-1.550847636537208"><ele>30.0</ele><time>2026-04-09T17:15:30.998Z</time></trkpt><trkpt lat="47.29830494154924" lon="-1.550930701197638"><ele>30.0</ele><time>2026-04-09T17:15:32.998Z</time></trkpt><trkpt lat="47.29824153245175" lon="-1.550948135556235"><ele>30.0</ele><time>2026-04-09T17:15:33.998Z</time></trkpt><trkpt lat="47.29816085663372" lon="-1.5510531608029743"><ele>30.0</ele><time>2026-04-09T17:15:35.998Z</time></trkpt><trkpt lat="47.29810788300568" lon="-1.5511075593545578"><ele>30.0</ele><time>2026-04-09T17:15:36.998Z</time></trkpt><trkpt lat="47.29801115584308" lon="-1.5512019395842693"><ele>30.6</ele><time>2026-04-09T17:15:38.998Z</time></trkpt><trkpt lat="47.297922642945586" lon="-1.5512844175114773"><ele>31.2</ele><time>2026-04-09T17:15:40.998Z</time></trkpt><trkpt lat="47.297835052057444" lon="-1.5513798035695696"><ele>31.799999999999997</ele><time>2026-04-09T17:15:42.998Z</time></trkpt><trkpt lat="47.297756136439084" lon="-1.5514294244363451"><ele>32.4</ele><time>2026-04-09T17:15:44.998Z</time></trkpt><trkpt lat="47.297675586349605" lon="-1.5514958091094637"><ele>33.0</ele><time>2026-04-09T17:15:46.998Z</time></trkpt><trkpt lat="47.297614188908874" lon="-1.5515366289779091"><ele>33.0</ele><time>2026-04-09T17:15:48.998Z</time></trkpt><trkpt lat="47.29752094023609" lon="-1.5516155026867535"><ele>33.0</ele><time>2026-04-09T17:15:50.998Z</time></trkpt><trkpt lat="47.297435109547614" lon="-1.5516868326827433"><ele>33.0</ele><time>2026-04-09T17:15:52.998Z</time></trkpt><trkpt lat="47.29734982368284" lon="-1.5517604257925894"><ele>33.0</ele><time>2026-04-09T17:15:54.998Z</time></trkpt><trkpt lat="47.29725108486348" lon="-1.551838377492085"><ele>33.0</ele><time>2026-04-09T17:15:56.998Z</time></trkpt><trkpt lat="47.297186208932935" lon="-1.5519436541959195"><ele>33.6</ele><time>2026-04-09T17:15:58.998Z</time></trkpt><trkpt lat="47.297135917513906" lon="-1.55204775743331"><ele>34.199999999999996</ele><time>2026-04-09T17:16:00.998Z</time></trkpt><trkpt lat="47.29709715121174" lon="-1.552211875097409"><ele>34.8</ele><time>2026-04-09T17:16:02.998Z</time></trkpt><trkpt lat="47.297054487324594" lon="-1.5522864740356357"><ele>35.4</ele><time>2026-04-09T17:16:03.998Z</time></trkpt><trkpt lat="47.296977499543964" lon="-1.5524232666953954"><ele>36.0</ele><time>2026-04-09T17:16:05.998Z</time></trkpt><trkpt lat="47.29689870965415" lon="-1.5525532700135862"><ele>36.0</ele><time>2026-04-09T17:16:07.998Z</time></trkpt><trkpt lat="47.2968401620605" lon="-1.552681177855984"><ele>36.0</ele><time>2026-04-09T17:16:09.998Z</time></trkpt><trkpt lat="47.296761581718265" lon="-1.5527955908342757"><ele>36.0</ele><time>2026-04-09T17:16:11.998Z</time></trkpt><trkpt lat="47.296700058548986" lon="-1.5529081597938694"><ele>36.0</ele><time>2026-04-09T17:16:13.998Z</time></trkpt><trkpt lat="47.296622777401744" lon="-1.553008155898706"><ele>36.0</ele><time>2026-04-09T17:16:15.998Z</time></trkpt><trkpt lat="47.29655253705317" lon="-1.553097423167483"><ele>36.2</ele><time>2026-04-09T17:16:17.998Z</time></trkpt><trkpt lat="47.2965005692535" lon="-1.5531928930446068"><ele>36.400000000000006</ele><time>2026-04-09T17:16:19.998Z</time></trkpt><trkpt lat="47.296421444087564" lon="-1.553302779795186"><ele>36.6</ele><time>2026-04-09T17:16:21.997Z</time></trkpt><trkpt lat="47.296370943120955" lon="-1.5534098166986865"><ele>36.800000000000004</ele><time>2026-04-09T17:16:23.997Z</time></trkpt><trkpt lat="47.296308833218454" lon="-1.5535370539888307"><ele>37.0</ele><time>2026-04-09T17:16:25.997Z</time></trkpt><trkpt lat="47.2962415684455" lon="-1.553669488058941"><ele>37.4</ele><time>2026-04-09T17:16:27.997Z</time></trkpt><trkpt lat="47.29618888818407" lon="-1.5537798777237104"><ele>37.800000000000004</ele><time>2026-04-09T17:16:29.997Z</time></trkpt><trkpt lat="47.29611822874033" lon="-1.5538987331106828"><ele>38.2</ele><time>2026-04-09T17:16:31.997Z</time></trkpt><trkpt lat="47.296068021140336" lon="-1.5540367830559183"><ele>38.6</ele><time>2026-04-09T17:16:34.997Z</time></trkpt><trkpt lat="47.29602066338742" lon="-1.554150525481956"><ele>39.0</ele><time>2026-04-09T17:16:36.997Z</time></trkpt><trkpt lat="47.295960187956034" lon="-1.5542718116208485"><ele>39.0</ele><time>2026-04-09T17:16:38.997Z</time></trkpt><trkpt lat="47.29592251130128" lon="-1.5543757472201756"><ele>39.0</ele><time>2026-04-09T17:16:40.997Z</time></trkpt><trkpt lat="47.29585906029427" lon="-1.5544940158739262"><ele>39.0</ele><time>2026-04-09T17:16:42.997Z</time></trkpt><trkpt lat="47.295789197131334" lon="-1.5546055790051394"><ele>39.0</ele><time>2026-04-09T17:16:44.997Z</time></trkpt><trkpt lat="47.2957201302492" lon="-1.554707670585769"><ele>39.0</ele><time>2026-04-09T17:16:46.997Z</time></trkpt><trkpt lat="47.29566724044019" lon="-1.5548324771239932"><ele>38.8</ele><time>2026-04-09T17:16:48.997Z</time></trkpt><trkpt lat="47.29560412470931" lon="-1.554970443250197"><ele>38.599999999999994</ele><time>2026-04-09T17:16:50.997Z</time></trkpt><trkpt lat="47.29554209862584" lon="-1.5550886280849157"><ele>38.4</ele><time>2026-04-09T17:16:52.997Z</time></trkpt><trkpt lat="47.29548501786524" lon="-1.5552020352348268"><ele>38.199999999999996</ele><time>2026-04-09T17:16:54.997Z</time></trkpt><trkpt lat="47.29541913610631" lon="-1.5553312003627002"><ele>38.0</ele><time>2026-04-09T17:16:56.997Z</time></trkpt><trkpt lat="47.29534449525857" lon="-1.555464724080223"><ele>38.4</ele><time>2026-04-09T17:16:58.997Z</time></trkpt><trkpt lat="47.29529479057276" lon="-1.555585172028798"><ele>38.8</ele><time>2026-04-09T17:17:00.997Z</time></trkpt><trkpt lat="47.29523301594639" lon="-1.5557205397650187"><ele>39.2</ele><time>2026-04-09T17:17:02.997Z</time></trkpt><trkpt lat="47.2951651225307" lon="-1.555845346303243"><ele>39.6</ele><time>2026-04-09T17:17:04.997Z</time></trkpt><trkpt lat="47.29509467263454" lon="-1.5559570770725197"><ele>40.0</ele><time>2026-04-09T17:17:06.997Z</time></trkpt><trkpt lat="47.295056493065594" lon="-1.5560315921917147"><ele>40.0</ele><time>2026-04-09T17:17:07.997Z</time></trkpt><trkpt lat="47.2949904436686" lon="-1.5561615955099055"><ele>40.0</ele><time>2026-04-09T17:17:09.997Z</time></trkpt><trkpt lat="47.29493776340717" lon="-1.5562787745162436"><ele>40.0</ele><time>2026-04-09T17:17:11.997Z</time></trkpt><trkpt lat="47.29487955108964" lon="-1.5563943609609794"><ele>40.0</ele><time>2026-04-09T17:17:13.997Z</time></trkpt><trkpt lat="47.29481262159282" lon="-1.556500811131258"><ele>40.0</ele><time>2026-04-09T17:17:15.997Z</time></trkpt><trkpt lat="47.29475147560918" lon="-1.5566310659065439"><ele>40.6</ele><time>2026-04-09T17:17:17.997Z</time></trkpt><trkpt lat="47.294669584415196" lon="-1.5567234344794942"><ele>41.2</ele><time>2026-04-09T17:17:19.997Z</time></trkpt><trkpt lat="47.29460734878415" lon="-1.5568306390210584"><ele>41.8</ele><time>2026-04-09T17:17:21.997Z</time></trkpt><trkpt lat="47.29454813063824" lon="-1.5569577924921707"><ele>42.4</ele><time>2026-04-09T17:17:23.997Z</time></trkpt><trkpt lat="47.29448568545961" lon="-1.5570748038604456"><ele>43.0</ele><time>2026-04-09T17:17:25.997Z</time></trkpt><trkpt lat="47.29443099354142" lon="-1.557185109706183"><ele>43.4</ele><time>2026-04-09T17:17:27.997Z</time></trkpt><trkpt lat="47.29437697217548" lon="-1.5573187172427376"><ele>43.8</ele><time>2026-04-09T17:17:29.997Z</time></trkpt><trkpt lat="47.29431247343057" lon="-1.5574286039933165"><ele>44.2</ele><time>2026-04-09T17:17:31.997Z</time></trkpt><trkpt lat="47.29425329719418" lon="-1.5575444418951474"><ele>44.6</ele><time>2026-04-09T17:17:33.997Z</time></trkpt><trkpt lat="47.294177776246606" lon="-1.557661201806327"><ele>45.0</ele><time>2026-04-09T17:17:35.997Z</time></trkpt><trkpt lat="47.29411964774811" lon="-1.5577674005195103"><ele>45.4</ele><time>2026-04-09T17:17:37.997Z</time></trkpt><trkpt lat="47.29406566829169" lon="-1.5579108987018073"><ele>45.8</ele><time>2026-04-09T17:17:40Z</time></trkpt><trkpt lat="47.29401613124394" lon="-1.5580422431245056"><ele>46.2</ele><time>2026-04-09T17:17:42Z</time></trkpt><trkpt lat="47.29395674545997" lon="-1.5581536386176553"><ele>46.6</ele><time>2026-04-09T17:17:44Z</time></trkpt><trkpt lat="47.29389446791941" lon="-1.5582671295865982"><ele>47.0</ele><time>2026-04-09T17:17:46Z</time></trkpt><trkpt lat="47.293837890073" lon="-1.5583930257722347"><ele>47.0</ele><time>2026-04-09T17:17:48Z</time></trkpt><trkpt lat="47.29377414569938" lon="-1.5585081093027802"><ele>47.0</ele><time>2026-04-09T17:17:50Z</time></trkpt><trkpt lat="47.29371698111975" lon="-1.558598885314128"><ele>47.0</ele><time>2026-04-09T17:17:52Z</time></trkpt><trkpt lat="47.29364544157618" lon="-1.558722266928813"><ele>47.0</ele><time>2026-04-09T17:17:54Z</time></trkpt><trkpt lat="47.29357230947101" lon="-1.5588378533735487"><ele>47.0</ele><time>2026-04-09T17:17:56Z</time></trkpt><trkpt lat="47.293503368317424" lon="-1.5589596424266312"><ele>47.0</ele><time>2026-04-09T17:17:58Z</time></trkpt><trkpt lat="47.29345181961292" lon="-1.5590824373080945"><ele>47.0</ele><time>2026-04-09T17:18:00Z</time></trkpt><trkpt lat="47.29338392619723" lon="-1.559192743153832"><ele>47.0</ele><time>2026-04-09T17:18:02Z</time></trkpt><trkpt lat="47.29331523650074" lon="-1.5593090001508214"><ele>47.0</ele><time>2026-04-09T17:18:04Z</time></trkpt><trkpt lat="47.29324214630508" lon="-1.5594268497094133"><ele>47.0</ele><time>2026-04-09T17:18:06Z</time></trkpt><trkpt lat="47.2931740014323" lon="-1.55954981222894"><ele>47.2</ele><time>2026-04-09T17:18:08Z</time></trkpt><trkpt lat="47.293103216260015" lon="-1.559690376745127"><ele>47.400000000000006</ele><time>2026-04-09T17:18:10Z</time></trkpt><trkpt lat="47.29303444274449" lon="-1.5598171949401123"><ele>47.599999999999994</ele><time>2026-04-09T17:18:12Z</time></trkpt><trkpt lat="47.29295707777822" lon="-1.5599381458028778"><ele>47.8</ele><time>2026-04-09T17:18:14Z</time></trkpt><trkpt lat="47.29290200867438" lon="-1.560063287617229"><ele>48.0</ele><time>2026-04-09T17:18:16Z</time></trkpt><trkpt lat="47.29286005724901" lon="-1.5601332765087113"><ele>47.5</ele><time>2026-04-09T17:18:17Z</time></trkpt><trkpt lat="47.292814459695755" lon="-1.560200247915052"><ele>47.0</ele><time>2026-04-09T17:18:18Z</time></trkpt><trkpt lat="47.29273458015853" lon="-1.5603438299163805"><ele>46.5</ele><time>2026-04-09T17:18:20Z</time></trkpt><trkpt lat="47.29268118743532" lon="-1.5604199375971783"><ele>46.0</ele><time>2026-04-09T17:18:21Z</time></trkpt><trkpt lat="47.29263902646237" lon="-1.5605109650656213"><ele>45.5</ele><time>2026-04-09T17:18:22Z</time></trkpt><trkpt lat="47.292608809701434" lon="-1.5605944488212098"><ele>45.0</ele><time>2026-04-09T17:18:23Z</time></trkpt><trkpt lat="47.29256719355219" lon="-1.5606706403210393"><ele>44.857142857142854</ele><time>2026-04-09T17:18:24Z</time></trkpt><trkpt lat="47.29253425267272" lon="-1.5607551299050084"><ele>44.714285714285715</ele><time>2026-04-09T17:18:25Z</time></trkpt><trkpt lat="47.2924974561178" lon="-1.56083241105225"><ele>44.57142857142857</ele><time>2026-04-09T17:18:26Z</time></trkpt><trkpt lat="47.29245433122598" lon="-1.5609123744085067"><ele>44.42857142857143</ele><time>2026-04-09T17:18:27Z</time></trkpt><trkpt lat="47.292397753379575" lon="-1.5610044077053302"><ele>44.285714285714285</ele><time>2026-04-09T17:18:28Z</time></trkpt><trkpt lat="47.292353957935504" lon="-1.5610851254328721"><ele>44.142857142857146</ele><time>2026-04-09T17:18:29Z</time></trkpt><trkpt lat="47.29230655827307" lon="-1.561169447378778"><ele>44.0</ele><time>2026-04-09T17:18:30Z</time></trkpt><trkpt lat="47.2922548419305" lon="-1.5612590499236818"><ele>43.83333333333333</ele><time>2026-04-09T17:18:31Z</time></trkpt><trkpt lat="47.29219679725104" lon="-1.5613507479443787"><ele>43.666666666666664</ele><time>2026-04-09T17:18:32Z</time></trkpt><trkpt lat="47.292149774774245" lon="-1.5614485647543905"><ele>43.5</ele><time>2026-04-09T17:18:33Z</time></trkpt><trkpt lat="47.29211037982934" lon="-1.5615528356298445"><ele>43.333333333333336</ele><time>2026-04-09T17:18:34Z</time></trkpt><trkpt lat="47.29205677755856" lon="-1.5616260096445322"><ele>43.16666666666667</ele><time>2026-04-09T17:18:35Z</time></trkpt><trkpt lat="47.291996092579595" lon="-1.561724161730671"><ele>43.0</ele><time>2026-04-09T17:18:36Z</time></trkpt><trkpt lat="47.291957452005974" lon="-1.5618301089867594"><ele>43.0</ele><time>2026-04-09T17:18:37Z</time></trkpt><trkpt lat="47.291911519176594" lon="-1.5619327873006108"><ele>43.0</ele><time>2026-04-09T17:18:38Z</time></trkpt><trkpt lat="47.291873171969584" lon="-1.5620361361667159"><ele>43.0</ele><time>2026-04-09T17:18:39Z</time></trkpt><trkpt lat="47.29183004707777" lon="-1.5621396526708846"><ele>43.0</ele><time>2026-04-09T17:18:40Z</time></trkpt><trkpt lat="47.29176730853253" lon="-1.5622619446381574"><ele>43.0</ele><time>2026-04-09T17:18:41Z</time></trkpt><trkpt lat="47.29173013479196" lon="-1.5623867511763818"><ele>43.0</ele><time>2026-04-09T17:18:42Z</time></trkpt><trkpt lat="47.29168566879564" lon="-1.562498901040817"><ele>42.199999999999996</ele><time>2026-04-09T17:18:43Z</time></trkpt><trkpt lat="47.291624983816675" lon="-1.562614990399743"><ele>41.4</ele><time>2026-04-09T17:18:44Z</time></trkpt><trkpt lat="47.29159539569848" lon="-1.5627522021546612"><ele>40.599999999999994</ele><time>2026-04-09T17:18:45Z</time></trkpt><trkpt lat="47.29158588223838" lon="-1.562873655931617"><ele>39.8</ele><time>2026-04-09T17:18:46Z</time></trkpt><trkpt lat="47.29158001490616" lon="-1.5630002226695072"><ele>39.0</ele><time>2026-04-09T17:18:47Z</time></trkpt><trkpt lat="47.29155390527778" lon="-1.5631375182434573"><ele>38.2</ele><time>2026-04-09T17:18:48Z</time></trkpt><trkpt lat="47.291518952741555" lon="-1.563280764968659"><ele>37.4</ele><time>2026-04-09T17:18:49Z</time></trkpt><trkpt lat="47.291472097902826" lon="-1.563427448274161"><ele>36.6</ele><time>2026-04-09T17:18:50Z</time></trkpt><trkpt lat="47.291419711008004" lon="-1.5635705273612994"><ele>35.8</ele><time>2026-04-09T17:18:51Z</time></trkpt><trkpt lat="47.291369629136554" lon="-1.5636833477779883"><ele>35.0</ele><time>2026-04-09T17:18:52Z</time></trkpt><trkpt lat="47.291302238635055" lon="-1.5638088248684665"><ele>34.8</ele><time>2026-04-09T17:18:53Z</time></trkpt><trkpt lat="47.29122935798698" lon="-1.5639190468951722"><ele>34.6</ele><time>2026-04-09T17:18:54Z</time></trkpt><trkpt lat="47.291183257519535" lon="-1.5640343818828129"><ele>34.4</ele><time>2026-04-09T17:18:55Z</time></trkpt><trkpt lat="47.29111159224742" lon="-1.5641374792918228"><ele>34.2</ele><time>2026-04-09T17:18:56Z</time></trkpt><trkpt lat="47.29101809211754" lon="-1.5642575081452395"><ele>34.0</ele><time>2026-04-09T17:18:57Z</time></trkpt><trkpt lat="47.29095908089388" lon="-1.5643925999333776"><ele>34.0</ele><time>2026-04-09T17:18:58Z</time></trkpt><trkpt lat="47.290903918181" lon="-1.5645274970476426"><ele>34.0</ele><time>2026-04-09T17:18:59Z</time></trkpt><trkpt lat="47.2908682615206" lon="-1.564679768224757"><ele>34.0</ele><time>2026-04-09T17:19:00Z</time></trkpt><trkpt lat="47.29087222221228" lon="-1.5648308659805614"><ele>34.0</ele><time>2026-04-09T17:19:01Z</time></trkpt><trkpt lat="47.29088944199201" lon="-1.564960486670409"><ele>34.0</ele><time>2026-04-09T17:19:02Z</time></trkpt><trkpt lat="47.290926619956586" lon="-1.5651158257743782"><ele>32.8</ele><time>2026-04-09T17:19:03Z</time></trkpt><trkpt lat="47.290971917878274" lon="-1.565249561855276"><ele>31.599999999999998</ele><time>2026-04-09T17:19:04Z</time></trkpt><trkpt lat="47.291023473260644" lon="-1.5653620169903006"><ele>30.4</ele><time>2026-04-09T17:19:05Z</time></trkpt><trkpt lat="47.29111013599137" lon="-1.5655242256333763"><ele>29.2</ele><time>2026-04-09T17:19:06Z</time></trkpt><trkpt lat="47.29118731293432" lon="-1.5656505670900545"><ele>28.0</ele><time>2026-04-09T17:19:07Z</time></trkpt><trkpt lat="47.291255576060145" lon="-1.5657645655839845"><ele>27.2</ele><time>2026-04-09T17:19:08Z</time></trkpt><trkpt lat="47.29133028424451" lon="-1.5658873658532944"><ele>26.4</ele><time>2026-04-09T17:19:09Z</time></trkpt><trkpt lat="47.29140610645097" lon="-1.566008196483816"><ele>25.599999999999998</ele><time>2026-04-09T17:19:10Z</time></trkpt><trkpt lat="47.29147973012515" lon="-1.5661117200540764"><ele>24.799999999999997</ele><time>2026-04-09T17:19:11Z</time></trkpt><trkpt lat="47.29156153833239" lon="-1.5661853096199059"><ele>24.0</ele><time>2026-04-09T17:19:12Z</time></trkpt><trkpt lat="47.29165365832319" lon="-1.566230261465231"><ele>24.0</ele><time>2026-04-09T17:19:13Z</time></trkpt><trkpt lat="47.291752556382946" lon="-1.566237502146331"><ele>24.0</ele><time>2026-04-09T17:19:14Z</time></trkpt><trkpt lat="47.291857612081515" lon="-1.5662253175104672"><ele>24.0</ele><time>2026-04-09T17:19:15Z</time></trkpt><trkpt lat="47.2919592767614" lon="-1.5661968724228734"><ele>24.0</ele><time>2026-04-09T17:19:16Z</time></trkpt><trkpt lat="47.29205795125547" lon="-1.5661856196594306"><ele>24.0</ele><time>2026-04-09T17:19:17Z</time></trkpt><trkpt lat="47.29216407070187" lon="-1.5661951046798583"><ele>22.4</ele><time>2026-04-09T17:19:18Z</time></trkpt><trkpt lat="47.29227158151334" lon="-1.5662395526391981"><ele>20.799999999999997</ele><time>2026-04-09T17:19:18.999Z</time></trkpt><trkpt lat="47.29236379630843" lon="-1.5663392140497572"><ele>19.200000000000003</ele><time>2026-04-09T17:19:19.999Z</time></trkpt><trkpt lat="47.292437964302195" lon="-1.5664536956917723"><ele>17.6</ele><time>2026-04-09T17:19:20.999Z</time></trkpt><trkpt lat="47.29246740699493" lon="-1.56661114655581"><ele>16.0</ele><time>2026-04-09T17:19:21.999Z</time></trkpt><trkpt lat="47.292504580735496" lon="-1.566772833467989"><ele>16.0</ele><time>2026-04-09T17:19:22.999Z</time></trkpt><trkpt lat="47.292541513410484" lon="-1.5669316321189894"><ele>16.0</ele><time>2026-04-09T17:19:23.999Z</time></trkpt><trkpt lat="47.292547998993925" lon="-1.5670646913364221"><ele>16.0</ele><time>2026-04-09T17:19:24.999Z</time></trkpt><trkpt lat="47.29257058822297" lon="-1.5672135539367489"><ele>16.0</ele><time>2026-04-09T17:19:25.999Z</time></trkpt><trkpt lat="47.29259330318057" lon="-1.5673786774292284"><ele>16.0</ele><time>2026-04-09T17:19:26.999Z</time></trkpt><trkpt lat="47.292615599043" lon="-1.5675324015333945"><ele>15.600000000000001</ele><time>2026-04-09T17:19:27.999Z</time></trkpt><trkpt lat="47.292640074200264" lon="-1.5676835272475775"><ele>15.200000000000001</ele><time>2026-04-09T17:19:28.999Z</time></trkpt><trkpt lat="47.29266589046203" lon="-1.5678240917637645"><ele>14.799999999999999</ele><time>2026-04-09T17:19:29.999Z</time></trkpt><trkpt lat="47.29268743195318" lon="-1.567955603824526"><ele>14.399999999999999</ele><time>2026-04-09T17:19:30.999Z</time></trkpt><trkpt lat="47.29271756614515" lon="-1.5680741773674465"><ele>14.0</ele><time>2026-04-09T17:19:31.999Z</time></trkpt><trkpt lat="47.292736785012764" lon="-1.5681948484718016"><ele>15.333333333333334</ele><time>2026-04-09T17:19:32.999Z</time></trkpt><trkpt lat="47.292753196218484" lon="-1.568299897877449"><ele>16.666666666666668</ele><time>2026-04-09T17:19:33.999Z</time></trkpt><trkpt lat="47.292767851874515" lon="-1.568394290689906"><ele>18.0</ele><time>2026-04-09T17:19:34.999Z</time></trkpt><trkpt lat="47.29278285672576" lon="-1.5684909325745875"><ele>19.333333333333332</ele><time>2026-04-09T17:19:35.999Z</time></trkpt><trkpt lat="47.29279434312814" lon="-1.5686522237971132"><ele>20.666666666666664</ele><time>2026-04-09T17:19:37.999Z</time></trkpt><trkpt lat="47.29281018492514" lon="-1.568742748351366"><ele>22.0</ele><time>2026-04-09T17:19:38.999Z</time></trkpt><trkpt lat="47.292836210734485" lon="-1.5688804630204745"><ele>22.8</ele><time>2026-04-09T17:19:40.999Z</time></trkpt><trkpt lat="47.29284698148006" lon="-1.5690257214024375"><ele>23.6</ele><time>2026-04-09T17:19:42.999Z</time></trkpt><trkpt lat="47.292867768599926" lon="-1.5691801160588572"><ele>24.400000000000002</ele><time>2026-04-09T17:19:44.999Z</time></trkpt><trkpt lat="47.29288080245936" lon="-1.5693122986718726"><ele>25.200000000000003</ele><time>2026-04-09T17:19:46.999Z</time></trkpt><trkpt lat="47.292908253192245" lon="-1.5694459900274587"><ele>26.0</ele><time>2026-04-09T17:19:48.999Z</time></trkpt><trkpt lat="47.29293993678623" lon="-1.5696150530144288"><ele>25.999999999999996</ele><time>2026-04-09T17:19:50.999Z</time></trkpt><trkpt lat="47.29292648383164" lon="-1.5697075892254428"><ele>26.0</ele><time>2026-04-09T17:19:51.999Z</time></trkpt><trkpt lat="47.292908253192245" lon="-1.5698496624842004"><ele>26.0</ele><time>2026-04-09T17:19:53.999Z</time></trkpt><trkpt lat="47.292902679226636" lon="-1.5699799172594864"><ele>26.0</ele><time>2026-04-09T17:19:55.999Z</time></trkpt><trkpt lat="47.29287451603198" lon="-1.5701100882157404"><ele>25.999999999999996</ele><time>2026-04-09T17:19:57.999Z</time></trkpt><trkpt lat="47.292841575152515" lon="-1.5702231600895247"><ele>26.0</ele><time>2026-04-09T17:19:59.999Z</time></trkpt><trkpt lat="47.292783488563536" lon="-1.5703313704594692"><ele>25.4</ele><time>2026-04-09T17:20:01.999Z</time></trkpt><trkpt lat="47.29272238448941" lon="-1.5704200509950244"><ele>24.8</ele><time>2026-04-09T17:20:03.999Z</time></trkpt><trkpt lat="47.29262435813182" lon="-1.5704963263138854"><ele>24.2</ele><time>2026-04-09T17:20:06.999Z</time></trkpt><trkpt lat="47.29254460432314" lon="-1.570526501165303"><ele>23.599999999999998</ele><time>2026-04-09T17:20:08.999Z</time></trkpt><trkpt lat="47.292451565197936" lon="-1.5705309435739838"><ele>23.0</ele><time>2026-04-09T17:20:10.999Z</time></trkpt><trkpt lat="47.292359909086755" lon="-1.5705498028561198"><ele>23.0</ele><time>2026-04-09T17:20:12.999Z</time></trkpt><trkpt lat="47.29227244392716" lon="-1.5705578494831645"><ele>23.0</ele><time>2026-04-09T17:20:14.999Z</time></trkpt><trkpt lat="47.2921961686083" lon="-1.5705473721042"><ele>23.0</ele><time>2026-04-09T17:20:16.999Z</time></trkpt><trkpt lat="47.292117797813646" lon="-1.5705458633616292"><ele>23.0</ele><time>2026-04-09T17:20:18.999Z</time></trkpt><trkpt lat="47.292044539979926" lon="-1.57054443843809"><ele>23.0</ele><time>2026-04-09T17:20:20.999Z</time></trkpt><trkpt lat="47.29197631128811" lon="-1.5705462824567877"><ele>23.0</ele><time>2026-04-09T17:20:22.999Z</time></trkpt><trkpt lat="47.29187329769813" lon="-1.5705445222571217"><ele>23.833333333333336</ele><time>2026-04-09T17:20:25.999Z</time></trkpt><trkpt lat="47.29179459162735" lon="-1.5705351345255696"><ele>24.666666666666668</ele><time>2026-04-09T17:20:27.999Z</time></trkpt><trkpt lat="47.29171156887644" lon="-1.5705271717175566"><ele>25.5</ele><time>2026-04-09T17:20:29.999Z</time></trkpt><trkpt lat="47.2916263668307" lon="-1.5705266688033663"><ele>26.333333333333336</ele><time>2026-04-09T17:20:31.999Z</time></trkpt><trkpt lat="47.29155520447277" lon="-1.5705119166537844"><ele>27.166666666666668</ele><time>2026-04-09T17:20:33.999Z</time></trkpt><trkpt lat="47.29148437739097" lon="-1.5704921353622996"><ele>28.0</ele><time>2026-04-09T17:20:35.999Z</time></trkpt><trkpt lat="47.29141304739498" lon="-1.5704700909569584"><ele>29.0</ele><time>2026-04-09T17:20:37.999Z</time></trkpt><trkpt lat="47.29133019228213" lon="-1.570464642719897"><ele>29.999999999999996</ele><time>2026-04-09T17:20:39.999Z</time></trkpt><trkpt lat="47.29123409376227" lon="-1.5704764612033688"><ele>30.999999999999996</ele><time>2026-04-09T17:20:41.999Z</time></trkpt><trkpt lat="47.29112999052488" lon="-1.5704985894277417"><ele>32.0</ele><time>2026-04-09T17:20:43.999Z</time></trkpt><trkpt lat="47.291022492616705" lon="-1.5705186221763217"><ele>33.0</ele><time>2026-04-09T17:20:45.999Z</time></trkpt><trkpt lat="47.29092593309217" lon="-1.5705289319172226"><ele>33.0</ele><time>2026-04-09T17:20:47.999Z</time></trkpt><trkpt lat="47.29083871938967" lon="-1.5705358050778233"><ele>33.0</ele><time>2026-04-09T17:20:49.999Z</time></trkpt><trkpt lat="47.29075783402406" lon="-1.5705539099886738"><ele>33.0</ele><time>2026-04-09T17:20:51.999Z</time></trkpt><trkpt lat="47.29067896031522" lon="-1.570574780927571"><ele>33.0</ele><time>2026-04-09T17:20:53.999Z</time></trkpt><trkpt lat="47.29060364891522" lon="-1.5706047043218934"><ele>33.0</ele><time>2026-04-09T17:20:55.999Z</time></trkpt><trkpt lat="47.29051756676965" lon="-1.5706651378437604"><ele>33.0</ele><time>2026-04-09T17:20:57.999Z</time></trkpt><trkpt lat="47.290426665029756" lon="-1.5707490406945075"><ele>33.666666666666664</ele><time>2026-04-09T17:20:59.999Z</time></trkpt><trkpt lat="47.29034640830689" lon="-1.5708315186217154"><ele>34.333333333333336</ele><time>2026-04-09T17:21:01.999Z</time></trkpt><trkpt lat="47.290295236788026" lon="-1.570908883587989"><ele>35.0</ele><time>2026-04-09T17:21:03.999Z</time></trkpt><trkpt lat="47.29024402335965" lon="-1.570990439505848"><ele>35.66666666666667</ele><time>2026-04-09T17:21:05.999Z</time></trkpt><trkpt lat="47.29020890318536" lon="-1.5710834786310521"><ele>36.333333333333336</ele><time>2026-04-09T17:21:07.999Z</time></trkpt><trkpt lat="47.29016074915164" lon="-1.5711760148420661"><ele>37.0</ele><time>2026-04-09T17:21:09.999Z</time></trkpt><trkpt lat="47.29010429703378" lon="-1.5712552238270372"><ele>37.16666666666667</ele><time>2026-04-09T17:21:11.999Z</time></trkpt><trkpt lat="47.290047174363664" lon="-1.5713534597322076"><ele>37.333333333333336</ele><time>2026-04-09T17:21:13.999Z</time></trkpt><trkpt lat="47.28998284325682" lon="-1.57145471312252"><ele>37.5</ele><time>2026-04-09T17:21:15.999Z</time></trkpt><trkpt lat="47.28994390931659" lon="-1.5715300664320322"><ele>37.666666666666664</ele><time>2026-04-09T17:21:17.999Z</time></trkpt><trkpt lat="47.28989303116434" lon="-1.571602905170593"><ele>37.83333333333333</ele><time>2026-04-09T17:21:19.999Z</time></trkpt><trkpt lat="47.28983708196067" lon="-1.571675995366249"><ele>38.0</ele><time>2026-04-09T17:21:21.999Z</time></trkpt><trkpt lat="47.289768015078536" lon="-1.5717238560333584"><ele>38.33333333333333</ele><time>2026-04-09T17:21:23.999Z</time></trkpt><trkpt lat="47.28970942557537" lon="-1.5718224272146557"><ele>38.666666666666664</ele><time>2026-04-09T17:21:25.999Z</time></trkpt><trkpt lat="47.289650668434135" lon="-1.571907503531847"><ele>39.0</ele><time>2026-04-09T17:21:27.999Z</time></trkpt><trkpt lat="47.28959849108689" lon="-1.5720030572280026"><ele>39.333333333333336</ele><time>2026-04-09T17:21:29.999Z</time></trkpt><trkpt lat="47.289550714238814" lon="-1.5720973536386826"><ele>39.66666666666667</ele><time>2026-04-09T17:21:31.999Z</time></trkpt><trkpt lat="47.28949396875434" lon="-1.572201205418978"><ele>40.0</ele><time>2026-04-09T17:21:33.999Z</time></trkpt><trkpt lat="47.28943391241812" lon="-1.5722955856486895"><ele>40.333333333333336</ele><time>2026-04-09T17:21:35.999Z</time></trkpt><trkpt lat="47.28937134151094" lon="-1.5723783150329929"><ele>40.66666666666667</ele><time>2026-04-09T17:21:37.999Z</time></trkpt><trkpt lat="47.28932188828223" lon="-1.572471605615292"><ele>41.0</ele><time>2026-04-09T17:21:39.999Z</time></trkpt><trkpt lat="47.28926916611128" lon="-1.5725699253394945"><ele>41.333333333333336</ele><time>2026-04-09T17:21:41.999Z</time></trkpt><trkpt lat="47.2892110795223" lon="-1.5726611204460008"><ele>41.666666666666664</ele><time>2026-04-09T17:21:43.999Z</time></trkpt><trkpt lat="47.28914880198174" lon="-1.5727508068099363"><ele>42.0</ele><time>2026-04-09T17:21:45.999Z</time></trkpt><trkpt lat="47.28909394242548" lon="-1.5728488750770435"><ele>42.0</ele><time>2026-04-09T17:21:47.999Z</time></trkpt><trkpt lat="47.289036526388756" lon="-1.572953313590561"><ele>42.0</ele><time>2026-04-09T17:21:49.999Z</time></trkpt><trkpt lat="47.28897781115704" lon="-1.5730698220446455"><ele>42.0</ele><time>2026-04-09T17:21:51.999Z</time></trkpt><trkpt lat="47.288902080661884" lon="-1.573187168689047"><ele>42.0</ele><time>2026-04-09T17:21:53.999Z</time></trkpt><trkpt lat="47.288853800899616" lon="-1.573296217249309"><ele>42.0</ele><time>2026-04-09T17:21:55.999Z</time></trkpt><trkpt lat="47.28878456637942" lon="-1.573406355456983"><ele>42.0</ele><time>2026-04-09T17:21:57.999Z</time></trkpt><trkpt lat="47.28872392330997" lon="-1.5735154878362767"><ele>42.0</ele><time>2026-04-09T17:21:59.998Z</time></trkpt><trkpt lat="47.28865917310797" lon="-1.5736086107805125"><ele>42.0</ele><time>2026-04-09T17:22:01.998Z</time></trkpt><trkpt lat="47.28861148007893" lon="-1.5736889094128959"><ele>42.0</ele><time>2026-04-09T17:22:03.998Z</time></trkpt><trkpt lat="47.288524098738364" lon="-1.5738249477013702"><ele>42.0</ele><time>2026-04-09T17:22:05.998Z</time></trkpt><trkpt lat="47.28848013565623" lon="-1.5739037375911826"><ele>42.0</ele><time>2026-04-09T17:22:06.998Z</time></trkpt><trkpt lat="47.28840637490832" lon="-1.5740319807097074"><ele>42.0</ele><time>2026-04-09T17:22:08.998Z</time></trkpt><trkpt lat="47.28834761776709" lon="-1.574133401738083"><ele>42.0</ele><time>2026-04-09T17:22:10.998Z</time></trkpt><trkpt lat="47.28826928888195" lon="-1.5742508322015165"><ele>42.0</ele><time>2026-04-09T17:22:12.998Z</time></trkpt><trkpt lat="47.288222685500315" lon="-1.57431403175143"><ele>42.0</ele><time>2026-04-09T17:22:13.998Z</time></trkpt><trkpt lat="47.28816858031534" lon="-1.5744277741774677"><ele>42.0</ele><time>2026-04-09T17:22:15.998Z</time></trkpt><trkpt lat="47.28808622811668" lon="-1.5745224058642746"><ele>42.0</ele><time>2026-04-09T17:22:17.998Z</time></trkpt><trkpt lat="47.288010413802496" lon="-1.5746070630863072"><ele>42.0</ele><time>2026-04-09T17:22:19.998Z</time></trkpt><trkpt lat="47.2879110463404" lon="-1.574688954280293"><ele>42.0</ele><time>2026-04-09T17:22:21.998Z</time></trkpt><trkpt lat="47.28781649847262" lon="-1.574733210729039"><ele>42.0</ele><time>2026-04-09T17:22:23.998Z</time></trkpt><trkpt lat="47.287764363034896" lon="-1.5747857652619246"><ele>42.0</ele><time>2026-04-09T17:22:24.998Z</time></trkpt><trkpt lat="47.28767191064291" lon="-1.5748486295357111"><ele>42.0</ele><time>2026-04-09T17:22:26.998Z</time></trkpt><trkpt lat="47.28757287845694" lon="-1.5749321132912997"><ele>42.0</ele><time>2026-04-09T17:22:28.998Z</time></trkpt><trkpt lat="47.287466805472306" lon="-1.5750352945193415"><ele>42.0</ele><time>2026-04-09T17:22:30.998Z</time></trkpt><trkpt lat="47.28737913076513" lon="-1.57511877827493"><ele>42.0</ele><time>2026-04-09T17:22:32.998Z</time></trkpt><trkpt lat="47.287289151034585" lon="-1.5752097219243415"><ele>42.2</ele><time>2026-04-09T17:22:34.998Z</time></trkpt><trkpt lat="47.287193345881334" lon="-1.5752925351276763"><ele>42.400000000000006</ele><time>2026-04-09T17:22:36.998Z</time></trkpt><trkpt lat="47.287106132178835" lon="-1.575381886215485"><ele>42.599999999999994</ele><time>2026-04-09T17:22:38.998Z</time></trkpt><trkpt lat="47.28700286713176" lon="-1.5754657890662322"><ele>42.8</ele><time>2026-04-09T17:22:40.998Z</time></trkpt><trkpt lat="47.286907229616574" lon="-1.5755564812585483"><ele>43.0</ele><time>2026-04-09T17:22:42.998Z</time></trkpt><trkpt lat="47.28681368757718" lon="-1.5756636019810808"><ele>43.0</ele><time>2026-04-09T17:22:44.998Z</time></trkpt><trkpt lat="47.28671540976249" lon="-1.5757473371937645"><ele>43.0</ele><time>2026-04-09T17:22:46.998Z</time></trkpt><trkpt lat="47.28661151607268" lon="-1.575845573098935"><ele>43.0</ele><time>2026-04-09T17:22:48.998Z</time></trkpt><trkpt lat="47.2865563212403" lon="-1.5759039949640408"><ele>43.0</ele><time>2026-04-09T17:22:49.998Z</time></trkpt><trkpt lat="47.286454355388216" lon="-1.5759880654528513"><ele>43.0</ele><time>2026-04-09T17:22:51.998Z</time></trkpt><trkpt lat="47.286357628225616" lon="-1.5760663524284735"><ele>43.0</ele><time>2026-04-09T17:22:53.998Z</time></trkpt><trkpt lat="47.28626199071043" lon="-1.5761498361840622"><ele>43.0</ele><time>2026-04-09T17:22:55.998Z</time></trkpt><trkpt lat="47.28615788747304" lon="-1.576225860045828"><ele>43.0</ele><time>2026-04-09T17:22:57.998Z</time></trkpt><trkpt lat="47.2860666085475" lon="-1.5763141214862244"><ele>43.0</ele><time>2026-04-09T17:22:59.998Z</time></trkpt><trkpt lat="47.28596979756587" lon="-1.576381428168692"><ele>43.0</ele><time>2026-04-09T17:23:01.998Z</time></trkpt><trkpt lat="47.285871896936825" lon="-1.5764788258835454"><ele>43.0</ele><time>2026-04-09T17:23:03.998Z</time></trkpt><trkpt lat="47.285783677405945" lon="-1.5765679255142588"><ele>43.0</ele><time>2026-04-09T17:23:05.998Z</time></trkpt><trkpt lat="47.28568581868642" lon="-1.576638920234122"><ele>43.0</ele><time>2026-04-09T17:23:07.998Z</time></trkpt><trkpt lat="47.28559311483734" lon="-1.57672726549355"><ele>43.0</ele><time>2026-04-09T17:23:09.998Z</time></trkpt><trkpt lat="47.28550225500696" lon="-1.5768425166621587"><ele>43.0</ele><time>2026-04-09T17:23:11.998Z</time></trkpt><trkpt lat="47.28540515065872" lon="-1.5769163612291002"><ele>43.0</ele><time>2026-04-09T17:23:13.998Z</time></trkpt><trkpt lat="47.2853163024851" lon="-1.57701359130589"><ele>43.0</ele><time>2026-04-09T17:23:15.998Z</time></trkpt><trkpt lat="47.28521794085138" lon="-1.5771251544371034"><ele>43.0</ele><time>2026-04-09T17:23:17.998Z</time></trkpt><trkpt lat="47.285132822624675" lon="-1.5772253181800033"><ele>43.0</ele><time>2026-04-09T17:23:19.998Z</time></trkpt><trkpt lat="47.28505156007342" lon="-1.5773253981038717"><ele>43.0</ele><time>2026-04-09T17:23:21.998Z</time></trkpt><trkpt lat="47.28499670051716" lon="-1.5774129051729826"><ele>43.0</ele><time>2026-04-09T17:23:23.998Z</time></trkpt><trkpt lat="47.28492172439329" lon="-1.5775213670000223"><ele>43.0</ele><time>2026-04-09T17:23:25.998Z</time></trkpt><trkpt lat="47.28486145850949" lon="-1.5775813814267308"><ele>43.0</ele><time>2026-04-09T17:23:26.998Z</time></trkpt><trkpt lat="47.28478727866642" lon="-1.5776981413379103"><ele>43.0</ele><time>2026-04-09T17:23:28.998Z</time></trkpt><trkpt lat="47.2847235342928" lon="-1.5778387058540972"><ele>42.8</ele><time>2026-04-09T17:23:30.998Z</time></trkpt><trkpt lat="47.28467693091117" lon="-1.5779071860030087"><ele>42.599999999999994</ele><time>2026-04-09T17:23:31.998Z</time></trkpt><trkpt lat="47.284615743018016" lon="-1.577971307562271"><ele>42.400000000000006</ele><time>2026-04-09T17:23:32.998Z</time></trkpt><trkpt lat="47.28450979576193" lon="-1.5780924260631"><ele>42.2</ele><time>2026-04-09T17:23:34.998Z</time></trkpt><trkpt lat="47.28442379743539" lon="-1.5782189928009902"><ele>42.0</ele><time>2026-04-09T17:23:36.998Z</time></trkpt><trkpt lat="47.28438201364808" lon="-1.578295100481788"><ele>42.0</ele><time>2026-04-09T17:23:37.998Z</time></trkpt><trkpt lat="47.28433645800434" lon="-1.5783756505712665"><ele>42.0</ele><time>2026-04-09T17:23:38.998Z</time></trkpt><trkpt lat="47.2842808440768" lon="-1.5784460585579074"><ele>42.0</ele><time>2026-04-09T17:23:39.998Z</time></trkpt><trkpt lat="47.28422606833957" lon="-1.57853314653186"><ele>42.0</ele><time>2026-04-09T17:23:40.998Z</time></trkpt><trkpt lat="47.28416580245577" lon="-1.5786091703936258"><ele>42.0</ele><time>2026-04-09T17:23:41.998Z</time></trkpt><trkpt lat="47.284116852141246" lon="-1.5786889661118189"><ele>42.0</ele><time>2026-04-09T17:23:42.998Z</time></trkpt><trkpt lat="47.28406329177998" lon="-1.5787498187288442"><ele>42.0</ele><time>2026-04-09T17:23:43.998Z</time></trkpt><trkpt lat="47.28399103977464" lon="-1.5788633935168188"><ele>42.333333333333336</ele><time>2026-04-09T17:23:45.998Z</time></trkpt><trkpt lat="47.28393911388449" lon="-1.5789860207602184"><ele>42.666666666666664</ele><time>2026-04-09T17:23:47.998Z</time></trkpt><trkpt lat="47.28387583051555" lon="-1.5791182033732338"><ele>43.0</ele><time>2026-04-09T17:23:49.998Z</time></trkpt><trkpt lat="47.28383475919001" lon="-1.5791902039214774"><ele>43.33333333333333</ele><time>2026-04-09T17:23:50.998Z</time></trkpt><trkpt lat="47.28375337091021" lon="-1.5793042816236422"><ele>43.666666666666664</ele><time>2026-04-09T17:23:52.998Z</time></trkpt><trkpt lat="47.28370555215262" lon="-1.579370331020634"><ele>44.0</ele><time>2026-04-09T17:23:53.998Z</time></trkpt><trkpt lat="47.28363946084611" lon="-1.5795278269812274"><ele>44.0</ele><time>2026-04-09T17:23:55.998Z</time></trkpt><trkpt lat="47.283600275448784" lon="-1.579613070936482"><ele>44.0</ele><time>2026-04-09T17:23:56.998Z</time></trkpt><trkpt lat="47.28356712502174" lon="-1.579697895796578"><ele>44.0</ele><time>2026-04-09T17:23:57.998Z</time></trkpt><trkpt lat="47.28353837509386" lon="-1.579803675414603"><ele>44.0</ele><time>2026-04-09T17:23:58.998Z</time></trkpt><trkpt lat="47.28351545058869" lon="-1.5798983071014097"><ele>44.0</ele><time>2026-04-09T17:23:59.998Z</time></trkpt><trkpt lat="47.28349960879169" lon="-1.5799952019020729"><ele>44.0</ele><time>2026-04-09T17:24:00.998Z</time></trkpt><trkpt lat="47.283497052311226" lon="-1.5800899174079113"><ele>44.0</ele><time>2026-04-09T17:24:01.998Z</time></trkpt><trkpt lat="47.283488167493864" lon="-1.580189578236621"><ele>44.0</ele><time>2026-04-09T17:24:02.998Z</time></trkpt><trkpt lat="47.283485946289524" lon="-1.5802956931307728"><ele>44.0</ele><time>2026-04-09T17:24:03.998Z</time></trkpt><trkpt lat="47.28347446308218" lon="-1.5804800111815152"><ele>44.0</ele><time>2026-04-09T17:24:05.998Z</time></trkpt><trkpt lat="47.28347442117266" lon="-1.580573720858973"><ele>44.0</ele><time>2026-04-09T17:24:06.998Z</time></trkpt><trkpt lat="47.28346021384679" lon="-1.5807535126820027"><ele>44.0</ele><time>2026-04-09T17:24:08.998Z</time></trkpt><trkpt lat="47.28346264459871" lon="-1.5808654949083745"><ele>43.83333333333333</ele><time>2026-04-09T17:24:09.998Z</time></trkpt><trkpt lat="47.28345975284211" lon="-1.5809637308135451"><ele>43.666666666666664</ele><time>2026-04-09T17:24:10.998Z</time></trkpt><trkpt lat="47.28345778309487" lon="-1.581069175155443"><ele>43.5</ele><time>2026-04-09T17:24:11.998Z</time></trkpt><trkpt lat="47.28346381806515" lon="-1.581238321961445"><ele>43.333333333333336</ele><time>2026-04-09T17:24:13.998Z</time></trkpt><trkpt lat="47.28345422078602" lon="-1.5813345462098543"><ele>43.16666666666667</ele><time>2026-04-09T17:24:14.998Z</time></trkpt><trkpt lat="47.28344852109186" lon="-1.5814389009043401"><ele>43.0</ele><time>2026-04-09T17:24:15.998Z</time></trkpt><trkpt lat="47.28343628351323" lon="-1.5815348736956543"><ele>43.28571428571429</ele><time>2026-04-09T17:24:16.998Z</time></trkpt><trkpt lat="47.283434649042114" lon="-1.5816322714105078"><ele>43.57142857142857</ele><time>2026-04-09T17:24:17.998Z</time></trkpt><trkpt lat="47.28341432292692" lon="-1.5817390568569132"><ele>43.85714285714286</ele><time>2026-04-09T17:24:18.998Z</time></trkpt><trkpt lat="47.283413987650796" lon="-1.5818461775794455"><ele>44.142857142857146</ele><time>2026-04-09T17:24:19.998Z</time></trkpt><trkpt lat="47.28341205981307" lon="-1.5819498617216776"><ele>44.42857142857143</ele><time>2026-04-09T17:24:20.998Z</time></trkpt><trkpt lat="47.28340837177567" lon="-1.5820632688715885"><ele>44.714285714285715</ele><time>2026-04-09T17:24:21.998Z</time></trkpt><trkpt lat="47.28338569872759" lon="-1.5821708925083113"><ele>45.0</ele><time>2026-04-09T17:24:22.998Z</time></trkpt><trkpt lat="47.28337509562008" lon="-1.582282036544366"><ele>45.0</ele><time>2026-04-09T17:24:23.998Z</time></trkpt><trkpt lat="47.28336248085581" lon="-1.582384882496281"><ele>45.0</ele><time>2026-04-09T17:24:24.998Z</time></trkpt><trkpt lat="47.28335468568586" lon="-1.5824795141830876"><ele>45.0</ele><time>2026-04-09T17:24:25.998Z</time></trkpt><trkpt lat="47.28334697433494" lon="-1.5825773309930997"><ele>45.0</ele><time>2026-04-09T17:24:26.998Z</time></trkpt><trkpt lat="47.28334789634429" lon="-1.5826748125269847"><ele>45.0</ele><time>2026-04-09T17:24:27.998Z</time></trkpt><trkpt lat="47.28334785443477" lon="-1.582778999583407"><ele>45.0</ele><time>2026-04-09T17:24:28.998Z</time></trkpt><trkpt lat="47.28334689051591" lon="-1.5828782413169582"><ele>45.0</ele><time>2026-04-09T17:24:29.998Z</time></trkpt><trkpt lat="47.28334240619771" lon="-1.582981674002095"><ele>45.0</ele><time>2026-04-09T17:24:30.998Z</time></trkpt><trkpt lat="47.28333980780773" lon="-1.583076305688902"><ele>45.0</ele><time>2026-04-09T17:24:31.998Z</time></trkpt><trkpt lat="47.28333486248486" lon="-1.5831748768701992"><ele>45.0</ele><time>2026-04-09T17:24:32.998Z</time></trkpt><trkpt lat="47.28332878560506" lon="-1.5832786448314629"><ele>45.0</ele><time>2026-04-09T17:24:33.998Z</time></trkpt><trkpt lat="47.28332539093427" lon="-1.5833788923933947"><ele>45.0</ele><time>2026-04-09T17:24:34.998Z</time></trkpt><trkpt lat="47.283323966010734" lon="-1.5834742784514868"><ele>45.0</ele><time>2026-04-09T17:24:35.998Z</time></trkpt><trkpt lat="47.28332128380172" lon="-1.5835714247092452"><ele>45.0</ele><time>2026-04-09T17:24:36.998Z</time></trkpt><trkpt lat="47.28332400792025" lon="-1.5836699120715108"><ele>44.833333333333336</ele><time>2026-04-09T17:24:37.998Z</time></trkpt><trkpt lat="47.2833117284321" lon="-1.58377150073795"><ele>44.666666666666664</ele><time>2026-04-09T17:24:38.997Z</time></trkpt><trkpt lat="47.28331872732125" lon="-1.583957076074168"><ele>44.5</ele><time>2026-04-09T17:24:40.997Z</time></trkpt><trkpt lat="47.283321116163656" lon="-1.584065202625081"><ele>44.33333333333333</ele><time>2026-04-09T17:24:41.997Z</time></trkpt><trkpt lat="47.283312315165325" lon="-1.5841703955098838"><ele>44.166666666666664</ele><time>2026-04-09T17:24:42.997Z</time></trkpt><trkpt lat="47.28330741175197" lon="-1.584267290310547"><ele>44.0</ele><time>2026-04-09T17:24:43.997Z</time></trkpt><trkpt lat="47.28331269235097" lon="-1.5843705553576204"><ele>44.0</ele><time>2026-04-09T17:24:44.997Z</time></trkpt><trkpt lat="47.283290983221754" lon="-1.5844744909569475"><ele>44.0</ele><time>2026-04-09T17:24:45.997Z</time></trkpt><trkpt lat="47.28326399349354" lon="-1.58466467633991"><ele>44.0</ele><time>2026-04-09T17:24:47.997Z</time></trkpt><trkpt lat="47.28325875480406" lon="-1.5847602300360657"><ele>44.0</ele><time>2026-04-09T17:24:48.997Z</time></trkpt><trkpt lat="47.28326814253561" lon="-1.5849428717061735"><ele>44.0</ele><time>2026-04-09T17:24:50.997Z</time></trkpt><trkpt lat="47.2832895163887" lon="-1.5850362461075047"><ele>43.83333333333333</ele><time>2026-04-09T17:24:51.997Z</time></trkpt><trkpt lat="47.28328394242309" lon="-1.58520849421768"><ele>43.666666666666664</ele><time>2026-04-09T17:24:53.997Z</time></trkpt><trkpt lat="47.28327329740606" lon="-1.5853075683131677"><ele>43.5</ele><time>2026-04-09T17:24:54.997Z</time></trkpt><trkpt lat="47.2832747223296" lon="-1.5854051336660844"><ele>43.333333333333336</ele><time>2026-04-09T17:24:55.997Z</time></trkpt><trkpt lat="47.28328628935598" lon="-1.5855824947371944"><ele>43.16666666666667</ele><time>2026-04-09T17:24:57.997Z</time></trkpt><trkpt lat="47.28328293659471" lon="-1.5856846701368557"><ele>43.0</ele><time>2026-04-09T17:24:58.997Z</time></trkpt><trkpt lat="47.2832807992094" lon="-1.5858707483872638"><ele>43.0</ele><time>2026-04-09T17:25:00.997Z</time></trkpt><trkpt lat="47.283268813087865" lon="-1.5859737619772423"><ele>43.0</ele><time>2026-04-09T17:25:01.997Z</time></trkpt><trkpt lat="47.28326533459805" lon="-1.5860802959665525"><ele>43.0</ele><time>2026-04-09T17:25:02.997Z</time></trkpt><trkpt lat="47.28325917389922" lon="-1.5861758496627083"><ele>43.0</ele><time>2026-04-09T17:25:03.997Z</time></trkpt><trkpt lat="47.28325255219571" lon="-1.5862942859545222"><ele>43.0</ele><time>2026-04-09T17:25:04.997Z</time></trkpt><trkpt lat="47.283238261050805" lon="-1.586486147718119"><ele>43.0</ele><time>2026-04-09T17:25:06.997Z</time></trkpt><trkpt lat="47.2832118161463" lon="-1.586580947042989"><ele>43.16666666666667</ele><time>2026-04-09T17:25:07.997Z</time></trkpt><trkpt lat="47.283176025419756" lon="-1.5866736508920665"><ele>43.333333333333336</ele><time>2026-04-09T17:25:08.997Z</time></trkpt><trkpt lat="47.283151340714916" lon="-1.5867599844947333"><ele>43.5</ele><time>2026-04-09T17:25:09.997Z</time></trkpt><trkpt lat="47.28312112395398" lon="-1.58685998059957"><ele>43.666666666666664</ele><time>2026-04-09T17:25:10.997Z</time></trkpt><trkpt lat="47.2830839083039" lon="-1.5870273672059056"><ele>43.83333333333333</ele><time>2026-04-09T17:25:12.997Z</time></trkpt><trkpt lat="47.283048452853485" lon="-1.5871105995043993"><ele>44.0</ele><time>2026-04-09T17:25:13.997Z</time></trkpt><trkpt lat="47.28300977037035" lon="-1.5872743818923711"><ele>44.6</ele><time>2026-04-09T17:25:15.997Z</time></trkpt><trkpt lat="47.28297678758137" lon="-1.5873555187150719"><ele>45.2</ele><time>2026-04-09T17:25:16.997Z</time></trkpt><trkpt lat="47.282916018783375" lon="-1.5875157807037117"><ele>45.800000000000004</ele><time>2026-04-09T17:25:18.997Z</time></trkpt><trkpt lat="47.28284770627253" lon="-1.5876669902369265"><ele>46.400000000000006</ele><time>2026-04-09T17:25:20.997Z</time></trkpt><trkpt lat="47.282819710715934" lon="-1.5877570956960205"><ele>47.0</ele><time>2026-04-09T17:25:21.997Z</time></trkpt><trkpt lat="47.282753242223784" lon="-1.5878911223277337"><ele>47.2</ele><time>2026-04-09T17:25:23.997Z</time></trkpt><trkpt lat="47.2826779727333" lon="-1.5880360454335696"><ele>47.400000000000006</ele><time>2026-04-09T17:25:25.997Z</time></trkpt><trkpt lat="47.28262122724883" lon="-1.5881741791978368"><ele>47.599999999999994</ele><time>2026-04-09T17:25:27.997Z</time></trkpt><trkpt lat="47.28256368548356" lon="-1.5883118938669454"><ele>47.8</ele><time>2026-04-09T17:25:29.997Z</time></trkpt><trkpt lat="47.28253137324683" lon="-1.5884008258595954"><ele>48.0</ele><time>2026-04-09T17:25:30.997Z</time></trkpt><trkpt lat="47.282491894482895" lon="-1.5885687991991533"><ele>48.2</ele><time>2026-04-09T17:25:32.997Z</time></trkpt><trkpt lat="47.28243284397505" lon="-1.5887061785921348"><ele>48.4</ele><time>2026-04-09T17:25:34.997Z</time></trkpt><trkpt lat="47.282363819002434" lon="-1.5888468269273535"><ele>48.6</ele><time>2026-04-09T17:25:36.997Z</time></trkpt><trkpt lat="47.28234353479676" lon="-1.5889440570041433"><ele>48.800000000000004</ele><time>2026-04-09T17:25:37.997Z</time></trkpt><trkpt lat="47.28231176738374" lon="-1.58904111944287"><ele>49.0</ele><time>2026-04-09T17:25:38.997Z</time></trkpt><trkpt lat="47.2822540579804" lon="-1.5891797561213272"><ele>49.400000000000006</ele><time>2026-04-09T17:25:40.997Z</time></trkpt><trkpt lat="47.28220619731329" lon="-1.5893018804505368"><ele>49.8</ele><time>2026-04-09T17:25:42.997Z</time></trkpt><trkpt lat="47.28213348430328" lon="-1.5894355718061228"><ele>50.2</ele><time>2026-04-09T17:25:44.997Z</time></trkpt><trkpt lat="47.28206923701547" lon="-1.589557193221142"><ele>50.599999999999994</ele><time>2026-04-09T17:25:46.997Z</time></trkpt><trkpt lat="47.28203885261647" lon="-1.5896471310421727"><ele>51.0</ele><time>2026-04-09T17:25:47.997Z</time></trkpt><trkpt lat="47.2819702048295" lon="-1.5897698421046043"><ele>51.199999999999996</ele><time>2026-04-09T17:25:49.997Z</time></trkpt><trkpt lat="47.281909226483926" lon="-1.5898941457286382"><ele>51.4</ele><time>2026-04-09T17:25:51.997Z</time></trkpt><trkpt lat="47.28184925396673" lon="-1.590028256179383"><ele>51.6</ele><time>2026-04-09T17:25:53.997Z</time></trkpt><trkpt lat="47.28177310437642" lon="-1.5901495423182752"><ele>51.8</ele><time>2026-04-09T17:25:55.997Z</time></trkpt><trkpt lat="47.28169733197175" lon="-1.5902826469406395"><ele>52.0</ele><time>2026-04-09T17:25:57.997Z</time></trkpt><trkpt lat="47.28162545715205" lon="-1.5904007479563265"><ele>52.25</ele><time>2026-04-09T17:25:59.997Z</time></trkpt><trkpt lat="47.28154608052902" lon="-1.5905392169967205"><ele>52.5</ele><time>2026-04-09T17:26:01.997Z</time></trkpt><trkpt lat="47.28145777717911" lon="-1.5906543843462975"><ele>52.75</ele><time>2026-04-09T17:26:03.997Z</time></trkpt><trkpt lat="47.28138053794138" lon="-1.5907801967129025"><ele>53.0</ele><time>2026-04-09T17:26:05.997Z</time></trkpt><trkpt lat="47.28129567117177" lon="-1.590917324648789"><ele>53.0</ele><time>2026-04-09T17:26:07.997Z</time></trkpt><trkpt lat="47.28124223653905" lon="-1.5910405386254107"><ele>53.0</ele><time>2026-04-09T17:26:09.997Z</time></trkpt><trkpt lat="47.281159129969105" lon="-1.5911563765272416"><ele>53.0</ele><time>2026-04-09T17:26:11.997Z</time></trkpt><trkpt lat="47.281080298169776" lon="-1.5912842843696393"><ele>53.0</ele><time>2026-04-09T17:26:13.997Z</time></trkpt><trkpt lat="47.2810375504636" lon="-1.591353267432741"><ele>53.0</ele><time>2026-04-09T17:26:14.997Z</time></trkpt><trkpt lat="47.28097045332871" lon="-1.5914795827135364"><ele>53.0</ele><time>2026-04-09T17:26:16.997Z</time></trkpt><trkpt lat="47.28089417800985" lon="-1.5916157048210422"><ele>53.0</ele><time>2026-04-09T17:26:18.997Z</time></trkpt><trkpt lat="47.28079866622321" lon="-1.5917354822173637"><ele>53.0</ele><time>2026-04-09T17:26:20.997Z</time></trkpt><trkpt lat="47.28074535731904" lon="-1.5917849354460758"><ele>53.0</ele><time>2026-04-09T17:26:21.997Z</time></trkpt><trkpt lat="47.280669040090665" lon="-1.5918938163682743"><ele>53.0</ele><time>2026-04-09T17:26:23.997Z</time></trkpt><trkpt lat="47.28061635982923" lon="-1.5919643919929787"><ele>53.2</ele><time>2026-04-09T17:26:24.997Z</time></trkpt><trkpt lat="47.28058073674075" lon="-1.5920414216831251"><ele>53.4</ele><time>2026-04-09T17:26:25.997Z</time></trkpt><trkpt lat="47.28049637288533" lon="-1.5921591874226855"><ele>53.60000000000001</ele><time>2026-04-09T17:26:27.997Z</time></trkpt><trkpt lat="47.28041531988166" lon="-1.5922769531622456"><ele>53.800000000000004</ele><time>2026-04-09T17:26:29.997Z</time></trkpt><trkpt lat="47.280373494184836" lon="-1.5923533123001385"><ele>54.0</ele><time>2026-04-09T17:26:30.997Z</time></trkpt><trkpt lat="47.2802917287194" lon="-1.5924737602487136"><ele>54.0</ele><time>2026-04-09T17:26:32.997Z</time></trkpt><trkpt lat="47.28024307177149" lon="-1.5925495326533843"><ele>54.0</ele><time>2026-04-09T17:26:33.997Z</time></trkpt><trkpt lat="47.280175304084345" lon="-1.5926843136563829"><ele>54.0</ele><time>2026-04-09T17:26:35.997Z</time></trkpt><trkpt lat="47.280124300203546" lon="-1.5927510336056283"><ele>54.0</ele><time>2026-04-09T17:26:36.997Z</time></trkpt><trkpt lat="47.280074930793866" lon="-1.5928273089244895"><ele>54.0</ele><time>2026-04-09T17:26:37.997Z</time></trkpt><trkpt lat="47.280021202794536" lon="-1.5928955376163059"><ele>54.0</ele><time>2026-04-09T17:26:38.997Z</time></trkpt><trkpt lat="47.27997682061724" lon="-1.5929690469071203"><ele>54.0</ele><time>2026-04-09T17:26:39.997Z</time></trkpt><trkpt lat="47.27992929522626" lon="-1.5930511895582014"><ele>54.0</ele><time>2026-04-09T17:26:40.997Z</time></trkpt><trkpt lat="47.27984317117117" lon="-1.593204494567209"><ele>54.0</ele><time>2026-04-09T17:26:42.997Z</time></trkpt><trkpt lat="47.27979807653211" lon="-1.5932793449625309"><ele>54.0</ele><time>2026-04-09T17:26:43.997Z</time></trkpt><trkpt lat="47.27975889113478" lon="-1.5933572128429947"><ele>54.0</ele><time>2026-04-09T17:26:44.997Z</time></trkpt><trkpt lat="47.279709898910745" lon="-1.5934245195254622"><ele>54.0</ele><time>2026-04-09T17:26:45.997Z</time></trkpt><trkpt lat="47.27966321171008" lon="-1.5934877190753756"><ele>53.5</ele><time>2026-04-09T17:26:46.997Z</time></trkpt><trkpt lat="47.27961392611943" lon="-1.59355536103397"><ele>53.0</ele><time>2026-04-09T17:26:47.997Z</time></trkpt><trkpt lat="47.27957142987035" lon="-1.5936256013825476"><ele>52.5</ele><time>2026-04-09T17:26:48.997Z</time></trkpt><trkpt lat="47.27948622782461" lon="-1.5937779843822064"><ele>52.0</ele><time>2026-04-09T17:26:50.997Z</time></trkpt><trkpt lat="47.27944758725099" lon="-1.5938654076322856"><ele>51.5</ele><time>2026-04-09T17:26:51.997Z</time></trkpt><trkpt lat="47.27942684204064" lon="-1.5939602907761874"><ele>51.0</ele><time>2026-04-09T17:26:52.997Z</time></trkpt><trkpt lat="47.279412760443314" lon="-1.594051737339789"><ele>50.8</ele><time>2026-04-09T17:26:53.997Z</time></trkpt><trkpt lat="47.27941795722328" lon="-1.594207556919748"><ele>50.599999999999994</ele><time>2026-04-09T17:26:55.997Z</time></trkpt><trkpt lat="47.279415987476035" lon="-1.5943851694479532"><ele>50.4</ele><time>2026-04-09T17:26:57.997Z</time></trkpt><trkpt lat="47.2793796938353" lon="-1.59446856938451"><ele>50.2</ele><time>2026-04-09T17:26:58.997Z</time></trkpt><trkpt lat="47.279319888956174" lon="-1.5945171006038734"><ele>50.0</ele><time>2026-04-09T17:26:59.997Z</time></trkpt><trkpt lat="47.27920216512613" lon="-1.5945639554426023"><ele>50.00000000000001</ele><time>2026-04-09T17:27:01.997Z</time></trkpt><trkpt lat="47.27908096280627" lon="-1.5946234669551203"><ele>50.0</ele><time>2026-04-09T17:27:03.997Z</time></trkpt><trkpt lat="47.27902107410811" lon="-1.5946807153537819"><ele>50.0</ele><time>2026-04-09T17:27:04.997Z</time></trkpt><trkpt lat="47.27896986067973" lon="-1.5947442501798224"><ele>50.0</ele><time>2026-04-09T17:27:05.997Z</time></trkpt><trkpt lat="47.27892040745102" lon="-1.5948180947467636"><ele>50.00000000000001</ele><time>2026-04-09T17:27:06.997Z</time></trkpt><trkpt lat="47.27887405552648" lon="-1.5948984771981787"><ele>50.0</ele><time>2026-04-09T17:27:07.997Z</time></trkpt><trkpt lat="47.27880465336822" lon="-1.5950467530652834"><ele>50.00000000000001</ele><time>2026-04-09T17:27:09.997Z</time></trkpt><trkpt lat="47.27873168890111" lon="-1.5951959509417368"><ele>50.0</ele><time>2026-04-09T17:27:11.997Z</time></trkpt><trkpt lat="47.27869426370345" lon="-1.595274908469613"><ele>50.0</ele><time>2026-04-09T17:27:12.997Z</time></trkpt><trkpt lat="47.27867314130746" lon="-1.5953760780408934"><ele>50.0</ele><time>2026-04-09T17:27:13.997Z</time></trkpt><trkpt lat="47.278637643947526" lon="-1.595458136872943"><ele>50.00000000000001</ele><time>2026-04-09T17:27:14.997Z</time></trkpt><trkpt lat="47.27859908719294" lon="-1.5955375973150092"><ele>50.0</ele><time>2026-04-09T17:27:15.997Z</time></trkpt><trkpt lat="47.278565308123156" lon="-1.5956281218692618"><ele>50.0</ele><time>2026-04-09T17:27:16.997Z</time></trkpt><trkpt lat="47.278504120230004" lon="-1.5957782417550643"><ele>50.0</ele><time>2026-04-09T17:27:18.996Z</time></trkpt><trkpt lat="47.27848178245805" lon="-1.5958654135480483"><ele>50.0</ele><time>2026-04-09T17:27:19.996Z</time></trkpt><trkpt lat="47.278422061397954" lon="-1.5960164554431997"><ele>50.0</ele><time>2026-04-09T17:27:21.996Z</time></trkpt><trkpt lat="47.278375499925836" lon="-1.5961677487954462"><ele>50.0</ele><time>2026-04-09T17:27:23.996Z</time></trkpt><trkpt lat="47.27834067311816" lon="-1.5963110793396795"><ele>50.00000000000001</ele><time>2026-04-09T17:27:25.996Z</time></trkpt><trkpt lat="47.27831037253819" lon="-1.5964378137156334"><ele>50.0</ele><time>2026-04-09T17:27:27.996Z</time></trkpt><trkpt lat="47.278329064182266" lon="-1.5965818148121205"><ele>50.0</ele><time>2026-04-09T17:27:30.996Z</time></trkpt><trkpt lat="47.27835370697759" lon="-1.5966699924334853"><ele>50.0</ele><time>2026-04-09T17:27:32.996Z</time></trkpt><trkpt lat="47.278370764150544" lon="-1.5967863332495063"><ele>50.00000000000001</ele><time>2026-04-09T17:27:34.996Z</time></trkpt><trkpt lat="47.27838316936724" lon="-1.5969496965423198"><ele>50.0</ele><time>2026-04-09T17:27:36.996Z</time></trkpt><trkpt lat="47.27834628899328" lon="-1.597096882762012"><ele>50.16666666666667</ele><time>2026-04-09T17:27:38.996Z</time></trkpt><trkpt lat="47.27829101034187" lon="-1.5972294006511543"><ele>50.333333333333336</ele><time>2026-04-09T17:27:40.996Z</time></trkpt><trkpt lat="47.2782400902801" lon="-1.5972956176862094"><ele>50.5</ele><time>2026-04-09T17:27:41.996Z</time></trkpt><trkpt lat="47.278185104995295" lon="-1.597342304886875"><ele>50.66666666666667</ele><time>2026-04-09T17:27:42.996Z</time></trkpt><trkpt lat="47.27812173780732" lon="-1.5973940212294435"><ele>50.833333333333336</ele><time>2026-04-09T17:27:43.996Z</time></trkpt><trkpt lat="47.27805107836358" lon="-1.5974467434003925"><ele>51.0</ele><time>2026-04-09T17:27:44.996Z</time></trkpt><trkpt lat="47.27798230484806" lon="-1.5975024830564832"><ele>50.666666666666664</ele><time>2026-04-09T17:27:45.996Z</time></trkpt><trkpt lat="47.27792534981601" lon="-1.5975688677296018"><ele>50.33333333333333</ele><time>2026-04-09T17:27:46.996Z</time></trkpt><trkpt lat="47.27787765678696" lon="-1.5976386051639893"><ele>50.0</ele><time>2026-04-09T17:27:47.996Z</time></trkpt><trkpt lat="47.277840608774945" lon="-1.5977210830911972"><ele>49.666666666666664</ele><time>2026-04-09T17:27:48.996Z</time></trkpt><trkpt lat="47.27778478529982" lon="-1.5978960134103875"><ele>49.33333333333333</ele><time>2026-04-09T17:27:50.996Z</time></trkpt><trkpt lat="47.27774505507879" lon="-1.5979867894217352"><ele>49.0</ele><time>2026-04-09T17:27:51.996Z</time></trkpt><trkpt lat="47.2777168080651" lon="-1.59807203337699"><ele>49.0</ele><time>2026-04-09T17:27:52.996Z</time></trkpt><trkpt lat="47.277684579647406" lon="-1.5981664974257332"><ele>49.0</ele><time>2026-04-09T17:27:53.996Z</time></trkpt><trkpt lat="47.27763843727045" lon="-1.598330698908864"><ele>49.0</ele><time>2026-04-09T17:27:56Z</time></trkpt><trkpt lat="47.277606376490816" lon="-1.5984150208547696"><ele>49.0</ele><time>2026-04-09T17:27:57Z</time></trkpt><trkpt lat="47.27755038537763" lon="-1.5985799767091857"><ele>49.0</ele><time>2026-04-09T17:27:59Z</time></trkpt><trkpt lat="47.27748747919433" lon="-1.5987492911532508"><ele>48.99999999999999</ele><time>2026-04-09T17:28:01Z</time></trkpt><trkpt lat="47.27743115280501" lon="-1.598914833740889"><ele>49.0</ele><time>2026-04-09T17:28:03Z</time></trkpt><trkpt lat="47.27740307342938" lon="-1.5990021731719364"><ele>49.0</ele><time>2026-04-09T17:28:04Z</time></trkpt><trkpt lat="47.27737365294925" lon="-1.5990867465749374"><ele>49.0</ele><time>2026-04-09T17:28:05Z</time></trkpt><trkpt lat="47.27734402292154" lon="-1.5991721581682554"><ele>48.99999999999999</ele><time>2026-04-09T17:28:06Z</time></trkpt><trkpt lat="47.277318583845414" lon="-1.599260084332525"><ele>49.0</ele><time>2026-04-09T17:28:07Z</time></trkpt><trkpt lat="47.277284888594664" lon="-1.599348178134858"><ele>49.142857142857146</ele><time>2026-04-09T17:28:08Z</time></trkpt><trkpt lat="47.27725437846712" lon="-1.5994315780714148"><ele>49.285714285714285</ele><time>2026-04-09T17:28:09Z</time></trkpt><trkpt lat="47.27721766573123" lon="-1.5995219349876042"><ele>49.42857142857143</ele><time>2026-04-09T17:28:10Z</time></trkpt><trkpt lat="47.2771914303743" lon="-1.5996215958163138"><ele>49.57142857142857</ele><time>2026-04-09T17:28:11Z</time></trkpt><trkpt lat="47.27716729049317" lon="-1.5997101087138053"><ele>49.714285714285715</ele><time>2026-04-09T17:28:12Z</time></trkpt><trkpt lat="47.277140091217376" lon="-1.5998032316580413"><ele>49.85714285714286</ele><time>2026-04-09T17:28:13Z</time></trkpt><trkpt lat="47.27710878480903" lon="-1.5998878888800738"><ele>50.0</ele><time>2026-04-09T17:28:14Z</time></trkpt><trkpt lat="47.27706343871287" lon="-1.5999781619772315"><ele>50.00000000000001</ele><time>2026-04-09T17:28:15Z</time></trkpt><trkpt lat="47.27704122666947" lon="-1.6000792477294803"><ele>50.0</ele><time>2026-04-09T17:28:16Z</time></trkpt><trkpt lat="47.277004639662124" lon="-1.6001630667611957"><ele>50.0</ele><time>2026-04-09T17:28:17Z</time></trkpt><trkpt lat="47.27697161496363" lon="-1.6002644877895715"><ele>50.0</ele><time>2026-04-09T17:28:18Z</time></trkpt><trkpt lat="47.27693762634627" lon="-1.6003573592767122"><ele>50.0</ele><time>2026-04-09T17:28:19Z</time></trkpt><trkpt lat="47.27690975651822" lon="-1.600448722021282"><ele>50.00000000000001</ele><time>2026-04-09T17:28:20Z</time></trkpt><trkpt lat="47.27687748619101" lon="-1.6005388274803762"><ele>50.0</ele><time>2026-04-09T17:28:21Z</time></trkpt><trkpt lat="47.27684773043475" lon="-1.6006397455945616"><ele>50.00000000000001</ele><time>2026-04-09T17:28:22Z</time></trkpt><trkpt lat="47.276817346035756" lon="-1.6007303539678461"><ele>50.0</ele><time>2026-04-09T17:28:23Z</time></trkpt><trkpt lat="47.276784866160966" lon="-1.6008405759945519"><ele>50.0</ele><time>2026-04-09T17:28:24Z</time></trkpt><trkpt lat="47.27676152256063" lon="-1.6009411588326106"><ele>50.0</ele><time>2026-04-09T17:28:25Z</time></trkpt><trkpt lat="47.276739561974324" lon="-1.6010468546316037"><ele>50.0</ele><time>2026-04-09T17:28:26Z</time></trkpt><trkpt lat="47.276722756258465" lon="-1.6011511255070576"><ele>50.00000000000001</ele><time>2026-04-09T17:28:27Z</time></trkpt><trkpt lat="47.27669425778768" lon="-1.6012537200018775"><ele>50.0</ele><time>2026-04-09T17:28:28Z</time></trkpt><trkpt lat="47.2766726324775" lon="-1.6013556439444434"><ele>49.833333333333336</ele><time>2026-04-09T17:28:29Z</time></trkpt><trkpt lat="47.27664694194428" lon="-1.6014567296966924"><ele>49.66666666666667</ele><time>2026-04-09T17:28:30Z</time></trkpt><trkpt lat="47.27662992668084" lon="-1.6015676222756519"><ele>49.5</ele><time>2026-04-09T17:28:31Z</time></trkpt><trkpt lat="47.276613079055466" lon="-1.601683963091673"><ele>49.33333333333333</ele><time>2026-04-09T17:28:32Z</time></trkpt><trkpt lat="47.276596399068154" lon="-1.6018037404879943"><ele>49.166666666666664</ele><time>2026-04-09T17:28:33Z</time></trkpt><trkpt lat="47.27658906490288" lon="-1.601922595874967"><ele>49.0</ele><time>2026-04-09T17:28:34Z</time></trkpt><trkpt lat="47.276578294157304" lon="-1.6020373441293854"><ele>48.99999999999999</ele><time>2026-04-09T17:28:35Z</time></trkpt><trkpt lat="47.276571085720576" lon="-1.602149410174789"><ele>49.0</ele><time>2026-04-09T17:28:36Z</time></trkpt><trkpt lat="47.27657116953961" lon="-1.6022605542108437"><ele>49.0</ele><time>2026-04-09T17:28:37Z</time></trkpt><trkpt lat="47.276563500098206" lon="-1.602375973017516"><ele>49.0</ele><time>2026-04-09T17:28:38Z</time></trkpt><trkpt lat="47.27656165607951" lon="-1.6024960018709324"><ele>48.99999999999999</ele><time>2026-04-09T17:28:39Z</time></trkpt><trkpt lat="47.276565847031094" lon="-1.6026117559537316"><ele>49.0</ele><time>2026-04-09T17:28:40Z</time></trkpt><trkpt lat="47.2765690321543" lon="-1.6027286835029746"><ele>49.49999999999999</ele><time>2026-04-09T17:28:41Z</time></trkpt><trkpt lat="47.27657519285313" lon="-1.6028496343657401"><ele>50.0</ele><time>2026-04-09T17:28:42Z</time></trkpt><trkpt lat="47.276582946113564" lon="-1.6029660590007928"><ele>50.5</ele><time>2026-04-09T17:28:43Z</time></trkpt><trkpt lat="47.27658675987951" lon="-1.6030823159977823"><ele>51.0</ele><time>2026-04-09T17:28:44Z</time></trkpt><trkpt lat="47.27659300439737" lon="-1.6031973157092958"><ele>51.49999999999999</ele><time>2026-04-09T17:28:45Z</time></trkpt><trkpt lat="47.27660704408518" lon="-1.6033155843630464"><ele>52.0</ele><time>2026-04-09T17:28:46Z</time></trkpt><trkpt lat="47.27662493944845" lon="-1.6034316737219723"><ele>51.99999999999999</ele><time>2026-04-09T17:28:47Z</time></trkpt><trkpt lat="47.27664002687416" lon="-1.6035514511182938"><ele>52.0</ele><time>2026-04-09T17:28:48Z</time></trkpt><trkpt lat="47.27665846706114" lon="-1.6036661155536804"><ele>52.0</ele><time>2026-04-09T17:28:49Z</time></trkpt><trkpt lat="47.276674602224745" lon="-1.6037818696364794"><ele>52.0</ele><time>2026-04-09T17:28:50Z</time></trkpt><trkpt lat="47.27669065356932" lon="-1.6038976237192786"><ele>51.99999999999999</ele><time>2026-04-09T17:28:51Z</time></trkpt><trkpt lat="47.27671600882641" lon="-1.6040127910688555"><ele>52.0</ele><time>2026-04-09T17:28:52Z</time></trkpt><trkpt lat="47.27674182508818" lon="-1.6041353344932237"><ele>51.49999999999999</ele><time>2026-04-09T17:28:53Z</time></trkpt><trkpt lat="47.276763534217395" lon="-1.6042597219362893"><ele>51.0</ele><time>2026-04-09T17:28:54Z</time></trkpt><trkpt lat="47.2767910268598" lon="-1.6043769009426276"><ele>50.5</ele><time>2026-04-09T17:28:55Z</time></trkpt><trkpt lat="47.27680271961472" lon="-1.6045004501953761"><ele>50.0</ele><time>2026-04-09T17:28:56Z</time></trkpt><trkpt lat="47.27682832632891" lon="-1.6046173777446193"><ele>49.49999999999999</ele><time>2026-04-09T17:28:57Z</time></trkpt><trkpt lat="47.27684819143943" lon="-1.6047352273032112"><ele>49.0</ele><time>2026-04-09T17:28:58Z</time></trkpt><trkpt lat="47.276872792325236" lon="-1.6048514843002006"><ele>49.166666666666664</ele><time>2026-04-09T17:28:59Z</time></trkpt><trkpt lat="47.27688238960437" lon="-1.6049676574781582"><ele>49.33333333333333</ele><time>2026-04-09T17:29:00Z</time></trkpt><trkpt lat="47.27690451782874" lon="-1.605085255579655"><ele>49.5</ele><time>2026-04-09T17:29:01Z</time></trkpt><trkpt lat="47.27691512093625" lon="-1.6052131634220528"><ele>49.66666666666667</ele><time>2026-04-09T17:29:02Z</time></trkpt><trkpt lat="47.27692367047749" lon="-1.6053428314641167"><ele>49.833333333333336</ele><time>2026-04-09T17:29:03Z</time></trkpt><trkpt lat="47.27691847369752" lon="-1.6054709907636098"><ele>50.0</ele><time>2026-04-09T17:29:04Z</time></trkpt><trkpt lat="47.27689471100203" lon="-1.60559462383539"><ele>50.00000000000001</ele><time>2026-04-09T17:29:05Z</time></trkpt><trkpt lat="47.27686994247816" lon="-1.6056975536063367"><ele>50.0</ele><time>2026-04-09T17:29:06Z</time></trkpt><trkpt lat="47.276827991052784" lon="-1.6057962086066657"><ele>50.0</ele><time>2026-04-09T17:29:07Z</time></trkpt><trkpt lat="47.27679815147749" lon="-1.6058987192824536"><ele>50.0</ele><time>2026-04-09T17:29:08Z</time></trkpt><trkpt lat="47.27674853061072" lon="-1.6060116235181745"><ele>50.00000000000001</ele><time>2026-04-09T17:29:09Z</time></trkpt><trkpt lat="47.27670762692324" lon="-1.6061165649458822"><ele>50.0</ele><time>2026-04-09T17:29:10Z</time></trkpt><trkpt lat="47.27664983370087" lon="-1.6062054969385324"><ele>49.66666666666667</ele><time>2026-04-09T17:29:11Z</time></trkpt><trkpt lat="47.27658479013226" lon="-1.606287220494455"><ele>49.333333333333336</ele><time>2026-04-09T17:29:12Z</time></trkpt><trkpt lat="47.27652825419537" lon="-1.6063780803248344"><ele>49.0</ele><time>2026-04-09T17:29:13Z</time></trkpt><trkpt lat="47.27647435855798" lon="-1.6064864583328426"><ele>48.66666666666667</ele><time>2026-04-09T17:29:14Z</time></trkpt><trkpt lat="47.27641421840272" lon="-1.6065917350366772"><ele>48.333333333333336</ele><time>2026-04-09T17:29:15Z</time></trkpt><trkpt lat="47.27636983622543" lon="-1.6067017894253197"><ele>48.0</ele><time>2026-04-09T17:29:15.999Z</time></trkpt><trkpt lat="47.27633035746149" lon="-1.6068108379855814"><ele>47.666666666666664</ele><time>2026-04-09T17:29:16.999Z</time></trkpt><trkpt lat="47.27629087869755" lon="-1.606927094982571"><ele>47.333333333333336</ele><time>2026-04-09T17:29:17.999Z</time></trkpt><trkpt lat="47.27625089701942" lon="-1.607061373071379"><ele>47.0</ele><time>2026-04-09T17:29:18.999Z</time></trkpt><trkpt lat="47.276220219253815" lon="-1.6071843355909057"><ele>46.66666666666667</ele><time>2026-04-09T17:29:19.999Z</time></trkpt><trkpt lat="47.276204335547305" lon="-1.607301430778212"><ele>46.333333333333336</ele><time>2026-04-09T17:29:20.999Z</time></trkpt><trkpt lat="47.27618199777535" lon="-1.6074278298780391"><ele>46.0</ele><time>2026-04-09T17:29:21.999Z</time></trkpt><trkpt lat="47.27615194865248" lon="-1.607540650294728"><ele>45.833333333333336</ele><time>2026-04-09T17:29:22.999Z</time></trkpt><trkpt lat="47.27612030696801" lon="-1.6076460108175945"><ele>45.66666666666667</ele><time>2026-04-09T17:29:23.999Z</time></trkpt><trkpt lat="47.27609474216334" lon="-1.6077576577678394"><ele>45.5</ele><time>2026-04-09T17:29:24.999Z</time></trkpt><trkpt lat="47.27606494449756" lon="-1.6078652814045622"><ele>45.333333333333336</ele><time>2026-04-09T17:29:25.999Z</time></trkpt><trkpt lat="47.27604055315933" lon="-1.6079758387073948"><ele>45.166666666666664</ele><time>2026-04-09T17:29:26.999Z</time></trkpt><trkpt lat="47.27601197086952" lon="-1.608081283049293"><ele>45.0</ele><time>2026-04-09T17:29:27.999Z</time></trkpt><trkpt lat="47.27598066446117" lon="-1.608171975241609"><ele>45.285714285714285</ele><time>2026-04-09T17:29:28.999Z</time></trkpt><trkpt lat="47.27594256871126" lon="-1.608270378784843"><ele>45.57142857142858</ele><time>2026-04-09T17:29:29.999Z</time></trkpt><trkpt lat="47.2759032994949" lon="-1.608366435395189"><ele>45.85714285714286</ele><time>2026-04-09T17:29:30.999Z</time></trkpt><trkpt lat="47.27586910132996" lon="-1.6084655933097083"><ele>46.14285714285714</ele><time>2026-04-09T17:29:31.999Z</time></trkpt><trkpt lat="47.27582501251928" lon="-1.6085520945504386"><ele>46.42857142857143</ele><time>2026-04-09T17:29:32.999Z</time></trkpt><trkpt lat="47.27578050461344" lon="-1.6086401883527717"><ele>46.714285714285715</ele><time>2026-04-09T17:29:33.999Z</time></trkpt><trkpt lat="47.275735912888564" lon="-1.608717553319045"><ele>47.0</ele><time>2026-04-09T17:29:34.999Z</time></trkpt><trkpt lat="47.2756900219687" lon="-1.6087946668282231"><ele>47.14285714285714</ele><time>2026-04-09T17:29:35.999Z</time></trkpt><trkpt lat="47.275645262605764" lon="-1.608896087856599"><ele>47.285714285714285</ele><time>2026-04-09T17:29:36.999Z</time></trkpt><trkpt lat="47.275587888478555" lon="-1.608965573833891"><ele>47.42857142857143</ele><time>2026-04-09T17:29:37.999Z</time></trkpt><trkpt lat="47.275546817153014" lon="-1.6090506501510824"><ele>47.57142857142857</ele><time>2026-04-09T17:29:38.999Z</time></trkpt><trkpt lat="47.27549866311929" lon="-1.609125249089309"><ele>47.714285714285715</ele><time>2026-04-09T17:29:39.999Z</time></trkpt><trkpt lat="47.275461615107275" lon="-1.6092239040896381"><ele>47.857142857142854</ele><time>2026-04-09T17:29:40.999Z</time></trkpt><trkpt lat="47.27540826429359" lon="-1.6092925518766132"><ele>48.0</ele><time>2026-04-09T17:29:41.999Z</time></trkpt><trkpt lat="47.275354075289584" lon="-1.6093698330238548"><ele>48.166666666666664</ele><time>2026-04-09T17:29:42.999Z</time></trkpt><trkpt lat="47.27529238448224" lon="-1.609449880199143"><ele>48.33333333333333</ele><time>2026-04-09T17:29:43.999Z</time></trkpt><trkpt lat="47.27523618382148" lon="-1.6095121577397078"><ele>48.5</ele><time>2026-04-09T17:29:44.999Z</time></trkpt><trkpt lat="47.27517298427156" lon="-1.609577452765414"><ele>48.666666666666664</ele><time>2026-04-09T17:29:45.999Z</time></trkpt><trkpt lat="47.27511393376372" lon="-1.6096345335260123"><ele>48.83333333333333</ele><time>2026-04-09T17:29:46.999Z</time></trkpt><trkpt lat="47.275055302351035" lon="-1.6097045224174946"><ele>49.0</ele><time>2026-04-09T17:29:47.999Z</time></trkpt><trkpt lat="47.2749880794876" lon="-1.6097609326258393"><ele>49.0</ele><time>2026-04-09T17:29:48.999Z</time></trkpt><trkpt lat="47.27491553411565" lon="-1.609817594291279"><ele>49.0</ele><time>2026-04-09T17:29:49.999Z</time></trkpt><trkpt lat="47.274874085604466" lon="-1.6098988149330111"><ele>49.0</ele><time>2026-04-09T17:29:50.999Z</time></trkpt><trkpt lat="47.27481771730564" lon="-1.609968384729335"><ele>49.0</ele><time>2026-04-09T17:29:51.999Z</time></trkpt><trkpt lat="47.27476302538744" lon="-1.6100293211653922"><ele>49.0</ele><time>2026-04-09T17:29:52.999Z</time></trkpt><trkpt lat="47.27469001901082" lon="-1.6100780200228189"><ele>49.0</ele><time>2026-04-09T17:29:53.999Z</time></trkpt><trkpt lat="47.27463423744521" lon="-1.6101536247894261"><ele>49.0</ele><time>2026-04-09T17:29:54.999Z</time></trkpt><trkpt lat="47.27457770150832" lon="-1.6102020721897576"><ele>48.83333333333333</ele><time>2026-04-09T17:29:55.999Z</time></trkpt><trkpt lat="47.27451521442018" lon="-1.6102555487319923"><ele>48.666666666666664</ele><time>2026-04-09T17:29:56.999Z</time></trkpt><trkpt lat="47.27440247782252" lon="-1.6103647649303174"><ele>48.5</ele><time>2026-04-09T17:29:58.999Z</time></trkpt><trkpt lat="47.27434774399481" lon="-1.6104277130231357"><ele>48.33333333333333</ele><time>2026-04-09T17:29:59.999Z</time></trkpt><trkpt lat="47.274288106753744" lon="-1.6104785911753872"><ele>48.166666666666664</ele><time>2026-04-09T17:30:00.999Z</time></trkpt><trkpt lat="47.274224027104" lon="-1.6105202492341497"><ele>48.0</ele><time>2026-04-09T17:30:01.999Z</time></trkpt><trkpt lat="47.27412851531736" lon="-1.6106380987927416"><ele>47.99999999999999</ele><time>2026-04-09T17:30:03.999Z</time></trkpt><trkpt lat="47.27406850089065" lon="-1.6106831096127727"><ele>48.0</ele><time>2026-04-09T17:30:04.999Z</time></trkpt><trkpt lat="47.27402830966494" lon="-1.610762905330966"><ele>48.0</ele><time>2026-04-09T17:30:05.999Z</time></trkpt><trkpt lat="47.27397206709466" lon="-1.6108234226718645"><ele>48.0</ele><time>2026-04-09T17:30:06.999Z</time></trkpt><trkpt lat="47.27391959638081" lon="-1.6108855325743656"><ele>48.0</ele><time>2026-04-09T17:30:07.999Z</time></trkpt><trkpt lat="47.273860923058606" lon="-1.610944960267852"><ele>47.99999999999999</ele><time>2026-04-09T17:30:08.999Z</time></trkpt><trkpt lat="47.27379768159918" lon="-1.6109958384201033"><ele>48.0</ele><time>2026-04-09T17:30:09.999Z</time></trkpt><trkpt lat="47.273728991902686" lon="-1.6110460460201008"><ele>47.99999999999999</ele><time>2026-04-09T17:30:10.999Z</time></trkpt><trkpt lat="47.27366948039017" lon="-1.6111182980254395"><ele>48.0</ele><time>2026-04-09T17:30:11.999Z</time></trkpt><trkpt lat="47.27360866968266" lon="-1.6111835092321143"><ele>48.0</ele><time>2026-04-09T17:30:12.999Z</time></trkpt><trkpt lat="47.27355330721221" lon="-1.6112593654558167"><ele>48.0</ele><time>2026-04-09T17:30:13.999Z</time></trkpt><trkpt lat="47.27350184232674" lon="-1.611329102890204"><ele>48.0</ele><time>2026-04-09T17:30:14.999Z</time></trkpt><trkpt lat="47.27347145792774" lon="-1.6114160232260928"><ele>47.99999999999999</ele><time>2026-04-09T17:30:15.999Z</time></trkpt><trkpt lat="47.27343067996881" lon="-1.6115148458644855"><ele>48.0</ele><time>2026-04-09T17:30:16.999Z</time></trkpt><trkpt lat="47.27338575296781" lon="-1.6116031073048818"><ele>47.71428571428571</ele><time>2026-04-09T17:30:17.999Z</time></trkpt><trkpt lat="47.2733542789214" lon="-1.6116938833162298"><ele>47.42857142857143</ele><time>2026-04-09T17:30:18.999Z</time></trkpt><trkpt lat="47.27331262086264" lon="-1.6117787081763257"><ele>47.14285714285714</ele><time>2026-04-09T17:30:19.999Z</time></trkpt><trkpt lat="47.273269370242275" lon="-1.6118479426965227"><ele>46.857142857142854</ele><time>2026-04-09T17:30:20.999Z</time></trkpt><trkpt lat="47.27322976574979" lon="-1.6119508724674694"><ele>46.57142857142857</ele><time>2026-04-09T17:30:21.999Z</time></trkpt><trkpt lat="47.2731999261745" lon="-1.612048773096513"><ele>46.285714285714285</ele><time>2026-04-09T17:30:22.999Z</time></trkpt><trkpt lat="47.273181150711395" lon="-1.6121404711172098"><ele>46.0</ele><time>2026-04-09T17:30:23.999Z</time></trkpt><trkpt lat="47.273142091042615" lon="-1.612232588233065"><ele>46.0</ele><time>2026-04-09T17:30:24.999Z</time></trkpt><trkpt lat="47.27309900806031" lon="-1.6123433969929928"><ele>46.0</ele><time>2026-04-09T17:30:25.999Z</time></trkpt><trkpt lat="47.273067827380515" lon="-1.6124348435565945"><ele>46.0</ele><time>2026-04-09T17:30:26.999Z</time></trkpt><trkpt lat="47.273044860965825" lon="-1.6125343367472407"><ele>46.0</ele><time>2026-04-09T17:30:27.999Z</time></trkpt><trkpt lat="47.27300785486332" lon="-1.6126479115352153"><ele>46.0</ele><time>2026-04-09T17:30:28.999Z</time></trkpt><trkpt lat="47.27298023649237" lon="-1.61275369115324"><ele>46.0</ele><time>2026-04-09T17:30:29.999Z</time></trkpt><trkpt lat="47.27295550987802" lon="-1.6128548607245208"><ele>45.85714285714286</ele><time>2026-04-09T17:30:30.999Z</time></trkpt><trkpt lat="47.272936608686365" lon="-1.612946977840376"><ele>45.71428571428571</ele><time>2026-04-09T17:30:31.999Z</time></trkpt><trkpt lat="47.27291665975682" lon="-1.6130515839919568"><ele>45.57142857142857</ele><time>2026-04-09T17:30:32.999Z</time></trkpt><trkpt lat="47.27290496700189" lon="-1.6131576988861087"><ele>45.42857142857143</ele><time>2026-04-09T17:30:33.999Z</time></trkpt><trkpt lat="47.27289013103328" lon="-1.6132520791158202"><ele>45.28571428571429</ele><time>2026-04-09T17:30:34.999Z</time></trkpt><trkpt lat="47.27287906692109" lon="-1.6133513208493715"><ele>45.14285714285714</ele><time>2026-04-09T17:30:35.999Z</time></trkpt><trkpt lat="47.272864356681026" lon="-1.6134462039932733"><ele>45.0</ele><time>2026-04-09T17:30:36.999Z</time></trkpt><trkpt lat="47.272842102728106" lon="-1.6135416738703972"><ele>45.0</ele><time>2026-04-09T17:30:37.999Z</time></trkpt><trkpt lat="47.27281993259422" lon="-1.613640747965885"><ele>45.0</ele><time>2026-04-09T17:30:38.999Z</time></trkpt><trkpt lat="47.2728019115024" lon="-1.6137363016620405"><ele>45.0</ele><time>2026-04-09T17:30:39.999Z</time></trkpt><trkpt lat="47.272783638953484" lon="-1.6138279158637057"><ele>45.0</ele><time>2026-04-09T17:30:40.999Z</time></trkpt><trkpt lat="47.272746716670014" lon="-1.6139997448787222"><ele>45.0</ele><time>2026-04-09T17:30:42.999Z</time></trkpt><trkpt lat="47.27271905638955" lon="-1.614175681026293"><ele>45.0</ele><time>2026-04-09T17:30:44.999Z</time></trkpt><trkpt lat="47.27270162203095" lon="-1.6142715699985755"><ele>45.0</ele><time>2026-04-09T17:30:45.999Z</time></trkpt><trkpt lat="47.27268485822461" lon="-1.6143662016853824"><ele>45.0</ele><time>2026-04-09T17:30:46.999Z</time></trkpt><trkpt lat="47.27266599894247" lon="-1.6144553013160958"><ele>45.0</ele><time>2026-04-09T17:30:47.999Z</time></trkpt><trkpt lat="47.27264001504264" lon="-1.6145482566222684"><ele>45.0</ele><time>2026-04-09T17:30:48.999Z</time></trkpt><trkpt lat="47.27262103003196" lon="-1.614638529719426"><ele>45.0</ele><time>2026-04-09T17:30:49.999Z</time></trkpt><trkpt lat="47.272597686431624" lon="-1.6147328261301057"><ele>45.0</ele><time>2026-04-09T17:30:50.999Z</time></trkpt><trkpt lat="47.272563781633295" lon="-1.6149007994696636"><ele>45.0</ele><time>2026-04-09T17:30:52.999Z</time></trkpt><trkpt lat="47.27254462898455" lon="-1.6149927489474554"><ele>45.2</ele><time>2026-04-09T17:30:53.999Z</time></trkpt><trkpt lat="47.27252074056051" lon="-1.6150817647591373"><ele>45.4</ele><time>2026-04-09T17:30:54.999Z</time></trkpt><trkpt lat="47.27249148771844" lon="-1.6152382548913502"><ele>45.599999999999994</ele><time>2026-04-09T17:30:56.999Z</time></trkpt><trkpt lat="47.27248180662028" lon="-1.6153462138041996"><ele>45.8</ele><time>2026-04-09T17:30:57.999Z</time></trkpt><trkpt lat="47.27245871447704" lon="-1.615509325639918"><ele>46.0</ele><time>2026-04-09T17:30:59.999Z</time></trkpt><trkpt lat="47.27244442333213" lon="-1.6156682465240504"><ele>46.199999999999996</ele><time>2026-04-09T17:31:01.999Z</time></trkpt><trkpt lat="47.27243658625267" lon="-1.6158088110402373"><ele>46.4</ele><time>2026-04-09T17:31:03.999Z</time></trkpt><trkpt lat="47.2724253125929" lon="-1.6159655526295453"><ele>46.6</ele><time>2026-04-09T17:31:05.999Z</time></trkpt><trkpt lat="47.27241206918589" lon="-1.616127910093978"><ele>46.8</ele><time>2026-04-09T17:31:07.999Z</time></trkpt><trkpt lat="47.27242200174115" lon="-1.616309378297642"><ele>47.0</ele><time>2026-04-09T17:31:09.999Z</time></trkpt><trkpt lat="47.27242271420292" lon="-1.6164102125927957"><ele>47.0</ele><time>2026-04-09T17:31:10.999Z</time></trkpt><trkpt lat="47.272434490776874" lon="-1.6165779344752584"><ele>47.0</ele><time>2026-04-09T17:31:12.999Z</time></trkpt><trkpt lat="47.2724390589141" lon="-1.6167329158649004"><ele>47.0</ele><time>2026-04-09T17:31:14.999Z</time></trkpt><trkpt lat="47.27246353407136" lon="-1.6169018950328389"><ele>47.0</ele><time>2026-04-09T17:31:16.999Z</time></trkpt><trkpt lat="47.272485578476704" lon="-1.616989653559045"><ele>47.0</ele><time>2026-04-09T17:31:17.999Z</time></trkpt><trkpt lat="47.27252359040759" lon="-1.6171462275102895"><ele>46.75</ele><time>2026-04-09T17:31:19.999Z</time></trkpt><trkpt lat="47.27256072223864" lon="-1.6173081658795636"><ele>46.5</ele><time>2026-04-09T17:31:21.999Z</time></trkpt><trkpt lat="47.27262103003196" lon="-1.617469517515616"><ele>46.25</ele><time>2026-04-09T17:31:23.999Z</time></trkpt><trkpt lat="47.27266411301426" lon="-1.6176322102561758"><ele>46.0</ele><time>2026-04-09T17:31:25.999Z</time></trkpt><trkpt lat="47.27271155458621" lon="-1.6177966631964014"><ele>46.4</ele><time>2026-04-09T17:31:27.999Z</time></trkpt><trkpt lat="47.272746590941466" lon="-1.6179569251850414"><ele>46.8</ele><time>2026-04-09T17:31:29.999Z</time></trkpt><trkpt lat="47.272772407203234" lon="-1.6181316040471365"><ele>47.199999999999996</ele><time>2026-04-09T17:31:31.999Z</time></trkpt><trkpt lat="47.27277429313145" lon="-1.6182859148845246"><ele>47.599999999999994</ele><time>2026-04-09T17:31:33.999Z</time></trkpt><trkpt lat="47.27277571805499" lon="-1.6183879226461224"><ele>48.0</ele><time>2026-04-09T17:31:34.999Z</time></trkpt><trkpt lat="47.27277932227335" lon="-1.6184839792564683"><ele>48.0</ele><time>2026-04-09T17:31:35.999Z</time></trkpt><trkpt lat="47.27277295202694" lon="-1.618581628428417"><ele>48.0</ele><time>2026-04-09T17:31:36.999Z</time></trkpt><trkpt lat="47.27275371555916" lon="-1.618762426079827"><ele>48.0</ele><time>2026-04-09T17:31:38.999Z</time></trkpt><trkpt lat="47.27273326371542" lon="-1.6188643500223932"><ele>48.0</ele><time>2026-04-09T17:31:39.999Z</time></trkpt><trkpt lat="47.27270220876417" lon="-1.618953030557948"><ele>48.0</ele><time>2026-04-09T17:31:40.999Z</time></trkpt><trkpt lat="47.27267433893613" lon="-1.6190382745132026"><ele>48.0</ele><time>2026-04-09T17:31:41.999Z</time></trkpt><trkpt lat="47.272620233751155" lon="-1.6191940940931617"><ele>47.666666666666664</ele><time>2026-04-09T17:31:43.999Z</time></trkpt><trkpt lat="47.272584736391224" lon="-1.6192797571435749"><ele>47.333333333333336</ele><time>2026-04-09T17:31:44.999Z</time></trkpt><trkpt lat="47.27252870336852" lon="-1.619438258932549"><ele>47.0</ele><time>2026-04-09T17:31:46.999Z</time></trkpt><trkpt lat="47.27249278691343" lon="-1.6195376683041636"><ele>46.66666666666667</ele><time>2026-04-09T17:31:47.999Z</time></trkpt><trkpt lat="47.27245477498255" lon="-1.6196460463121716"><ele>46.333333333333336</ele><time>2026-04-09T17:31:48.999Z</time></trkpt><trkpt lat="47.27242175028405" lon="-1.6197311226293627"><ele>46.0</ele><time>2026-04-09T17:31:49.999Z</time></trkpt><trkpt lat="47.27239790376953" lon="-1.6198306996390408"><ele>45.714285714285715</ele><time>2026-04-09T17:31:50.999Z</time></trkpt><trkpt lat="47.27236726791344" lon="-1.6199386585518902"><ele>45.42857142857142</ele><time>2026-04-09T17:31:51.999Z</time></trkpt><trkpt lat="47.27233072281561" lon="-1.6200222261265107"><ele>45.14285714285714</ele><time>2026-04-09T17:31:52.999Z</time></trkpt><trkpt lat="47.272298201031305" lon="-1.6201121639475413"><ele>44.85714285714286</ele><time>2026-04-09T17:31:53.999Z</time></trkpt><trkpt lat="47.272267146080054" lon="-1.6202172730133124"><ele>44.57142857142857</ele><time>2026-04-09T17:31:54.999Z</time></trkpt><trkpt lat="47.272229301787235" lon="-1.6203160118326734"><ele>44.285714285714285</ele><time>2026-04-09T17:31:55.999Z</time></trkpt><trkpt lat="47.27219858211211" lon="-1.6204050276443551"><ele>44.0</ele><time>2026-04-09T17:31:56.999Z</time></trkpt><trkpt lat="47.27216228847138" lon="-1.6204913612470222"><ele>42.2</ele><time>2026-04-09T17:31:57.998Z</time></trkpt><trkpt lat="47.27209598761729" lon="-1.6206363681718898"><ele>40.400000000000006</ele><time>2026-04-09T17:31:59.998Z</time></trkpt><trkpt lat="47.27206866261295" lon="-1.620791601018627"><ele>38.6</ele><time>2026-04-09T17:32:01.998Z</time></trkpt><trkpt lat="47.272006217434324" lon="-1.6208612546339825"><ele>36.8</ele><time>2026-04-09T17:32:03.998Z</time></trkpt><trkpt lat="47.271916866346515" lon="-1.6208270564690426"><ele>35.0</ele><time>2026-04-09T17:32:05.998Z</time></trkpt><trkpt lat="47.27185291242532" lon="-1.6207310836777284"><ele>35.0</ele><time>2026-04-09T17:32:07.998Z</time></trkpt><trkpt lat="47.27189348083667" lon="-1.6206372901812387"><ele>35.0</ele><time>2026-04-09T17:32:08.998Z</time></trkpt><trkpt lat="47.27187462155453" lon="-1.6205054428443504"><ele>35.0</ele><time>2026-04-09T17:32:10.998Z</time></trkpt><trkpt lat="47.271799813068725" lon="-1.6204015910640548"><ele>35.0</ele><time>2026-04-09T17:32:12.998Z</time></trkpt><trkpt lat="47.27173150055788" lon="-1.6202864237144778"><ele>35.0</ele><time>2026-04-09T17:32:14.998Z</time></trkpt><trkpt lat="47.271653297401286" lon="-1.6201753634974547"><ele>35.0</ele><time>2026-04-09T17:32:16.998Z</time></trkpt><trkpt lat="47.27157199294052" lon="-1.6200587712243386"><ele>35.0</ele><time>2026-04-09T17:32:18.998Z</time></trkpt><trkpt lat="47.271545757583596" lon="-1.6199726890787667"><ele>35.0</ele><time>2026-04-09T17:32:19.998Z</time></trkpt><trkpt lat="47.271495885259725" lon="-1.6199097409859484"><ele>35.0</ele><time>2026-04-09T17:32:20.998Z</time></trkpt><trkpt lat="47.271413365423" lon="-1.6197951603695935"><ele>35.0</ele><time>2026-04-09T17:32:22.998Z</time></trkpt><trkpt lat="47.2713417420604" lon="-1.6196781490013186"><ele>35.0</ele><time>2026-04-09T17:32:24.998Z</time></trkpt><trkpt lat="47.271301634653724" lon="-1.6195190604791225"><ele>35.0</ele><time>2026-04-09T17:32:26.998Z</time></trkpt><trkpt lat="47.27120872125707" lon="-1.6194340679809631"><ele>35.0</ele><time>2026-04-09T17:32:28.998Z</time></trkpt><trkpt lat="47.27115193386308" lon="-1.6193204931929888"><ele>35.0</ele><time>2026-04-09T17:32:30.998Z</time></trkpt><trkpt lat="47.271096445664085" lon="-1.6191919147983371"><ele>35.0</ele><time>2026-04-09T17:32:32.998Z</time></trkpt><trkpt lat="47.27105969101868" lon="-1.619055289776641"><ele>36.33333333333333</ele><time>2026-04-09T17:32:34.998Z</time></trkpt><trkpt lat="47.27105353031985" lon="-1.6188827902093705"><ele>37.666666666666664</ele><time>2026-04-09T17:32:36.998Z</time></trkpt><trkpt lat="47.271041711836375" lon="-1.6187568940237338"><ele>39.0</ele><time>2026-04-09T17:32:38.998Z</time></trkpt><trkpt lat="47.27103106681935" lon="-1.6186434868738229"><ele>40.333333333333336</ele><time>2026-04-09T17:32:40.998Z</time></trkpt><trkpt lat="47.27096753199331" lon="-1.618600739167648"><ele>41.66666666666667</ele><time>2026-04-09T17:32:42.998Z</time></trkpt><trkpt lat="47.27088258140466" lon="-1.6186040919289166"><ele>43.0</ele><time>2026-04-09T17:32:44.998Z</time></trkpt><trkpt lat="47.27080542598597" lon="-1.6185903456077153"><ele>43.16666666666667</ele><time>2026-04-09T17:32:46.998Z</time></trkpt><trkpt lat="47.27071376987479" lon="-1.6185724083349282"><ele>43.333333333333336</ele><time>2026-04-09T17:32:48.998Z</time></trkpt><trkpt lat="47.27063992530785" lon="-1.6184909362361006"><ele>43.5</ele><time>2026-04-09T17:32:50.998Z</time></trkpt><trkpt lat="47.27056344044141" lon="-1.618401585148292"><ele>43.666666666666664</ele><time>2026-04-09T17:32:52.998Z</time></trkpt><trkpt lat="47.27050070189617" lon="-1.618326399476843"><ele>43.83333333333333</ele><time>2026-04-09T17:32:54.998Z</time></trkpt><trkpt lat="47.27044844072989" lon="-1.6182261519149115"><ele>44.0</ele><time>2026-04-09T17:32:56.998Z</time></trkpt><trkpt lat="47.27039068941704" lon="-1.6181284189239313"><ele>44.0</ele><time>2026-04-09T17:32:58.998Z</time></trkpt><trkpt lat="47.27033394393257" lon="-1.6180366370842028"><ele>44.0</ele><time>2026-04-09T17:33:00.998Z</time></trkpt><trkpt lat="47.27027506106279" lon="-1.6179507225766945"><ele>44.0</ele><time>2026-04-09T17:33:02.998Z</time></trkpt><trkpt lat="47.27021487899802" lon="-1.6178675740972328"><ele>44.0</ele><time>2026-04-09T17:33:04.998Z</time></trkpt><trkpt lat="47.27015406829051" lon="-1.617776714266853"><ele>44.0</ele><time>2026-04-09T17:33:06.998Z</time></trkpt><trkpt lat="47.27010369305245" lon="-1.6176707670107648"><ele>44.0</ele><time>2026-04-09T17:33:08.998Z</time></trkpt><trkpt lat="47.270053443542935" lon="-1.6175774764284654"><ele>44.666666666666664</ele><time>2026-04-09T17:33:10.998Z</time></trkpt><trkpt lat="47.27000453513793" lon="-1.6174719482675357"><ele>45.33333333333333</ele><time>2026-04-09T17:33:12.998Z</time></trkpt><trkpt lat="47.26996467918835" lon="-1.617353092880563"><ele>46.0</ele><time>2026-04-09T17:33:14.998Z</time></trkpt><trkpt lat="47.26992339831523" lon="-1.6172533482328217"><ele>46.666666666666664</ele><time>2026-04-09T17:33:16.998Z</time></trkpt><trkpt lat="47.269887020855464" lon="-1.617148742081241"><ele>47.333333333333336</ele><time>2026-04-09T17:33:18.998Z</time></trkpt><trkpt lat="47.26985701364211" lon="-1.617043549196438"><ele>48.0</ele><time>2026-04-09T17:33:20.998Z</time></trkpt><trkpt lat="47.26984150712124" lon="-1.6169070918128052"><ele>48.0</ele><time>2026-04-09T17:33:22.998Z</time></trkpt><trkpt lat="47.26981870834461" lon="-1.616781614722327"><ele>48.0</ele><time>2026-04-09T17:33:24.998Z</time></trkpt><trkpt lat="47.26982088763943" lon="-1.6166682075724161"><ele>48.0</ele><time>2026-04-09T17:33:26.998Z</time></trkpt><trkpt lat="47.26979280826381" lon="-1.6165582370028053"><ele>48.0</ele><time>2026-04-09T17:33:28.998Z</time></trkpt><trkpt lat="47.26976971612057" lon="-1.6164488531664167"><ele>48.0</ele><time>2026-04-09T17:33:30.998Z</time></trkpt><trkpt lat="47.269755718342275" lon="-1.6163109708592447"><ele>48.0</ele><time>2026-04-09T17:33:32.998Z</time></trkpt><trkpt lat="47.26972022098234" lon="-1.616202509032205"><ele>48.333333333333336</ele><time>2026-04-09T17:33:34.998Z</time></trkpt><trkpt lat="47.26972902198067" lon="-1.6160653810963184"><ele>48.66666666666667</ele><time>2026-04-09T17:33:36.998Z</time></trkpt><trkpt lat="47.26971691013059" lon="-1.6159524768605977"><ele>49.0</ele><time>2026-04-09T17:33:38.998Z</time></trkpt><trkpt lat="47.26971598812124" lon="-1.6158281732365636"><ele>49.333333333333336</ele><time>2026-04-09T17:33:40.998Z</time></trkpt><trkpt lat="47.26971116852692" lon="-1.6156985051944996"><ele>49.66666666666667</ele><time>2026-04-09T17:33:42.998Z</time></trkpt><trkpt lat="47.26968841165981" lon="-1.615585600958779"><ele>50.0</ele><time>2026-04-09T17:33:44.998Z</time></trkpt><trkpt lat="47.2696627630361" lon="-1.6154711879804875"><ele>50.00000000000001</ele><time>2026-04-09T17:33:46.998Z</time></trkpt><trkpt lat="47.26964444857767" lon="-1.6153512429461026"><ele>50.0</ele><time>2026-04-09T17:33:48.998Z</time></trkpt><trkpt lat="47.26962437391958" lon="-1.6152284480646393"><ele>50.0</ele><time>2026-04-09T17:33:50.998Z</time></trkpt><trkpt lat="47.2696117591553" lon="-1.615105401726081"><ele>50.0</ele><time>2026-04-09T17:33:52.998Z</time></trkpt><trkpt lat="47.2695982642912" lon="-1.6149901505574722"><ele>50.00000000000001</ele><time>2026-04-09T17:33:54.998Z</time></trkpt><trkpt lat="47.26957194511524" lon="-1.6148714628085632"><ele>50.0</ele><time>2026-04-09T17:33:56.998Z</time></trkpt><trkpt lat="47.26954889488152" lon="-1.6147461533561485"><ele>50.50000000000001</ele><time>2026-04-09T17:33:58.998Z</time></trkpt><trkpt lat="47.2695472604104" lon="-1.614621430636956"><ele>51.0</ele><time>2026-04-09T17:34:00.998Z</time></trkpt><trkpt lat="47.269569346725255" lon="-1.6145034134403005"><ele>51.5</ele><time>2026-04-09T17:34:02.998Z</time></trkpt><trkpt lat="47.26960874167016" lon="-1.6144047584399714"><ele>52.0</ele><time>2026-04-09T17:34:04.998Z</time></trkpt><trkpt lat="47.269660919017404" lon="-1.6143222805127635"><ele>52.50000000000001</ele><time>2026-04-09T17:34:06.998Z</time></trkpt><trkpt lat="47.2697277646952" lon="-1.6142660379424822"><ele>53.0</ele><time>2026-04-09T17:34:08.998Z</time></trkpt><trkpt lat="47.26979100615463" lon="-1.6142050176873934"><ele>53.2</ele><time>2026-04-09T17:34:10.998Z</time></trkpt><trkpt lat="47.26982914381406" lon="-1.614107955248667"><ele>53.4</ele><time>2026-04-09T17:34:12.998Z</time></trkpt><trkpt lat="47.2698355978795" lon="-1.6139906086042652"><ele>53.60000000000001</ele><time>2026-04-09T17:34:14.998Z</time></trkpt><trkpt lat="47.269806512675494" lon="-1.6138699930176268"><ele>53.800000000000004</ele><time>2026-04-09T17:34:16.998Z</time></trkpt><trkpt lat="47.26969059095463" lon="-1.613782988862706"><ele>54.0</ele><time>2026-04-09T17:34:18.998Z</time></trkpt><trkpt lat="47.269586739174336" lon="-1.6137498803451784"><ele>54.0</ele><time>2026-04-09T17:34:20.998Z</time></trkpt><trkpt lat="47.26948883854529" lon="-1.6136985830977686"><ele>54.0</ele><time>2026-04-09T17:34:22.998Z</time></trkpt><trkpt lat="47.26940669589421" lon="-1.613584505395604"><ele>54.0</ele><time>2026-04-09T17:34:24.998Z</time></trkpt><trkpt lat="47.269347980662495" lon="-1.6134300269201522"><ele>54.0</ele><time>2026-04-09T17:34:26.998Z</time></trkpt><trkpt lat="47.269318224906236" lon="-1.613258617000294"><ele>54.166666666666664</ele><time>2026-04-09T17:34:28.998Z</time></trkpt><trkpt lat="47.26929714441976" lon="-1.6130620613709212"><ele>54.33333333333333</ele><time>2026-04-09T17:34:30.998Z</time></trkpt><trkpt lat="47.26928025488487" lon="-1.6129712853595735"><ele>54.5</ele><time>2026-04-09T17:34:31.998Z</time></trkpt><trkpt lat="47.26925695319405" lon="-1.6128814313575746"><ele>54.666666666666664</ele><time>2026-04-09T17:34:32.998Z</time></trkpt><trkpt lat="47.26924626626751" lon="-1.6127865482136725"><ele>54.83333333333333</ele><time>2026-04-09T17:34:33.998Z</time></trkpt><trkpt lat="47.26925494153729" lon="-1.6126878932133435"><ele>55.0</ele><time>2026-04-09T17:34:34.998Z</time></trkpt><trkpt lat="47.269229712008745" lon="-1.612598458306503"><ele>54.6</ele><time>2026-04-09T17:34:35.998Z</time></trkpt><trkpt lat="47.26922032427719" lon="-1.6125017311439034"><ele>54.2</ele><time>2026-04-09T17:34:36.998Z</time></trkpt><trkpt lat="47.26920142308554" lon="-1.61231297068448"><ele>53.8</ele><time>2026-04-09T17:34:38.998Z</time></trkpt><trkpt lat="47.26918545556" lon="-1.6121258866056911"><ele>53.4</ele><time>2026-04-09T17:34:40.997Z</time></trkpt><trkpt lat="47.269169613763005" lon="-1.6120352782324068"><ele>53.0</ele><time>2026-04-09T17:34:41.997Z</time></trkpt><trkpt lat="47.269171541600734" lon="-1.6119414847359173"><ele>52.833333333333336</ele><time>2026-04-09T17:34:42.997Z</time></trkpt><trkpt lat="47.26915792100808" lon="-1.6117617767319192"><ele>52.66666666666667</ele><time>2026-04-09T17:34:44.997Z</time></trkpt><trkpt lat="47.26916144140741" lon="-1.6116584278658141"><ele>52.5</ele><time>2026-04-09T17:34:45.997Z</time></trkpt><trkpt lat="47.269148365638465" lon="-1.6115521453335988"><ele>52.33333333333333</ele><time>2026-04-09T17:34:46.997Z</time></trkpt><trkpt lat="47.26912485440007" lon="-1.6114614531412828"><ele>52.166666666666664</ele><time>2026-04-09T17:34:47.997Z</time></trkpt><trkpt lat="47.26912548304281" lon="-1.611361792312573"><ele>52.0</ele><time>2026-04-09T17:34:48.997Z</time></trkpt><trkpt lat="47.269126614599735" lon="-1.611265148969005"><ele>52.0</ele><time>2026-04-09T17:34:49.997Z</time></trkpt><trkpt lat="47.26910721049389" lon="-1.6111698467299445"><ele>52.0</ele><time>2026-04-09T17:34:50.997Z</time></trkpt><trkpt lat="47.2690971941196" lon="-1.6110706888154251"><ele>52.0</ele><time>2026-04-09T17:34:51.997Z</time></trkpt><trkpt lat="47.269067438363344" lon="-1.6109768953189356"><ele>52.0</ele><time>2026-04-09T17:34:52.997Z</time></trkpt><trkpt lat="47.26904510059139" lon="-1.6108795814231138"><ele>52.0</ele><time>2026-04-09T17:34:53.997Z</time></trkpt><trkpt lat="47.26907301232895" lon="-1.610783524812768"><ele>52.0</ele><time>2026-04-09T17:34:55.997Z</time></trkpt><trkpt lat="47.26901475810191" lon="-1.6106646694257953"><ele>52.0</ele><time>2026-04-09T17:34:58.997Z</time></trkpt><trkpt lat="47.26894007534465" lon="-1.6105910763159492"><ele>52.0</ele><time>2026-04-09T17:35:00.997Z</time></trkpt><trkpt lat="47.268885299607426" lon="-1.6104612406358219"><ele>52.0</ele><time>2026-04-09T17:35:02.997Z</time></trkpt><trkpt lat="47.2688236507096" lon="-1.6103122942164636"><ele>52.0</ele><time>2026-04-09T17:35:04.997Z</time></trkpt><trkpt lat="47.26880521052262" lon="-1.6101283952608798"><ele>52.0</ele><time>2026-04-09T17:35:07Z</time></trkpt><trkpt lat="47.268814891620785" lon="-1.610029404984424"><ele>52.0</ele><time>2026-04-09T17:35:08Z</time></trkpt><trkpt lat="47.268839785873205" lon="-1.6099226195380183"><ele>51.8</ele><time>2026-04-09T17:35:09Z</time></trkpt><trkpt lat="47.2688728105717" lon="-1.609735954554388"><ele>51.6</ele><time>2026-04-09T17:35:11Z</time></trkpt><trkpt lat="47.26884779059073" lon="-1.609563957901308"><ele>51.4</ele><time>2026-04-09T17:35:13Z</time></trkpt><trkpt lat="47.268821471414775" lon="-1.609466392548391"><ele>51.199999999999996</ele><time>2026-04-09T17:35:14Z</time></trkpt><trkpt lat="47.26880571343681" lon="-1.609364468605825"><ele>51.0</ele><time>2026-04-09T17:35:15Z</time></trkpt><trkpt lat="47.268785848326296" lon="-1.6092728544041601"><ele>51.5</ele><time>2026-04-09T17:35:16Z</time></trkpt><trkpt lat="47.268767952963024" lon="-1.6091837547734464"><ele>52.0</ele><time>2026-04-09T17:35:17Z</time></trkpt><trkpt lat="47.26878572259775" lon="-1.609090799467274"><ele>52.5</ele><time>2026-04-09T17:35:18Z</time></trkpt><trkpt lat="47.26878488440743" lon="-1.6089171264335596"><ele>53.0</ele><time>2026-04-09T17:35:20Z</time></trkpt><trkpt lat="47.268767240501255" lon="-1.6087512485697946"><ele>53.5</ele><time>2026-04-09T17:35:22Z</time></trkpt><trkpt lat="47.26876275618306" lon="-1.6086510848268947"><ele>54.0</ele><time>2026-04-09T17:35:23Z</time></trkpt><trkpt lat="47.26872880947521" lon="-1.6085634101197204"><ele>54.0</ele><time>2026-04-09T17:35:24Z</time></trkpt><trkpt lat="47.26870655552229" lon="-1.6083794273451049"><ele>54.00000000000001</ele><time>2026-04-09T17:35:26Z</time></trkpt><trkpt lat="47.26871657189658" lon="-1.608287729324408"><ele>54.00000000000001</ele><time>2026-04-09T17:35:27Z</time></trkpt><trkpt lat="47.26868099071762" lon="-1.6080967895701603"><ele>54.0</ele><time>2026-04-09T17:35:29Z</time></trkpt><trkpt lat="47.26865471345118" lon="-1.6079923510566427"><ele>54.0</ele><time>2026-04-09T17:35:30Z</time></trkpt><trkpt lat="47.268655132546336" lon="-1.6078962106272652"><ele>53.800000000000004</ele><time>2026-04-09T17:35:31Z</time></trkpt><trkpt lat="47.268606768965036" lon="-1.607730416582532"><ele>53.60000000000001</ele><time>2026-04-09T17:35:33Z</time></trkpt><trkpt lat="47.26856946949592" lon="-1.6075551509872148"><ele>53.4</ele><time>2026-04-09T17:35:35Z</time></trkpt><trkpt lat="47.268574205271214" lon="-1.607445264236636"><ele>53.2</ele><time>2026-04-09T17:35:36Z</time></trkpt><trkpt lat="47.26856787693432" lon="-1.6073355451241202"><ele>53.0</ele><time>2026-04-09T17:35:37Z</time></trkpt><trkpt lat="47.2685535438799" lon="-1.6072035301491685"><ele>53.00000000000001</ele><time>2026-04-09T17:35:38Z</time></trkpt><trkpt lat="47.268523410937995" lon="-1.6070829983815615"><ele>53.0</ele><time>2026-04-09T17:35:39Z</time></trkpt><trkpt lat="47.26848372262648" lon="-1.6069661546513503"><ele>53.0</ele><time>2026-04-09T17:35:40Z</time></trkpt><trkpt lat="47.26847429298541" lon="-1.606842186303443"><ele>53.0</ele><time>2026-04-09T17:35:41Z</time></trkpt><trkpt lat="47.268470898314625" lon="-1.6067260969445172"><ele>53.00000000000001</ele><time>2026-04-09T17:35:42Z</time></trkpt><trkpt lat="47.26847337097606" lon="-1.6066249273732365"><ele>53.0</ele><time>2026-04-09T17:35:43Z</time></trkpt><trkpt lat="47.26846456997773" lon="-1.6065253503635586"><ele>53.16666666666667</ele><time>2026-04-09T17:35:44Z</time></trkpt><trkpt lat="47.26847106595269" lon="-1.6063936706647335"><ele>53.333333333333336</ele><time>2026-04-09T17:35:45Z</time></trkpt><trkpt lat="47.2684309166365" lon="-1.6062808502480446"><ele>53.5</ele><time>2026-04-09T17:35:46Z</time></trkpt><trkpt lat="47.26840790831229" lon="-1.6061712987735923"><ele>53.66666666666667</ele><time>2026-04-09T17:35:47Z</time></trkpt><trkpt lat="47.268358706540674" lon="-1.6060723084971364"><ele>53.833333333333336</ele><time>2026-04-09T17:35:48Z</time></trkpt><trkpt lat="47.268342613286585" lon="-1.6059743240490612"><ele>54.0</ele><time>2026-04-09T17:35:49Z</time></trkpt><trkpt lat="47.2683117259734" lon="-1.6058704722687656"><ele>54.0</ele><time>2026-04-09T17:35:50Z</time></trkpt><trkpt lat="47.2682969319143" lon="-1.6057592444136792"><ele>54.00000000000001</ele><time>2026-04-09T17:35:51Z</time></trkpt><trkpt lat="47.268286747901946" lon="-1.6056340187802962"><ele>54.00000000000001</ele><time>2026-04-09T17:35:52Z</time></trkpt><trkpt lat="47.26829290860078" lon="-1.6054608486607722"><ele>54.0</ele><time>2026-04-09T17:35:54Z</time></trkpt><trkpt lat="47.2682691878148" lon="-1.6052813082948376"><ele>54.0</ele><time>2026-04-09T17:35:56Z</time></trkpt><trkpt lat="47.268269271633834" lon="-1.605187766255443"><ele>53.166666666666664</ele><time>2026-04-09T17:35:57Z</time></trkpt><trkpt lat="47.26825192109427" lon="-1.605080561713879"><ele>52.33333333333333</ele><time>2026-04-09T17:35:58Z</time></trkpt><trkpt lat="47.26825192109427" lon="-1.6049736924484417"><ele>51.5</ele><time>2026-04-09T17:35:59Z</time></trkpt><trkpt lat="47.26823105015537" lon="-1.6048680804684803"><ele>50.666666666666664</ele><time>2026-04-09T17:36:00Z</time></trkpt><trkpt lat="47.2681761486896" lon="-1.6047690901920244"><ele>49.83333333333333</ele><time>2026-04-09T17:36:01Z</time></trkpt><trkpt lat="47.26813838821581" lon="-1.6045992728337688"><ele>49.0</ele><time>2026-04-09T17:36:03Z</time></trkpt><trkpt lat="47.26811969657174" lon="-1.6044835187509696"><ele>49.33333333333333</ele><time>2026-04-09T17:36:04Z</time></trkpt><trkpt lat="47.26810154975137" lon="-1.6043098457172553"><ele>49.666666666666664</ele><time>2026-04-09T17:36:06Z</time></trkpt><trkpt lat="47.268087258606464" lon="-1.6042192373439708"><ele>50.0</ele><time>2026-04-09T17:36:07Z</time></trkpt><trkpt lat="47.26806705821982" lon="-1.6041298024371304"><ele>50.33333333333333</ele><time>2026-04-09T17:36:08Z</time></trkpt><trkpt lat="47.26803516507825" lon="-1.6040249448284543"><ele>50.666666666666664</ele><time>2026-04-09T17:36:09Z</time></trkpt><trkpt lat="47.26802267604253" lon="-1.6039300616845524"><ele>51.0</ele><time>2026-04-09T17:36:10Z</time></trkpt><trkpt lat="47.26799815897575" lon="-1.6038355138167775"><ele>51.0</ele><time>2026-04-09T17:36:11Z</time></trkpt><trkpt lat="47.26796559528193" lon="-1.6037488449379835"><ele>51.0</ele><time>2026-04-09T17:36:12Z</time></trkpt><trkpt lat="47.26794573017141" lon="-1.6036595776692066"><ele>51.0</ele><time>2026-04-09T17:36:13Z</time></trkpt><trkpt lat="47.26792787671766" lon="-1.6035612579450045"><ele>51.0</ele><time>2026-04-09T17:36:14Z</time></trkpt><trkpt lat="47.267897743775755" lon="-1.6034684702768953"><ele>51.0</ele><time>2026-04-09T17:36:15Z</time></trkpt><trkpt lat="47.267875783189446" lon="-1.603343999014798"><ele>51.0</ele><time>2026-04-09T17:36:16Z</time></trkpt><trkpt lat="47.26784481205723" lon="-1.603258252145353"><ele>51.0</ele><time>2026-04-09T17:36:17Z</time></trkpt><trkpt lat="47.2678264975988" lon="-1.6031616926208168"><ele>51.0</ele><time>2026-04-09T17:36:18Z</time></trkpt><trkpt lat="47.267799717418164" lon="-1.6030595172211555"><ele>51.0</ele><time>2026-04-09T17:36:19Z</time></trkpt><trkpt lat="47.26777222477576" lon="-1.6029700823143151"><ele>51.0</ele><time>2026-04-09T17:36:20Z</time></trkpt><trkpt lat="47.26773702078244" lon="-1.6027835011497165"><ele>51.0</ele><time>2026-04-09T17:36:22Z</time></trkpt><trkpt lat="47.26767549761316" lon="-1.6025939863190077"><ele>51.0</ele><time>2026-04-09T17:36:24Z</time></trkpt><trkpt lat="47.2676417604529" lon="-1.6024951636806153"><ele>50.57142857142857</ele><time>2026-04-09T17:36:25Z</time></trkpt><trkpt lat="47.26760739464989" lon="-1.6023861989393853"><ele>50.142857142857146</ele><time>2026-04-09T17:36:26Z</time></trkpt><trkpt lat="47.267566197595805" lon="-1.6022941656425616"><ele>49.71428571428571</ele><time>2026-04-09T17:36:27Z</time></trkpt><trkpt lat="47.26754339881918" lon="-1.602193582804503"><ele>49.285714285714285</ele><time>2026-04-09T17:36:28Z</time></trkpt><trkpt lat="47.26753212515941" lon="-1.6020999569460768"><ele>48.857142857142854</ele><time>2026-04-09T17:36:29Z</time></trkpt><trkpt lat="47.26750723090699" lon="-1.6020077560111898"><ele>48.42857142857142</ele><time>2026-04-09T17:36:30Z</time></trkpt><trkpt lat="47.267475044398815" lon="-1.6019144654288906"><ele>48.0</ele><time>2026-04-09T17:36:31Z</time></trkpt><trkpt lat="47.26743108131668" lon="-1.6018319036826507"><ele>47.2</ele><time>2026-04-09T17:36:32Z</time></trkpt><trkpt lat="47.26739290174773" lon="-1.6017472464606182"><ele>46.4</ele><time>2026-04-09T17:36:33Z</time></trkpt><trkpt lat="47.26730707105926" lon="-1.6016049217447652"><ele>45.6</ele><time>2026-04-09T17:36:35Z</time></trkpt><trkpt lat="47.267218767709345" lon="-1.6015072725728168"><ele>44.800000000000004</ele><time>2026-04-09T17:36:37Z</time></trkpt><trkpt lat="47.26718100723556" lon="-1.6014105454102172"><ele>44.0</ele><time>2026-04-09T17:36:39Z</time></trkpt><trkpt lat="47.26724873301318" lon="-1.6013140697047126"><ele>44.0</ele><time>2026-04-09T17:36:42Z</time></trkpt><trkpt lat="47.26729307328096" lon="-1.6012242995217454"><ele>44.0</ele><time>2026-04-09T17:36:44Z</time></trkpt><trkpt lat="47.26729340855709" lon="-1.601096559317411"><ele>44.0</ele><time>2026-04-09T17:36:46Z</time></trkpt><trkpt lat="47.267277147664934" lon="-1.600955491887034"><ele>44.0</ele><time>2026-04-09T17:36:48Z</time></trkpt><trkpt lat="47.267258539839894" lon="-1.600803108887375"><ele>44.0</ele><time>2026-04-09T17:36:50Z</time></trkpt><trkpt lat="47.26719110742888" lon="-1.6007037833347924"><ele>43.2</ele><time>2026-04-09T17:36:52Z</time></trkpt><trkpt lat="47.26710821040651" lon="-1.6006310284152632"><ele>42.400000000000006</ele><time>2026-04-09T17:36:54Z</time></trkpt><trkpt lat="47.26704517849466" lon="-1.6005266737207775"><ele>41.6</ele><time>2026-04-09T17:36:55.999Z</time></trkpt><trkpt lat="47.26696961563757" lon="-1.6004497278496626"><ele>40.8</ele><time>2026-04-09T17:36:57.999Z</time></trkpt><trkpt lat="47.26690486543557" lon="-1.600339422003925"><ele>40.0</ele><time>2026-04-09T17:36:59.999Z</time></trkpt><trkpt lat="47.266866979233235" lon="-1.600203048439324"><ele>40.0</ele><time>2026-04-09T17:37:01.999Z</time></trkpt><trkpt lat="47.266807802996844" lon="-1.600125264377892"><ele>40.0</ele><time>2026-04-09T17:37:02.999Z</time></trkpt><trkpt lat="47.26670164619318" lon="-1.6000785771772266"><ele>40.0</ele><time>2026-04-09T17:37:03.999Z</time></trkpt><trkpt lat="47.266654917082995" lon="-1.599985118956864"><ele>40.0</ele><time>2026-04-09T17:37:04.999Z</time></trkpt><trkpt lat="47.26660156626931" lon="-1.599907586352527"><ele>40.0</ele><time>2026-04-09T17:37:05.999Z</time></trkpt><trkpt lat="47.26655601062557" lon="-1.599822761492431"><ele>40.0</ele><time>2026-04-09T17:37:06.999Z</time></trkpt><trkpt lat="47.26648774002424" lon="-1.5997521858677266"><ele>39.8</ele><time>2026-04-09T17:37:07.999Z</time></trkpt><trkpt lat="47.2664102074199" lon="-1.5996902436032887"><ele>39.6</ele><time>2026-04-09T17:37:08.999Z</time></trkpt><trkpt lat="47.26632177834144" lon="-1.5996262896820899"><ele>39.4</ele><time>2026-04-09T17:37:09.999Z</time></trkpt><trkpt lat="47.266235654286355" lon="-1.599582955242693"><ele>39.2</ele><time>2026-04-09T17:37:10.999Z</time></trkpt><trkpt lat="47.26615393073043" lon="-1.5995254553869362"><ele>39.0</ele><time>2026-04-09T17:37:11.999Z</time></trkpt><trkpt lat="47.26611097347668" lon="-1.5994167421028012"><ele>39.0</ele><time>2026-04-09T17:37:12.999Z</time></trkpt><trkpt lat="47.266029962382525" lon="-1.5993413049742573"><ele>39.0</ele><time>2026-04-09T17:37:13.999Z</time></trkpt><trkpt lat="47.26596273951909" lon="-1.5992522891625753"><ele>39.0</ele><time>2026-04-09T17:37:14.999Z</time></trkpt><trkpt lat="47.26593943782827" lon="-1.59915137104839"><ele>39.0</ele><time>2026-04-09T17:37:15.999Z</time></trkpt><trkpt lat="47.26589442700824" lon="-1.5990425739452234"><ele>39.0</ele><time>2026-04-09T17:37:16.999Z</time></trkpt><trkpt lat="47.26580821913412" lon="-1.5989559888854612"><ele>39.0</ele><time>2026-04-09T17:37:17.999Z</time></trkpt><trkpt lat="47.265726244121105" lon="-1.5988842397943128"><ele>39.0</ele><time>2026-04-09T17:37:18.999Z</time></trkpt><trkpt lat="47.265660488090724" lon="-1.5987833216801275"><ele>39.0</ele><time>2026-04-09T17:37:19.999Z</time></trkpt><trkpt lat="47.26559372623196" lon="-1.598691791297494"><ele>39.0</ele><time>2026-04-09T17:37:20.999Z</time></trkpt><trkpt lat="47.265518498651" lon="-1.5986124984934913"><ele>39.0</ele><time>2026-04-09T17:37:21.999Z</time></trkpt><trkpt lat="47.265411294109434" lon="-1.5985395759358987"><ele>39.0</ele><time>2026-04-09T17:37:22.999Z</time></trkpt><trkpt lat="47.26532877427271" lon="-1.5984460338965043"><ele>37.6</ele><time>2026-04-09T17:37:23.999Z</time></trkpt><trkpt lat="47.26523116701028" lon="-1.598343020306526"><ele>36.2</ele><time>2026-04-09T17:37:24.999Z</time></trkpt><trkpt lat="47.26513368547639" lon="-1.5982258413001877"><ele>34.800000000000004</ele><time>2026-04-09T17:37:25.999Z</time></trkpt><trkpt lat="47.26505137518725" lon="-1.5981437824681384"><ele>33.4</ele><time>2026-04-09T17:37:26.999Z</time></trkpt><trkpt lat="47.2649830626764" lon="-1.5980430319920162"><ele>32.0</ele><time>2026-04-09T17:37:27.999Z</time></trkpt><trkpt lat="47.26491231941363" lon="-1.5979424491539578"><ele>31.400000000000002</ele><time>2026-04-09T17:37:28.999Z</time></trkpt><trkpt lat="47.264845892831" lon="-1.597825102509556"><ele>30.800000000000004</ele><time>2026-04-09T17:37:29.999Z</time></trkpt><trkpt lat="47.26469683114768" lon="-1.5978279153879484"><ele>30.2</ele><time>2026-04-09T17:37:30.999Z</time></trkpt><trkpt lat="47.2646347459775" lon="-1.5977206956795371"><ele>29.6</ele><time>2026-04-09T17:37:31.999Z</time></trkpt><trkpt lat="47.26457570544465" lon="-1.5976037361150004"><ele>29.0</ele><time>2026-04-09T17:37:32.999Z</time></trkpt><trkpt lat="47.26453278399294" lon="-1.5975064127908452"><ele>28.666666666666664</ele><time>2026-04-09T17:37:33.999Z</time></trkpt><trkpt lat="47.26449886662342" lon="-1.5974277550839229"><ele>28.333333333333332</ele><time>2026-04-09T17:37:34.999Z</time></trkpt><trkpt lat="47.26443264075286" lon="-1.5974007582777385"><ele>28.0</ele><time>2026-04-09T17:37:35.999Z</time></trkpt><trkpt lat="47.26438009000568" lon="-1.5973082172446407"><ele>27.666666666666664</ele><time>2026-04-09T17:37:37.999Z</time></trkpt><trkpt lat="47.264314752186664" lon="-1.5972122222068017"><ele>27.333333333333332</ele><time>2026-04-09T17:37:38.999Z</time></trkpt><trkpt lat="47.264260867741406" lon="-1.59712545611877"><ele>27.0</ele><time>2026-04-09T17:37:40.999Z</time></trkpt><trkpt lat="47.26419266774687" lon="-1.5970032162779921"><ele>26.5</ele><time>2026-04-09T17:37:42.999Z</time></trkpt><trkpt lat="47.264121690456584" lon="-1.5968759060169282"><ele>26.0</ele><time>2026-04-09T17:37:43.999Z</time></trkpt><trkpt lat="47.26403344979013" lon="-1.5967562729854397"><ele>25.5</ele><time>2026-04-09T17:37:45.999Z</time></trkpt><trkpt lat="47.263917910011486" lon="-1.5967322057160889"><ele>25.0</ele><time>2026-04-09T17:37:46.999Z</time></trkpt><trkpt lat="47.2638145018486" lon="-1.5965418296864955"><ele>24.6</ele><time>2026-04-09T17:37:47.999Z</time></trkpt><trkpt lat="47.26386111551307" lon="-1.5964432871459822"><ele>24.2</ele><time>2026-04-09T17:37:48.999Z</time></trkpt><trkpt lat="47.26390657485208" lon="-1.5961571037784181"><ele>23.799999999999997</ele><time>2026-04-09T17:37:50.999Z</time></trkpt><trkpt lat="47.26385213439098" lon="-1.5960884559914432"><ele>23.4</ele><time>2026-04-09T17:37:51.999Z</time></trkpt><trkpt lat="47.263812823265106" lon="-1.5960109233871065"><ele>23.0</ele><time>2026-04-09T17:37:52.999Z</time></trkpt><trkpt lat="47.263731183528215" lon="-1.595875807107981"><ele>23.799999999999997</ele><time>2026-04-09T17:37:54.999Z</time></trkpt><trkpt lat="47.26365440529516" lon="-1.5957501623794397"><ele>24.6</ele><time>2026-04-09T17:37:56.999Z</time></trkpt><trkpt lat="47.263604407242745" lon="-1.595611609520014"><ele>25.400000000000002</ele><time>2026-04-09T17:37:58.999Z</time></trkpt><trkpt lat="47.26354963150552" lon="-1.5954648423954803"><ele>26.200000000000003</ele><time>2026-04-09T17:38:00.999Z</time></trkpt><trkpt lat="47.2634911677309" lon="-1.5953318215921477"><ele>27.0</ele><time>2026-04-09T17:38:02.999Z</time></trkpt><trkpt lat="47.26343630817464" lon="-1.5951890777811362"><ele>27.0</ele><time>2026-04-09T17:38:04.999Z</time></trkpt><trkpt lat="47.2633571830087" lon="-1.5951009001597716"><ele>27.000000000000004</ele><time>2026-04-09T17:38:06.999Z</time></trkpt><trkpt lat="47.26330496375194" lon="-1.5949555579587769"><ele>27.000000000000004</ele><time>2026-04-09T17:38:08.999Z</time></trkpt><trkpt lat="47.263243524401695" lon="-1.5948484372362446"><ele>27.0</ele><time>2026-04-09T17:38:10.999Z</time></trkpt><trkpt lat="47.263180199123234" lon="-1.5947303362205576"><ele>27.0</ele><time>2026-04-09T17:38:12.999Z</time></trkpt><trkpt lat="47.26310597737065" lon="-1.5946094691768238"><ele>27.400000000000002</ele><time>2026-04-09T17:38:14.999Z</time></trkpt><trkpt lat="47.26302136205813" lon="-1.594469742850954"><ele>27.800000000000004</ele><time>2026-04-09T17:38:16.999Z</time></trkpt><trkpt lat="47.26297534540972" lon="-1.5943233110025472"><ele>28.2</ele><time>2026-04-09T17:38:18.999Z</time></trkpt><trkpt lat="47.262923293791026" lon="-1.5941990911975448"><ele>28.6</ele><time>2026-04-09T17:38:20.999Z</time></trkpt><trkpt lat="47.26286034569821" lon="-1.5940883662566487"><ele>29.0</ele><time>2026-04-09T17:38:22.999Z</time></trkpt><trkpt lat="47.26284232460639" lon="-1.5939551778152528"><ele>28.999999999999996</ele><time>2026-04-09T17:38:24.999Z</time></trkpt><trkpt lat="47.262809383726925" lon="-1.5938670001938882"><ele>29.0</ele><time>2026-04-09T17:38:26.999Z</time></trkpt><trkpt lat="47.26275205150923" lon="-1.5937889646753611"><ele>29.0</ele><time>2026-04-09T17:38:28.999Z</time></trkpt><trkpt lat="47.26268202070823" lon="-1.5937165450319588"><ele>29.0</ele><time>2026-04-09T17:38:30.999Z</time></trkpt><trkpt lat="47.26262037181041" lon="-1.5936918184176028"><ele>28.999999999999996</ele><time>2026-04-09T17:38:31.999Z</time></trkpt><trkpt lat="47.26253609177402" lon="-1.5936458855882227"><ele>29.0</ele><time>2026-04-09T17:38:33.999Z</time></trkpt><trkpt lat="47.26250533018938" lon="-1.593533232809597"><ele>28.799999999999997</ele><time>2026-04-09T17:38:35.999Z</time></trkpt><trkpt lat="47.262451015456826" lon="-1.5934122819468317"><ele>28.599999999999998</ele><time>2026-04-09T17:38:37.999Z</time></trkpt><trkpt lat="47.262404286346644" lon="-1.5932982880636988"><ele>28.4</ele><time>2026-04-09T17:38:39.999Z</time></trkpt><trkpt lat="47.26236497522077" lon="-1.593199465425306"><ele>28.2</ele><time>2026-04-09T17:38:41.999Z</time></trkpt><trkpt lat="47.26230416451326" lon="-1.5930986311301525"><ele>28.0</ele><time>2026-04-09T17:38:43.999Z</time></trkpt><trkpt lat="47.262248382947654" lon="-1.5929889958366685"><ele>28.0</ele><time>2026-04-09T17:38:45.999Z</time></trkpt><trkpt lat="47.262188997163676" lon="-1.592851029710465"><ele>27.999999999999996</ele><time>2026-04-09T17:38:47.999Z</time></trkpt><trkpt lat="47.262123953595065" lon="-1.5927170868977836"><ele>27.999999999999996</ele><time>2026-04-09T17:38:49.999Z</time></trkpt><trkpt lat="47.262091683267855" lon="-1.5925788693144847"><ele>28.0</ele><time>2026-04-09T17:38:51.999Z</time></trkpt><trkpt lat="47.262088833420776" lon="-1.5924341138467122"><ele>28.0</ele><time>2026-04-09T17:38:53.999Z</time></trkpt><trkpt lat="47.26206025113096" lon="-1.5923083014801072"><ele>28.2</ele><time>2026-04-09T17:38:55.999Z</time></trkpt><trkpt lat="47.26200954061677" lon="-1.592193804682784"><ele>28.4</ele><time>2026-04-09T17:38:57.999Z</time></trkpt><trkpt lat="47.26196566135367" lon="-1.5920970775201841"><ele>28.599999999999998</ele><time>2026-04-09T17:38:59.999Z</time></trkpt><trkpt lat="47.26194449704816" lon="-1.5919591113939806"><ele>28.799999999999997</ele><time>2026-04-09T17:39:01.999Z</time></trkpt><trkpt lat="47.261849781542324" lon="-1.591829946266107"><ele>29.0</ele><time>2026-04-09T17:39:03.999Z</time></trkpt><trkpt lat="47.26176906381478" lon="-1.591715365649752"><ele>29.4</ele><time>2026-04-09T17:39:05.999Z</time></trkpt><trkpt lat="47.26172266998073" lon="-1.5916393417879862"><ele>29.799999999999997</ele><time>2026-04-09T17:39:06.999Z</time></trkpt><trkpt lat="47.26165557284584" lon="-1.59151445143073"><ele>30.200000000000003</ele><time>2026-04-09T17:39:08.999Z</time></trkpt><trkpt lat="47.26163470190694" lon="-1.5913210809245624"><ele>30.6</ele><time>2026-04-09T17:39:10.999Z</time></trkpt><trkpt lat="47.261624853170716" lon="-1.5912134572878398"><ele>31.0</ele><time>2026-04-09T17:39:11.999Z</time></trkpt><trkpt lat="47.26157607049426" lon="-1.5910985413953578"><ele>31.75</ele><time>2026-04-09T17:39:12.999Z</time></trkpt><trkpt lat="47.261562030806445" lon="-1.5908927656724963"><ele>32.5</ele><time>2026-04-09T17:39:14.999Z</time></trkpt><trkpt lat="47.261537052734994" lon="-1.590734431521586"><ele>33.25</ele><time>2026-04-09T17:39:16.999Z</time></trkpt><trkpt lat="47.26153252650728" lon="-1.5905851498261006"><ele>34.0</ele><time>2026-04-09T17:39:18.999Z</time></trkpt><trkpt lat="47.26150813516905" lon="-1.5903995744898825"><ele>34.333333333333336</ele><time>2026-04-09T17:39:20.999Z</time></trkpt><trkpt lat="47.261484623930656" lon="-1.5902082156404762"><ele>34.66666666666667</ele><time>2026-04-09T17:39:22.999Z</time></trkpt><trkpt lat="47.261456796012126" lon="-1.59011752344816"><ele>35.0</ele><time>2026-04-09T17:39:23.999Z</time></trkpt><trkpt lat="47.26142963864585" lon="-1.590024735780051"><ele>35.333333333333336</ele><time>2026-04-09T17:39:24.999Z</time></trkpt><trkpt lat="47.261414928405785" lon="-1.589931026102593"><ele>35.666666666666664</ele><time>2026-04-09T17:39:25.999Z</time></trkpt><trkpt lat="47.26139020179143" lon="-1.5898379031583572"><ele>36.0</ele><time>2026-04-09T17:39:26.999Z</time></trkpt><trkpt lat="47.261386388025485" lon="-1.5896889567389987"><ele>35.8</ele><time>2026-04-09T17:39:28.999Z</time></trkpt><trkpt lat="47.26135256704619" lon="-1.589525425808122"><ele>35.6</ele><time>2026-04-09T17:39:30.999Z</time></trkpt><trkpt lat="47.26131782405754" lon="-1.5893827658161421"><ele>35.4</ele><time>2026-04-09T17:39:32.999Z</time></trkpt><trkpt lat="47.26133421067824" lon="-1.589243123309304"><ele>35.2</ele><time>2026-04-09T17:39:34.999Z</time></trkpt><trkpt lat="47.261312124363386" lon="-1.5890930872425335"><ele>35.0</ele><time>2026-04-09T17:39:36.999Z</time></trkpt><trkpt lat="47.2612508526512" lon="-1.588957132773091"><ele>35.0</ele><time>2026-04-09T17:39:38.999Z</time></trkpt><trkpt lat="47.261243728033506" lon="-1.5888175740852848"><ele>35.0</ele><time>2026-04-09T17:39:40.999Z</time></trkpt><trkpt lat="47.26122595839878" lon="-1.5886801108732713"><ele>35.0</ele><time>2026-04-09T17:39:42.999Z</time></trkpt><trkpt lat="47.261203159622156" lon="-1.5885543823256982"><ele>35.0</ele><time>2026-04-09T17:39:44.999Z</time></trkpt><trkpt lat="47.261184551797115" lon="-1.5884334314629327"><ele>35.0</ele><time>2026-04-09T17:39:46.999Z</time></trkpt><trkpt lat="47.26117386487057" lon="-1.5883029252305518"><ele>35.5</ele><time>2026-04-09T17:39:48.999Z</time></trkpt><trkpt lat="47.26114825815638" lon="-1.5881933737560996"><ele>36.0</ele><time>2026-04-09T17:39:50.999Z</time></trkpt><trkpt lat="47.261132751635515" lon="-1.5880778711303958"><ele>36.5</ele><time>2026-04-09T17:39:52.999Z</time></trkpt><trkpt lat="47.26111628119578" lon="-1.5879719238743073"><ele>37.0</ele><time>2026-04-09T17:39:54.999Z</time></trkpt><trkpt lat="47.26109482352366" lon="-1.5878633782282359"><ele>37.5</ele><time>2026-04-09T17:39:56.999Z</time></trkpt><trkpt lat="47.26106917489996" lon="-1.587746953593183"><ele>38.0</ele><time>2026-04-09T17:39:58.999Z</time></trkpt><trkpt lat="47.26103929341515" lon="-1.5876340493574623"><ele>38.0</ele><time>2026-04-09T17:40:00.999Z</time></trkpt><trkpt lat="47.26099189375272" lon="-1.587513936685014"><ele>38.0</ele><time>2026-04-09T17:40:02.998Z</time></trkpt><trkpt lat="47.26098095536908" lon="-1.5873991884305956"><ele>38.0</ele><time>2026-04-09T17:40:04.998Z</time></trkpt><trkpt lat="47.260972699194454" lon="-1.5872736275210857"><ele>38.0</ele><time>2026-04-09T17:40:06.998Z</time></trkpt><trkpt lat="47.2609442845427" lon="-1.5871518384680032"><ele>38.0</ele><time>2026-04-09T17:40:08.998Z</time></trkpt><trkpt lat="47.26093179550698" lon="-1.587030803786206"><ele>38.0</ele><time>2026-04-09T17:40:10.998Z</time></trkpt><trkpt lat="47.2609117627584" lon="-1.586916223169851"><ele>38.199999999999996</ele><time>2026-04-09T17:40:12.998Z</time></trkpt><trkpt lat="47.26089918990364" lon="-1.5867940988406415"><ele>38.4</ele><time>2026-04-09T17:40:14.998Z</time></trkpt><trkpt lat="47.26088804197242" lon="-1.5866680350169415"><ele>38.599999999999994</ele><time>2026-04-09T17:40:16.998Z</time></trkpt><trkpt lat="47.26088267755439" lon="-1.5865390375271313"><ele>38.8</ele><time>2026-04-09T17:40:18.998Z</time></trkpt><trkpt lat="47.26090618879279" lon="-1.5863963775351517"><ele>39.0</ele><time>2026-04-09T17:40:20.998Z</time></trkpt><trkpt lat="47.26093954876741" lon="-1.5862577408566942"><ele>39.0</ele><time>2026-04-09T17:40:22.998Z</time></trkpt><trkpt lat="47.26097395647993" lon="-1.58613050356655"><ele>39.0</ele><time>2026-04-09T17:40:24.998Z</time></trkpt><trkpt lat="47.261020937047206" lon="-1.58603277057557"><ele>39.0</ele><time>2026-04-09T17:40:26.998Z</time></trkpt><trkpt lat="47.261082669764065" lon="-1.585926990957545"><ele>39.0</ele><time>2026-04-09T17:40:28.998Z</time></trkpt><trkpt lat="47.26114972498944" lon="-1.5858069621041284"><ele>39.0</ele><time>2026-04-09T17:40:30.998Z</time></trkpt><trkpt lat="47.261223611465894" lon="-1.5857011824861036"><ele>39.0</ele><time>2026-04-09T17:40:32.998Z</time></trkpt><trkpt lat="47.261267197362386" lon="-1.5855898708119853"><ele>39.0</ele><time>2026-04-09T17:40:34.998Z</time></trkpt><trkpt lat="47.26142305885186" lon="-1.5855559241041406"><ele>39.0</ele><time>2026-04-09T17:40:40.998Z</time></trkpt><trkpt lat="47.26138429254969" lon="-1.5854467917248471"><ele>39.0</ele><time>2026-04-09T17:40:51.998Z</time></trkpt><trkpt lat="47.26134770554235" lon="-1.5853599552079898"><ele>39.0</ele><time>2026-04-09T17:40:53.998Z</time></trkpt><trkpt lat="47.26129649211397" lon="-1.5852536726757747"><ele>39.4</ele><time>2026-04-09T17:40:55.998Z</time></trkpt><trkpt lat="47.26123417266389" lon="-1.5851225797101716"><ele>39.8</ele><time>2026-04-09T17:40:57.998Z</time></trkpt><trkpt lat="47.26115353875538" lon="-1.5850265230998257"><ele>40.199999999999996</ele><time>2026-04-09T17:40:59.998Z</time></trkpt><trkpt lat="47.26105840415438" lon="-1.5849609766170243"><ele>40.599999999999994</ele><time>2026-04-09T17:41:01.998Z</time></trkpt><trkpt lat="47.26096159317275" lon="-1.584887634964273"><ele>41.0</ele><time>2026-04-09T17:41:03.998Z</time></trkpt><trkpt lat="47.260860800787114" lon="-1.5848227590337254"><ele>41.0</ele><time>2026-04-09T17:41:05.998Z</time></trkpt><trkpt lat="47.260751123584114" lon="-1.5848002955332257"><ele>41.0</ele><time>2026-04-09T17:41:07.998Z</time></trkpt><trkpt lat="47.26065665953537" lon="-1.584809599445746"><ele>41.0</ele><time>2026-04-09T17:41:09.998Z</time></trkpt><trkpt lat="47.26053587631067" lon="-1.5847852081075169"><ele>41.0</ele><time>2026-04-09T17:41:11.998Z</time></trkpt><trkpt lat="47.26045595486393" lon="-1.5846910793349003"><ele>41.0</ele><time>2026-04-09T17:41:13.998Z</time></trkpt><trkpt lat="47.26042930041184" lon="-1.5845355112120365"><ele>41.199999999999996</ele><time>2026-04-09T17:41:15.998Z</time></trkpt><trkpt lat="47.260422091975116" lon="-1.584345325829074"><ele>41.4</ele><time>2026-04-09T17:41:17.998Z</time></trkpt><trkpt lat="47.2604125366055" lon="-1.5842489339426014"><ele>41.6</ele><time>2026-04-09T17:41:18.998Z</time></trkpt><trkpt lat="47.26039866455575" lon="-1.5841565653696508"><ele>41.8</ele><time>2026-04-09T17:41:19.998Z</time></trkpt><trkpt lat="47.260390031195485" lon="-1.5839704871192424"><ele>42.0</ele><time>2026-04-09T17:41:21.998Z</time></trkpt><trkpt lat="47.2603866365247" lon="-1.5838595107212512"><ele>42.0</ele><time>2026-04-09T17:41:22.998Z</time></trkpt><trkpt lat="47.26037963763555" lon="-1.583758173511907"><ele>42.0</ele><time>2026-04-09T17:41:23.998Z</time></trkpt><trkpt lat="47.260376662059926" lon="-1.58365130424647"><ele>42.0</ele><time>2026-04-09T17:41:24.998Z</time></trkpt><trkpt lat="47.26036589131435" lon="-1.5835515595987286"><ele>42.0</ele><time>2026-04-09T17:41:25.998Z</time></trkpt><trkpt lat="47.2603364289247" lon="-1.5833633020534956"><ele>42.0</ele><time>2026-04-09T17:41:27.998Z</time></trkpt><trkpt lat="47.2603166057237" lon="-1.583261797206088"><ele>42.0</ele><time>2026-04-09T17:41:28.998Z</time></trkpt><trkpt lat="47.2603123728626" lon="-1.5831662435099325"><ele>41.8</ele><time>2026-04-09T17:41:29.998Z</time></trkpt><trkpt lat="47.260294728956424" lon="-1.5829773992314775"><ele>41.6</ele><time>2026-04-09T17:41:31.998Z</time></trkpt><trkpt lat="47.26029053800484" lon="-1.582866506652518"><ele>41.4</ele><time>2026-04-09T17:41:32.998Z</time></trkpt><trkpt lat="47.26027423520317" lon="-1.5827682707473474"><ele>41.199999999999996</ele><time>2026-04-09T17:41:33.998Z</time></trkpt><trkpt lat="47.26025453773072" lon="-1.5825853776201444"><ele>41.0</ele><time>2026-04-09T17:41:35.998Z</time></trkpt><trkpt lat="47.26025386717846" lon="-1.5824812743827537"><ele>40.8</ele><time>2026-04-09T17:41:36.998Z</time></trkpt><trkpt lat="47.26025286135008" lon="-1.5823076013490391"><ele>40.599999999999994</ele><time>2026-04-09T17:41:38.998Z</time></trkpt><trkpt lat="47.26023085885426" lon="-1.582133006305976"><ele>40.4</ele><time>2026-04-09T17:41:40.998Z</time></trkpt><trkpt lat="47.26020210892638" lon="-1.582037536428852"><ele>40.2</ele><time>2026-04-09T17:41:41.998Z</time></trkpt><trkpt lat="47.260159864134394" lon="-1.5818672161564062"><ele>40.0</ele><time>2026-04-09T17:41:43.998Z</time></trkpt><trkpt lat="47.26015441589733" lon="-1.5817711595460602"><ele>39.857142857142854</ele><time>2026-04-09T17:41:44.998Z</time></trkpt><trkpt lat="47.260116948790156" lon="-1.5816875081524082"><ele>39.714285714285715</ele><time>2026-04-09T17:41:45.998Z</time></trkpt><trkpt lat="47.26007009395143" lon="-1.5816186089083382"><ele>39.57142857142857</ele><time>2026-04-09T17:41:46.998Z</time></trkpt><trkpt lat="47.260013558014535" lon="-1.5815582592055029"><ele>39.42857142857143</ele><time>2026-04-09T17:41:47.998Z</time></trkpt><trkpt lat="47.259951364293" lon="-1.5815145894899791"><ele>39.285714285714285</ele><time>2026-04-09T17:41:48.998Z</time></trkpt><trkpt lat="47.25989792966028" lon="-1.5814530663207"><ele>39.142857142857146</ele><time>2026-04-09T17:41:49.998Z</time></trkpt><trkpt lat="47.25983250890603" lon="-1.581382658334059"><ele>39.0</ele><time>2026-04-09T17:41:50.998Z</time></trkpt><trkpt lat="47.25977081809869" lon="-1.5813279245063487"><ele>39.0</ele><time>2026-04-09T17:41:51.998Z</time></trkpt><trkpt lat="47.25971834738483" lon="-1.5812594443574373"><ele>39.0</ele><time>2026-04-09T17:41:52.998Z</time></trkpt><trkpt lat="47.25965657275846" lon="-1.5812134277090255"><ele>39.0</ele><time>2026-04-09T17:41:53.998Z</time></trkpt><trkpt lat="47.25955192469736" lon="-1.581139331684989"><ele>39.0</ele><time>2026-04-09T17:41:55.998Z</time></trkpt><trkpt lat="47.2594093066149" lon="-1.5811026189490975"><ele>39.0</ele><time>2026-04-09T17:41:57.998Z</time></trkpt><trkpt lat="47.25935474042525" lon="-1.5810402575895013"><ele>39.0</ele><time>2026-04-09T17:41:58.998Z</time></trkpt><trkpt lat="47.25925269075414" lon="-1.5809279400870027"><ele>39.0</ele><time>2026-04-09T17:42:00.998Z</time></trkpt><trkpt lat="47.25918131884863" lon="-1.5808970108642995"><ele>39.0</ele><time>2026-04-09T17:42:01.998Z</time></trkpt><trkpt lat="47.25910873156717" lon="-1.5808743797257363"><ele>39.0</ele><time>2026-04-09T17:42:02.998Z</time></trkpt><trkpt lat="47.259058356329106" lon="-1.5808070730432688"><ele>39.0</ele><time>2026-04-09T17:42:03.998Z</time></trkpt><trkpt lat="47.259005550339126" lon="-1.5807433705791651"><ele>39.0</ele><time>2026-04-09T17:42:04.998Z</time></trkpt><trkpt lat="47.25891213402828" lon="-1.5806262753918585"><ele>39.0</ele><time>2026-04-09T17:42:06.998Z</time></trkpt><trkpt lat="47.258854005529784" lon="-1.5805738046780047"><ele>39.0</ele><time>2026-04-09T17:42:07.998Z</time></trkpt><trkpt lat="47.25878971633246" lon="-1.5805208310499606"><ele>39.0</ele><time>2026-04-09T17:42:08.998Z</time></trkpt><trkpt lat="47.25872366693547" lon="-1.5804726351067242"><ele>39.0</ele><time>2026-04-09T17:42:09.998Z</time></trkpt><trkpt lat="47.25865464196285" lon="-1.5804492495968756"><ele>39.0</ele><time>2026-04-09T17:42:10.998Z</time></trkpt><trkpt lat="47.25860208742996" lon="-1.5803749859347755"><ele>39.0</ele><time>2026-04-09T17:42:11.998Z</time></trkpt><trkpt lat="47.25850448016753" lon="-1.580257639290374"><ele>38.85714285714286</ele><time>2026-04-09T17:42:13.998Z</time></trkpt><trkpt lat="47.258452344729804" lon="-1.5802042465671713"><ele>38.71428571428571</ele><time>2026-04-09T17:42:14.998Z</time></trkpt><trkpt lat="47.258397485173546" lon="-1.5801473334446363"><ele>38.57142857142857</ele><time>2026-04-09T17:42:15.998Z</time></trkpt><trkpt lat="47.25833432753315" lon="-1.5801006462439708"><ele>38.42857142857143</ele><time>2026-04-09T17:42:16.998Z</time></trkpt><trkpt lat="47.258273768282734" lon="-1.5800429787501507"><ele>38.28571428571429</ele><time>2026-04-09T17:42:18Z</time></trkpt><trkpt lat="47.25821555596521" lon="-1.5799882449224405"><ele>38.14285714285714</ele><time>2026-04-09T17:42:19Z</time></trkpt><trkpt lat="47.25814984184434" lon="-1.5799446590259483"><ele>38.0</ele><time>2026-04-09T17:42:20Z</time></trkpt><trkpt lat="47.258092970631324" lon="-1.5798857342466524"><ele>38.0</ele><time>2026-04-09T17:42:21Z</time></trkpt><trkpt lat="47.258029938719474" lon="-1.5798383764937332"><ele>38.0</ele><time>2026-04-09T17:42:22Z</time></trkpt><trkpt lat="47.25796849936923" lon="-1.5797709021732023"><ele>38.0</ele><time>2026-04-09T17:42:23Z</time></trkpt><trkpt lat="47.257907521023654" lon="-1.5797294955715349"><ele>38.0</ele><time>2026-04-09T17:42:24Z</time></trkpt><trkpt lat="47.25785295483401" lon="-1.5796714089825559"><ele>38.0</ele><time>2026-04-09T17:42:25Z</time></trkpt><trkpt lat="47.25779587407341" lon="-1.5796129032984185"><ele>38.0</ele><time>2026-04-09T17:42:26Z</time></trkpt><trkpt lat="47.25772911221465" lon="-1.5795590914800572"><ele>38.0</ele><time>2026-04-09T17:42:27Z</time></trkpt><trkpt lat="47.25766172171315" lon="-1.579518523068707"><ele>38.0</ele><time>2026-04-09T17:42:28Z</time></trkpt><trkpt lat="47.25759839643469" lon="-1.5794626157745526"><ele>38.0</ele><time>2026-04-09T17:42:29Z</time></trkpt><trkpt lat="47.25753196985205" lon="-1.579400086776893"><ele>38.0</ele><time>2026-04-09T17:42:30Z</time></trkpt><trkpt lat="47.25746906366875" lon="-1.579348202796261"><ele>38.0</ele><time>2026-04-09T17:42:31Z</time></trkpt><trkpt lat="47.257399703420006" lon="-1.5793026890620396"><ele>38.0</ele><time>2026-04-09T17:42:32Z</time></trkpt><trkpt lat="47.25733528849413" lon="-1.579258684070389"><ele>38.0</ele><time>2026-04-09T17:42:33Z</time></trkpt><trkpt lat="47.25726844281634" lon="-1.5792131703361674"><ele>38.0</ele><time>2026-04-09T17:42:34Z</time></trkpt><trkpt lat="47.25721383471718" lon="-1.5791515633478566"><ele>38.166666666666664</ele><time>2026-04-09T17:42:35Z</time></trkpt><trkpt lat="47.257151934362255" lon="-1.5790973324343367"><ele>38.33333333333333</ele><time>2026-04-09T17:42:36Z</time></trkpt><trkpt lat="47.257040957964264" lon="-1.578989708797614"><ele>38.5</ele><time>2026-04-09T17:42:38Z</time></trkpt><trkpt lat="47.256972058720194" lon="-1.578940507025997"><ele>38.666666666666664</ele><time>2026-04-09T17:42:39Z</time></trkpt><trkpt lat="47.25691363685509" lon="-1.5788887068643969"><ele>38.833333333333336</ele><time>2026-04-09T17:42:40Z</time></trkpt><trkpt lat="47.25686091468414" lon="-1.5788325481131475"><ele>39.0</ele><time>2026-04-09T17:42:41Z</time></trkpt><trkpt lat="47.25680224136194" lon="-1.5787754673525494"><ele>39.0</ele><time>2026-04-09T17:42:42Z</time></trkpt><trkpt lat="47.25668761883607" lon="-1.5786785725518862"><ele>39.0</ele><time>2026-04-09T17:42:44Z</time></trkpt><trkpt lat="47.25663577676495" lon="-1.5786215756103197"><ele>39.0</ele><time>2026-04-09T17:42:45Z</time></trkpt><trkpt lat="47.25653167352756" lon="-1.5785297099515596"><ele>39.0</ele><time>2026-04-09T17:42:47Z</time></trkpt><trkpt lat="47.25647551477631" lon="-1.5784805919989742"><ele>39.0</ele><time>2026-04-09T17:42:48Z</time></trkpt><trkpt lat="47.25641587753525" lon="-1.5784404426827825"><ele>39.0</ele><time>2026-04-09T17:42:49Z</time></trkpt><trkpt lat="47.25636068270286" lon="-1.5783910732731021"><ele>39.166666666666664</ele><time>2026-04-09T17:42:50Z</time></trkpt><trkpt lat="47.256300249180995" lon="-1.5783543605372108"><ele>39.333333333333336</ele><time>2026-04-09T17:42:51Z</time></trkpt><trkpt lat="47.25624928720971" lon="-1.5782876405879653"><ele>39.5</ele><time>2026-04-09T17:42:52Z</time></trkpt><trkpt lat="47.25619681649586" lon="-1.5782260335996543"><ele>39.66666666666667</ele><time>2026-04-09T17:42:53Z</time></trkpt><trkpt lat="47.25610189144244" lon="-1.578117152677456"><ele>39.833333333333336</ele><time>2026-04-09T17:42:55Z</time></trkpt><trkpt lat="47.256044182039105" lon="-1.5780630055829679"><ele>40.0</ele><time>2026-04-09T17:42:56Z</time></trkpt><trkpt lat="47.2559744026952" lon="-1.5780230239048394"><ele>40.0</ele><time>2026-04-09T17:42:57Z</time></trkpt><trkpt lat="47.2558623366498" lon="-1.5779323317125233"><ele>40.0</ele><time>2026-04-09T17:42:59Z</time></trkpt><trkpt lat="47.25575647321274" lon="-1.5778288990273865"><ele>40.0</ele><time>2026-04-09T17:43:01Z</time></trkpt><trkpt lat="47.25569201637735" lon="-1.5778019092991742"><ele>40.0</ele><time>2026-04-09T17:43:02Z</time></trkpt><trkpt lat="47.25563803692093" lon="-1.5777435712531"><ele>40.0</ele><time>2026-04-09T17:43:03Z</time></trkpt><trkpt lat="47.255535568154656" lon="-1.5776657033726365"><ele>39.8</ele><time>2026-04-09T17:43:05Z</time></trkpt><trkpt lat="47.25544022400608" lon="-1.5775971394046933"><ele>39.6</ele><time>2026-04-09T17:43:07Z</time></trkpt><trkpt lat="47.25536616989156" lon="-1.5775763522848278"><ele>39.4</ele><time>2026-04-09T17:43:08Z</time></trkpt><trkpt lat="47.2552991565757" lon="-1.577542070300856"><ele>39.2</ele><time>2026-04-09T17:43:09Z</time></trkpt><trkpt lat="47.25524006415834" lon="-1.5773989912137178"><ele>39.0</ele><time>2026-04-09T17:43:11Z</time></trkpt><trkpt lat="47.25514044523915" lon="-1.5773171838387634"><ele>39.0</ele><time>2026-04-09T17:43:13Z</time></trkpt><trkpt lat="47.255034456073545" lon="-1.5772243961706545"><ele>39.0</ele><time>2026-04-09T17:43:15Z</time></trkpt><trkpt lat="47.25494091403415" lon="-1.5771257411703254"><ele>39.0</ele><time>2026-04-09T17:43:17Z</time></trkpt><trkpt lat="47.254842217124306" lon="-1.5770135074868583"><ele>39.0</ele><time>2026-04-09T17:43:19Z</time></trkpt><trkpt lat="47.254780107221805" lon="-1.5769582707449579"><ele>39.0</ele><time>2026-04-09T17:43:20Z</time></trkpt><trkpt lat="47.25470378999343" lon="-1.5769275091603183"><ele>38.833333333333336</ele><time>2026-04-09T17:43:21Z</time></trkpt><trkpt lat="47.25464612249961" lon="-1.5768692549332761"><ele>38.666666666666664</ele><time>2026-04-09T17:43:22Z</time></trkpt><trkpt lat="47.254590508572065" lon="-1.5768125932678363"><ele>38.5</ele><time>2026-04-09T17:43:23Z</time></trkpt><trkpt lat="47.25452529736538" lon="-1.5767619665726802"><ele>38.33333333333333</ele><time>2026-04-09T17:43:24Z</time></trkpt><trkpt lat="47.254458912692265" lon="-1.5767214819803617"><ele>38.166666666666664</ele><time>2026-04-09T17:43:25Z</time></trkpt><trkpt lat="47.254350157498614" lon="-1.5766409318908832"><ele>38.0</ele><time>2026-04-09T17:43:27Z</time></trkpt><trkpt lat="47.25427995905955" lon="-1.5766145288958928"><ele>38.0</ele><time>2026-04-09T17:43:29Z</time></trkpt><trkpt lat="47.25419672676106" lon="-1.5765856951489825"><ele>38.0</ele><time>2026-04-09T17:43:31Z</time></trkpt><trkpt lat="47.25410456773569" lon="-1.5765134431436438"><ele>38.0</ele><time>2026-04-09T17:43:33Z</time></trkpt><trkpt lat="47.25398822691967" lon="-1.57647513784615"><ele>38.0</ele><time>2026-04-09T17:43:35Z</time></trkpt><trkpt lat="47.25392054305156" lon="-1.5764611400678534"><ele>38.0</ele><time>2026-04-09T17:43:36Z</time></trkpt><trkpt lat="47.25385759495874" lon="-1.5764375031009097"><ele>38.0</ele><time>2026-04-09T17:43:37Z</time></trkpt><trkpt lat="47.25379586224188" lon="-1.576409759001412"><ele>37.83333333333333</ele><time>2026-04-09T17:43:38Z</time></trkpt><trkpt lat="47.25372461606492" lon="-1.5764049813166041"><ele>37.666666666666664</ele><time>2026-04-09T17:43:39Z</time></trkpt><trkpt lat="47.25361766298045" lon="-1.5763539355262892"><ele>37.5</ele><time>2026-04-09T17:43:41Z</time></trkpt><trkpt lat="47.25354415368964" lon="-1.5763449668898957"><ele>37.333333333333336</ele><time>2026-04-09T17:43:42Z</time></trkpt><trkpt lat="47.25343757779081" lon="-1.5763158816858904"><ele>37.16666666666667</ele><time>2026-04-09T17:43:44Z</time></trkpt><trkpt lat="47.253362978852586" lon="-1.5763062424972432"><ele>37.0</ele><time>2026-04-09T17:43:46Z</time></trkpt><trkpt lat="47.25327999801119" lon="-1.576275061817445"><ele>37.0</ele><time>2026-04-09T17:43:49Z</time></trkpt><trkpt lat="47.253200705207185" lon="-1.5762542746975796"><ele>37.0</ele><time>2026-04-09T17:43:52Z</time></trkpt><trkpt lat="47.253123717426554" lon="-1.576269781218447"><ele>37.0</ele><time>2026-04-09T17:43:54Z</time></trkpt><trkpt lat="47.25305104632606" lon="-1.5762200765326397"><ele>37.0</ele><time>2026-04-09T17:43:56Z</time></trkpt><trkpt lat="47.253029211468295" lon="-1.576086552815117"><ele>37.0</ele><time>2026-04-09T17:43:58Z</time></trkpt><trkpt lat="47.253015968061284" lon="-1.5759195853039398"><ele>37.0</ele><time>2026-04-09T17:44:00Z</time></trkpt><trkpt lat="47.25298516456713" lon="-1.5757568087443483"><ele>37.0</ele><time>2026-04-09T17:44:01.999Z</time></trkpt><trkpt lat="47.25294019565661" lon="-1.5756537113353384"><ele>37.0</ele><time>2026-04-09T17:44:02.999Z</time></trkpt><trkpt lat="47.25291471467097" lon="-1.5755516197547088"><ele>37.0</ele><time>2026-04-09T17:44:03.999Z</time></trkpt><trkpt lat="47.252878756306366" lon="-1.5754630230381856"><ele>37.0</ele><time>2026-04-09T17:44:04.999Z</time></trkpt><trkpt lat="47.252826956144766" lon="-1.5753736719503768"><ele>37.0</ele><time>2026-04-09T17:44:05.999Z</time></trkpt><trkpt lat="47.2527881898426" lon="-1.5752860810622342"><ele>37.0</ele><time>2026-04-09T17:44:06.999Z</time></trkpt><trkpt lat="47.25275814071973" lon="-1.5751787088826068"><ele>37.142857142857146</ele><time>2026-04-09T17:44:07.999Z</time></trkpt><trkpt lat="47.252729642248944" lon="-1.5750836581006413"><ele>37.285714285714285</ele><time>2026-04-09T17:44:08.999Z</time></trkpt><trkpt lat="47.25270487372507" lon="-1.5749927144512301"><ele>37.42857142857143</ele><time>2026-04-09T17:44:09.999Z</time></trkpt><trkpt lat="47.25266920872708" lon="-1.574909314514673"><ele>37.57142857142857</ele><time>2026-04-09T17:44:10.999Z</time></trkpt><trkpt lat="47.252617031379835" lon="-1.574820382522023"><ele>37.714285714285715</ele><time>2026-04-09T17:44:11.999Z</time></trkpt><trkpt lat="47.25258300085296" lon="-1.5747330430909756"><ele>37.857142857142854</ele><time>2026-04-09T17:44:12.999Z</time></trkpt><trkpt lat="47.25255839996715" lon="-1.5746276825681091"><ele>38.0</ele><time>2026-04-09T17:44:13.999Z</time></trkpt><trkpt lat="47.25250676744361" lon="-1.574544366450584"><ele>38.0</ele><time>2026-04-09T17:44:14.999Z</time></trkpt><trkpt lat="47.25246976134111" lon="-1.5744566917434095"><ele>38.0</ele><time>2026-04-09T17:44:15.999Z</time></trkpt><trkpt lat="47.252433090514735" lon="-1.5743647422656177"><ele>38.0</ele><time>2026-04-09T17:44:16.999Z</time></trkpt><trkpt lat="47.25239926953544" lon="-1.5742699429407476"><ele>38.0</ele><time>2026-04-09T17:44:17.999Z</time></trkpt><trkpt lat="47.252360251776174" lon="-1.574170198293006"><ele>38.0</ele><time>2026-04-09T17:44:18.999Z</time></trkpt><trkpt lat="47.252327981448964" lon="-1.5740711241975185"><ele>38.0</ele><time>2026-04-09T17:44:19.999Z</time></trkpt><trkpt lat="47.25228544329037" lon="-1.5739879757180568"><ele>38.0</ele><time>2026-04-09T17:44:20.999Z</time></trkpt><trkpt lat="47.25225518461992" lon="-1.5738854650422687"><ele>38.0</ele><time>2026-04-09T17:44:21.999Z</time></trkpt><trkpt lat="47.25222127982159" lon="-1.5737886540606374"><ele>38.0</ele><time>2026-04-09T17:44:22.999Z</time></trkpt><trkpt lat="47.25219537974079" lon="-1.5736963693067185"><ele>38.0</ele><time>2026-04-09T17:44:23.999Z</time></trkpt><trkpt lat="47.25216499534179" lon="-1.573598468677675"><ele>38.0</ele><time>2026-04-09T17:44:24.999Z</time></trkpt><trkpt lat="47.25213519767602" lon="-1.5734879113748421"><ele>38.0</ele><time>2026-04-09T17:44:25.999Z</time></trkpt><trkpt lat="47.25209651519288" lon="-1.5734006557628264"><ele>38.0</ele><time>2026-04-09T17:44:26.999Z</time></trkpt><trkpt lat="47.25204827734013" lon="-1.5733045153334488"><ele>38.0</ele><time>2026-04-09T17:44:27.999Z</time></trkpt><trkpt lat="47.251996519088046" lon="-1.5732238814249384"><ele>38.0</ele><time>2026-04-09T17:44:28.999Z</time></trkpt><trkpt lat="47.25195175972511" lon="-1.5731354523464787"><ele>38.0</ele><time>2026-04-09T17:44:29.999Z</time></trkpt><trkpt lat="47.25190641362895" lon="-1.5730474423631775"><ele>38.0</ele><time>2026-04-09T17:44:30.999Z</time></trkpt><trkpt lat="47.25186576139857" lon="-1.5729624498650179"><ele>38.0</ele><time>2026-04-09T17:44:31.999Z</time></trkpt><trkpt lat="47.25182334896852" lon="-1.5728719253107653"><ele>38.0</ele><time>2026-04-09T17:44:32.999Z</time></trkpt><trkpt lat="47.25178177472879" lon="-1.5727865975364788"><ele>38.0</ele><time>2026-04-09T17:44:33.999Z</time></trkpt><trkpt lat="47.25174191877921" lon="-1.572697581724797"><ele>38.0</ele><time>2026-04-09T17:44:34.999Z</time></trkpt><trkpt lat="47.25170755297621" lon="-1.5725959092393262"><ele>37.857142857142854</ele><time>2026-04-09T17:44:35.999Z</time></trkpt><trkpt lat="47.251670043959514" lon="-1.572506977246676"><ele>37.714285714285715</ele><time>2026-04-09T17:44:36.999Z</time></trkpt><trkpt lat="47.25163345695217" lon="-1.5724169556066137"><ele>37.57142857142857</ele><time>2026-04-09T17:44:37.999Z</time></trkpt><trkpt lat="47.25160412029107" lon="-1.5723191387966018"><ele>37.42857142857143</ele><time>2026-04-09T17:44:38.999Z</time></trkpt><trkpt lat="47.25157092795451" lon="-1.5722234174623826"><ele>37.285714285714285</ele><time>2026-04-09T17:44:39.999Z</time></trkpt><trkpt lat="47.251530108086065" lon="-1.572140855716143"><ele>37.142857142857146</ele><time>2026-04-09T17:44:40.999Z</time></trkpt><trkpt lat="47.251494904092745" lon="-1.572046810762558"><ele>37.0</ele><time>2026-04-09T17:44:41.999Z</time></trkpt><trkpt lat="47.25146225657989" lon="-1.571957878769908"><ele>37.0</ele><time>2026-04-09T17:44:42.999Z</time></trkpt><trkpt lat="47.25142294545402" lon="-1.571864504368577"><ele>37.0</ele><time>2026-04-09T17:44:43.999Z</time></trkpt><trkpt lat="47.25138204176654" lon="-1.571774901823673"><ele>37.0</ele><time>2026-04-09T17:44:44.999Z</time></trkpt><trkpt lat="47.251349310434655" lon="-1.5716826170697544"><ele>37.0</ele><time>2026-04-09T17:44:45.999Z</time></trkpt><trkpt lat="47.25132349417289" lon="-1.5715894103064867"><ele>37.0</ele><time>2026-04-09T17:44:46.999Z</time></trkpt><trkpt lat="47.251281919933156" lon="-1.5715020708754392"><ele>37.0</ele><time>2026-04-09T17:44:47.999Z</time></trkpt><trkpt lat="47.25120455496688" lon="-1.5713402163251966"><ele>37.0</ele><time>2026-04-09T17:44:49.999Z</time></trkpt><trkpt lat="47.25116101097991" lon="-1.5712646115585893"><ele>37.0</ele><time>2026-04-09T17:44:50.999Z</time></trkpt><trkpt lat="47.25111796990712" lon="-1.5711715724333852"><ele>37.0</ele><time>2026-04-09T17:44:51.999Z</time></trkpt><trkpt lat="47.25108268209477" lon="-1.5710766054704515"><ele>37.0</ele><time>2026-04-09T17:44:52.999Z</time></trkpt><trkpt lat="47.25103410896589" lon="-1.570990188048753"><ele>37.0</ele><time>2026-04-09T17:44:53.999Z</time></trkpt><trkpt lat="47.25099668376823" lon="-1.5708984062090245"><ele>37.0</ele><time>2026-04-09T17:44:54.999Z</time></trkpt><trkpt lat="47.25095582199027" lon="-1.5708029363319005"><ele>37.0</ele><time>2026-04-09T17:44:55.999Z</time></trkpt><trkpt lat="47.250915672674076" lon="-1.5707108192160453"><ele>37.0</ele><time>2026-04-09T17:44:56.999Z</time></trkpt><trkpt lat="47.2508858750083" lon="-1.5706131700440966"><ele>37.0</ele><time>2026-04-09T17:44:57.999Z</time></trkpt><trkpt lat="47.2508340748467" lon="-1.5705295186504447"><ele>37.0</ele><time>2026-04-09T17:44:58.999Z</time></trkpt><trkpt lat="47.250799625224666" lon="-1.57044427469519"><ele>37.0</ele><time>2026-04-09T17:44:59.999Z</time></trkpt><trkpt lat="47.250751471190945" lon="-1.5703809913262448"><ele>37.0</ele><time>2026-04-09T17:45:00.999Z</time></trkpt><trkpt lat="47.25066429939796" lon="-1.5702609624728283"><ele>37.0</ele><time>2026-04-09T17:45:02.999Z</time></trkpt><trkpt lat="47.25062477872451" lon="-1.5701763890698275"><ele>36.714285714285715</ele><time>2026-04-09T17:45:03.999Z</time></trkpt><trkpt lat="47.250599800653056" lon="-1.5700861159726698"><ele>36.42857142857143</ele><time>2026-04-09T17:45:04.999Z</time></trkpt><trkpt lat="47.250561076260404" lon="-1.5699972677990515"><ele>36.14285714285714</ele><time>2026-04-09T17:45:05.999Z</time></trkpt><trkpt lat="47.250535050451056" lon="-1.5698933321997242"><ele>35.85714285714286</ele><time>2026-04-09T17:45:06.999Z</time></trkpt><trkpt lat="47.25050495941867" lon="-1.5698005445316152"><ele>35.57142857142857</ele><time>2026-04-09T17:45:07.999Z</time></trkpt><trkpt lat="47.250465648292796" lon="-1.5697017218932228"><ele>35.285714285714285</ele><time>2026-04-09T17:45:08.999Z</time></trkpt><trkpt lat="47.250428306914166" lon="-1.569606168197067"><ele>35.0</ele><time>2026-04-09T17:45:09.999Z</time></trkpt><trkpt lat="47.25038233217527" lon="-1.5695073455586745"><ele>35.0</ele><time>2026-04-09T17:45:10.999Z</time></trkpt><trkpt lat="47.250334722965256" lon="-1.569406427444489"><ele>35.0</ele><time>2026-04-09T17:45:11.999Z</time></trkpt><trkpt lat="47.25029025696893" lon="-1.5693050064161134"><ele>35.0</ele><time>2026-04-09T17:45:12.999Z</time></trkpt><trkpt lat="47.250239839821354" lon="-1.5692075248822281"><ele>35.0</ele><time>2026-04-09T17:45:13.999Z</time></trkpt><trkpt lat="47.25019294307311" lon="-1.5691104624435017"><ele>35.0</ele><time>2026-04-09T17:45:14.999Z</time></trkpt><trkpt lat="47.25013250955124" lon="-1.5690248832121203"><ele>35.0</ele><time>2026-04-09T17:45:15.999Z</time></trkpt><trkpt lat="47.25006889090617" lon="-1.5689464285984345"><ele>35.0</ele><time>2026-04-09T17:45:16.999Z</time></trkpt><trkpt lat="47.24999936301936" lon="-1.5688795410111256"><ele>35.0</ele><time>2026-04-09T17:45:17.999Z</time></trkpt><trkpt lat="47.249921956143574" lon="-1.5688279923066206"><ele>35.0</ele><time>2026-04-09T17:45:18.999Z</time></trkpt><trkpt lat="47.2498437948965" lon="-1.5687725879266567"><ele>35.0</ele><time>2026-04-09T17:45:19.999Z</time></trkpt><trkpt lat="47.24975930531253" lon="-1.5687218774124687"><ele>35.0</ele><time>2026-04-09T17:45:20.999Z</time></trkpt><trkpt lat="47.249681437432066" lon="-1.568666137756378"><ele>35.0</ele><time>2026-04-09T17:45:21.999Z</time></trkpt><trkpt lat="47.24960553929885" lon="-1.5686229709550445"><ele>35.166666666666664</ele><time>2026-04-09T17:45:22.999Z</time></trkpt><trkpt lat="47.24953320347448" lon="-1.5685796365156477"><ele>35.33333333333333</ele><time>2026-04-09T17:45:23.999Z</time></trkpt><trkpt lat="47.2494431399249" lon="-1.5685516409590547"><ele>35.5</ele><time>2026-04-09T17:45:24.999Z</time></trkpt><trkpt lat="47.24936057817866" lon="-1.568515347318322"><ele>35.666666666666664</ele><time>2026-04-09T17:45:25.999Z</time></trkpt><trkpt lat="47.24927428648551" lon="-1.5684888605042997"><ele>35.833333333333336</ele><time>2026-04-09T17:45:26.999Z</time></trkpt><trkpt lat="47.24918263037433" lon="-1.5684614516809288"><ele>36.0</ele><time>2026-04-09T17:45:27.999Z</time></trkpt><trkpt lat="47.24908892069687" lon="-1.5684334561243358"><ele>36.0</ele><time>2026-04-09T17:45:28.999Z</time></trkpt><trkpt lat="47.24899990488519" lon="-1.5683933068081441"><ele>36.0</ele><time>2026-04-09T17:45:29.999Z</time></trkpt><trkpt lat="47.24891084716399" lon="-1.5683602821096483"><ele>36.0</ele><time>2026-04-09T17:45:30.999Z</time></trkpt><trkpt lat="47.248829961798386" lon="-1.5683273412301841"><ele>36.0</ele><time>2026-04-09T17:45:31.999Z</time></trkpt><trkpt lat="47.248740233524934" lon="-1.5683182887747589"><ele>36.0</ele><time>2026-04-09T17:45:32.999Z</time></trkpt><trkpt lat="47.248650672889546" lon="-1.5683202166124883"><ele>36.0</ele><time>2026-04-09T17:45:33.999Z</time></trkpt><trkpt lat="47.24855373617937" lon="-1.5683109965189996"><ele>35.333333333333336</ele><time>2026-04-09T17:45:34.999Z</time></trkpt><trkpt lat="47.24848093935032" lon="-1.5682747028782669"><ele>34.666666666666664</ele><time>2026-04-09T17:45:35.999Z</time></trkpt><trkpt lat="47.24838421218772" lon="-1.5682426840081514"><ele>34.0</ele><time>2026-04-09T17:45:36.999Z</time></trkpt><trkpt lat="47.24830378782679" lon="-1.5682022832348645"><ele>33.33333333333333</ele><time>2026-04-09T17:45:37.999Z</time></trkpt><trkpt lat="47.248219675428466" lon="-1.56817713752535"><ele>32.666666666666664</ele><time>2026-04-09T17:45:38.999Z</time></trkpt><trkpt lat="47.24813300654967" lon="-1.5681418497129977"><ele>32.0</ele><time>2026-04-09T17:45:39.999Z</time></trkpt><trkpt lat="47.24804361355235" lon="-1.568104047329694"><ele>31.666666666666664</ele><time>2026-04-09T17:45:40.999Z</time></trkpt><trkpt lat="47.24795912396838" lon="-1.568079655991465"><ele>31.333333333333332</ele><time>2026-04-09T17:45:41.999Z</time></trkpt><trkpt lat="47.247879118702606" lon="-1.5680364891901315"><ele>31.0</ele><time>2026-04-09T17:45:42.999Z</time></trkpt><trkpt lat="47.24780724388291" lon="-1.5680048894151746"><ele>30.666666666666664</ele><time>2026-04-09T17:45:43.999Z</time></trkpt><trkpt lat="47.24772853781213" lon="-1.5679475571974812"><ele>30.333333333333332</ele><time>2026-04-09T17:45:44.999Z</time></trkpt><trkpt lat="47.24766144067724" lon="-1.5678974334165154"><ele>30.0</ele><time>2026-04-09T17:45:45.999Z</time></trkpt><trkpt lat="47.24758776374836" lon="-1.5678364131614266"><ele>29.666666666666668</ele><time>2026-04-09T17:45:46.999Z</time></trkpt><trkpt lat="47.247514589733676" lon="-1.567702805624872"><ele>29.333333333333336</ele><time>2026-04-09T17:45:48.999Z</time></trkpt><trkpt lat="47.24744028416206" lon="-1.5676590520903166"><ele>29.0</ele><time>2026-04-09T17:45:49.999Z</time></trkpt><trkpt lat="47.24737767134537" lon="-1.5676216688021716"><ele>28.666666666666668</ele><time>2026-04-09T17:45:50.999Z</time></trkpt><trkpt lat="47.247298588088945" lon="-1.5676378458752926"><ele>28.333333333333336</ele><time>2026-04-09T17:45:51.999Z</time></trkpt><trkpt lat="47.24721908573736" lon="-1.5676372591420706"><ele>28.0</ele><time>2026-04-09T17:45:52.999Z</time></trkpt><trkpt lat="47.24718371410598" lon="-1.5677565336242016"><ele>28.0</ele><time>2026-04-09T17:45:53.999Z</time></trkpt><trkpt lat="47.24713111766358" lon="-1.5679276920869647"><ele>27.999999999999996</ele><time>2026-04-09T17:45:55.999Z</time></trkpt><trkpt lat="47.24711054009129" lon="-1.5680169593557416"><ele>27.999999999999996</ele><time>2026-04-09T17:45:56.999Z</time></trkpt><trkpt lat="47.24710073326458" lon="-1.568192727865249"><ele>28.0</ele><time>2026-04-09T17:45:58.999Z</time></trkpt><trkpt lat="47.24708841186692" lon="-1.5682901255801025"><ele>28.0</ele><time>2026-04-09T17:45:59.999Z</time></trkpt><trkpt lat="47.247064062438206" lon="-1.5684493817403617"><ele>28.000000000000004</ele><time>2026-04-09T17:46:01.999Z</time></trkpt><trkpt lat="47.24703292366792" lon="-1.568595478312642"><ele>28.0</ele><time>2026-04-09T17:46:03.999Z</time></trkpt><trkpt lat="47.24698439244856" lon="-1.568713830785424"><ele>28.0</ele><time>2026-04-09T17:46:05.999Z</time></trkpt><trkpt lat="47.246933388567754" lon="-1.5688064508154698"><ele>28.0</ele><time>2026-04-09T17:46:07.999Z</time></trkpt><trkpt lat="47.246880456849226" lon="-1.5688840672388382"><ele>28.000000000000004</ele><time>2026-04-09T17:46:09.999Z</time></trkpt><trkpt lat="47.24680908494372" lon="-1.5688219573363371"><ele>28.0</ele><time>2026-04-09T17:46:12.999Z</time></trkpt><trkpt lat="47.24673348017711" lon="-1.5687973983600445"><ele>29.0</ele><time>2026-04-09T17:46:14.999Z</time></trkpt><trkpt lat="47.2466684366085" lon="-1.568806366996438"><ele>29.0</ele><time>2026-04-09T17:46:16.999Z</time></trkpt><trkpt lat="47.24662330005992" lon="-1.5688715782031126"><ele>29.0</ele><time>2026-04-09T17:46:19.999Z</time></trkpt><trkpt lat="47.24655972332437" lon="-1.5689010825022764"><ele>29.0</ele><time>2026-04-09T17:46:31.999Z</time></trkpt></trkseg></trk></gpx>